GFSGBSN_700_rhum_000.txt.gz
RH
29 16 16 13 15 33 54 57 73 70 50 63 46 56 68 64 61 55 66 76 67 66 65 51 39 42 68 56 53 54 44 38 29 30 73 98 96 87 78 70 74 78 67 64 52 31 26
38 20 17 13 19 40 46 59 74 73 68 89 80 83 57 66 66 60 54 60 65 74 64 55 62 53 54 47 44 59 41 41 34 34 64 98 94 85 83 78 80 75 71 68 58 39 26
40 24 18 13 20 38 42 73 77 70 72 88 97 92 75 66 72 70 68 69 56 67 75 82 65 58 66 37 44 58 34 35 38 99 97 93 92 86 92 89 86 77 75 68 58 42 33
50 27 18 14 20 36 37 82 80 74 71 98 100 100 86 78 94 79 63 79 79 78 69 82 73 65 68 40 46 95 36 33 34 54 87 94 91 100 94 86 80 80 68 63 40 18 18
67 34 18 15 21 33 28 86 97 91 76 94 95 98 79 77 65 58 52 77 86 79 79 80 86 85 67 55 46 94 89 36 32 57 86 100 91 82 99 94 88 64 63 50 29 28 35
34 50 22 18 21 30 24 91 96 99 98 93 96 98 98 99 98 72 58 82 84 90 86 92 95 99 67 37 41 97 98 62 37 77 98 92 97 99 97 99 84 71 61 44 39 36 37
26 64 36 20 20 27 20 92 98 99 99 99 99 97 99 98 98 96 86 91 98 98 90 98 86 80 56 43 57 97 84 87 53 78 96 97 99 97 96 89 74 71 49 42 36 33 33
34 27 62 24 16 23 16 74 77 99 100 100 100 100 100 98 98 97 92 98 97 85 97 95 74 78 66 61 69 93 99 98 61 75 86 98 97 87 92 75 79 77 52 42 38 40 41
32 35 54 41 21 19 18 35 66 98 100 99 99 98 98 96 99 98 98 98 98 95 95 82 67 68 80 75 77 99 99 99 68 94 100 100 98 94 87 92 88 70 45 48 46 45 42
27 43 33 54 21 17 17 14 64 99 99 99 100 99 97 99 97 98 98 98 87 90 86 68 67 76 96 65 93 72 100 100 77 99 100 99 97 85 96 90 79 52 51 48 44 46 42
24 40 40 59 30 21 17 15 58 89 100 100 100 99 98 99 96 89 95 98 99 99 97 87 86 89 95 77 80 99 100 99 81 96 97 87 94 84 95 63 51 50 52 48 42 44 43
20 37 50 36 44 20 17 15 30 70 100 99 100 99 97 99 99 99 99 98 99 100 98 98 99 98 99 100 86 100 100 99 95 81 94 87 91 84 75 53 58 53 47 48 48 47 52
18 41 48 40 61 24 18 15 18 62 72 99 98 99 100 100 99 99 99 99 99 99 99 98 99 99 99 100 100 99 100 100 98 96 88 74 85 52 50 58 50 48 55 52 55 58 60
17 47 49 52 45 39 18 15 16 25 61 78 78 93 96 96 100 99 99 99 99 99 99 100 98 99 99 98 100 99 99 98 100 85 82 76 65 58 57 54 50 47 52 49 64 70 54
20 44 52 54 37 62 30 13 18 20 34 60 61 71 77 95 100 100 100 100 98 98 99 98 100 99 99 98 98 100 100 94 82 66 57 64 54 56 52 50 47 46 47 47 50 52 51
25 45 52 56 50 62 34 11 16 22 25 52 49 68 82 93 97 100 100 99 99 97 97 100 98 98 100 99 98 94 99 80 70 65 51 48 51 53 50 51 51 46 44 48 50 54 53
29 50 51 61 58 53 42 6 13 26 26 38 58 69 98 93 96 100 99 98 99 100 98 98 97 99 91 78 83 84 82 85 58 51 61 42 42 52 51 52 50 50 48 46 44 42 55
39 47 48 66 61 41 59 13 10 29 42 55 59 74 98 93 99 97 100 100 99 99 100 99 83 83 86 79 78 77 61 62 54 51 64 54 46 50 58 53 51 52 48 46 39 43 43
46 45 44 68 66 41 73 44 8 32 55 75 84 93 91 98 94 85 98 100 100 100 99 99 98 98 78 90 76 64 60 56 52 54 68 64 61 67 66 64 60 57 53 52 47 44 45
46 44 41 58 68 50 62 51 6 22 41 62 78 85 90 85 90 86 88 84 99 100 99 98 100 89 94 68 65 61 58 62 62 61 63 64 62 55 59 54 56 57 53 50 49 44 41
43 47 40 48 64 59 52 59 8 17 30 58 80 79 80 96 94 84 83 69 71 92 99 97 99 93 81 76 69 68 67 64 66 60 58 58 57 51 48 46 52 54 52 48 45 43 40
38 49 34 38 61 67 43 72 11 12 29 52 66 75 79 86 87 82 75 65 61 64 78 93 86 90 79 70 66 65 64 65 66 64 61 53 55 50 47 45 41 40 44 45 44 43 36
32 42 32 34 47 69 53 54 38 8 28 45 62 55 52 55 62 65 63 58 62 60 65 64 65 78 79 64 68 80 69 64 54 51 46 46 35 46 29 28 24 30 31 32 29 26 36
28 28 29 34 39 57 65 44 72 14 21 36 57 44 39 40 48 48 52 54 55 58 59 61 60 58 64 62 62 67 64 52 51 48 41 32 28 24 31 37 60 43 50 51 53 54 54
24 22 30 36 34 42 62 58 52 34 14 29 43 35 25 27 31 26 27 44 44 40 60 57 53 50 54 59 61 59 50 41 33 27 25 26 30 41 55 60 51 52 50 52 54 57 57
21 23 32 35 33 38 46 64 48 74 15 18 35 34 28 19 25 26 22 31 28 30 41 41 38 37 35 36 33 32 38 44 53 59 57 60 62 60 65 64 69 56 57 53 50 58 50
19 26 34 34 33 36 38 53 65 60 72 24 24 23 21 22 21 23 23 25 27 27 32 37 37 41 38 38 49 64 67 65 65 65 64 67 66 65 65 67 56 54 60 58 57 44 51
20 32 36 34 36 34 33 32 64 60 64 76 55 40 31 24 27 24 25 30 34 36 40 42 71 68 66 72 79 72 72 72 72 70 68 62 62 65 70 75 69 61 69 65 59 68 70
24 37 39 38 38 36 28 28 27 72 64 59 73 80 73 62 56 34 31 32 36 51 50 53 62 78 84 82 79 76 74 73 72 72 72 69 68 66 54 60 60 64 66 68 75 81 79

GFSGBSN_700_rhum_003.txt.gz
RH
47 31 22 16 11 26 42 47 70 62 61 62 65 72 45 59 62 62 62 63 66 75 70 66 67 66 86 82 59 68 55 51 38 27 38 62 91 87 84 78 81 83 65 58 67 64 50
30 49 25 16 13 25 37 52 76 63 64 63 73 87 73 58 68 66 63 67 69 78 86 85 79 72 74 70 50 65 62 53 45 26 38 60 79 82 88 87 79 77 71 69 67 63 57
21 58 30 17 16 27 37 49 85 80 76 72 74 88 85 70 64 59 70 70 68 65 79 95 71 69 68 42 47 61 63 53 50 32 41 50 83 96 92 91 84 81 85 78 60 58 61
26 36 45 18 17 29 36 51 95 92 95 89 84 85 89 81 67 81 86 78 76 72 66 89 83 79 77 57 46 53 60 50 51 39 43 69 100 92 96 94 88 91 91 81 53 54 33
26 25 62 26 18 30 32 74 100 99 93 97 98 97 99 94 70 69 77 78 71 75 78 92 86 83 68 62 44 56 76 50 49 37 61 78 99 99 93 97 95 91 78 70 61 36 31
24 34 32 51 18 24 26 67 76 99 100 100 97 99 98 99 98 95 51 56 69 80 88 90 92 99 92 53 42 70 92 50 44 35 75 90 100 91 100 93 93 90 76 69 62 36 40
21 35 33 59 22 19 23 32 61 99 100 100 99 99 97 99 98 99 76 83 84 94 87 72 75 72 73 62 55 75 100 61 42 78 95 100 100 96 61 96 80 86 72 67 46 40 39
22 28 43 38 42 21 20 14 76 100 99 100 100 98 98 100 98 99 96 80 85 78 88 91 76 85 83 56 57 54 99 74 40 90 100 99 97 72 76 90 76 92 78 68 45 44 43
25 24 44 41 54 26 17 18 66 100 99 95 99 98 97 98 99 99 98 96 98 98 98 92 88 81 96 64 58 55 96 89 39 87 91 98 92 98 91 71 98 93 86 76 57 46 47
28 25 39 52 47 41 19 17 44 98 100 100 99 99 99 99 98 99 98 98 98 98 97 96 77 86 96 80 62 80 99 95 55 88 78 100 97 92 100 95 100 92 74 76 51 55 49
28 27 37 53 43 52 21 17 15 89 100 100 100 100 99 99 99 99 99 99 96 79 98 58 70 72 91 86 68 96 85 98 64 62 99 98 95 93 100 82 83 83 74 54 54 53 47
27 25 39 51 56 54 30 17 15 57 93 100 100 100 99 99 99 98 99 95 95 98 100 71 67 62 96 89 81 96 99 100 76 58 100 94 87 88 66 87 84 72 61 55 52 49 57
26 22 46 57 57 47 44 19 17 15 56 98 96 100 100 100 99 99 99 98 98 99 82 93 79 76 93 98 97 99 99 100 93 90 98 99 96 91 87 98 88 61 60 57 61 63 66
27 20 45 62 54 50 58 37 13 18 22 58 74 97 100 100 99 99 98 98 98 90 96 100 97 99 92 93 98 100 99 100 97 80 89 94 90 86 94 87 64 58 57 53 66 73 58
27 21 38 64 52 58 53 37 12 18 24 26 54 70 82 100 100 99 99 99 99 100 95 98 98 97 99 95 98 100 100 100 97 86 79 72 78 88 61 62 56 58 52 52 52 57 60
28 21 35 64 59 57 48 41 10 19 30 29 49 69 85 100 100 100 99 99 100 99 95 97 99 98 99 99 97 100 100 99 96 76 71 66 62 74 53 53 54 51 48 51 52 63 60
29 21 33 61 66 58 47 44 10 18 34 36 54 73 90 90 99 100 99 100 99 100 94 93 98 98 98 95 98 99 99 100 91 72 61 55 52 60 55 55 55 51 49 49 49 52 58
28 20 34 56 68 63 50 55 27 16 38 61 66 80 99 96 99 100 100 100 93 92 98 98 92 100 98 90 84 100 90 84 78 76 71 54 48 54 54 52 54 53 50 49 45 46 44
28 21 32 52 61 66 56 61 48 13 40 73 92 95 99 95 100 100 100 97 99 99 100 99 84 77 86 73 88 91 76 69 64 65 62 50 49 62 64 58 55 54 52 50 48 43 43
30 20 26 49 54 62 58 55 48 13 55 92 99 98 96 97 98 100 99 100 100 100 99 98 92 80 82 89 90 73 73 64 58 59 69 62 58 48 54 52 52 55 51 51 53 49 46
28 19 28 49 45 60 58 53 42 9 27 61 90 93 96 85 86 98 89 99 99 99 99 100 97 79 87 88 72 67 65 65 64 54 64 68 60 57 52 51 48 47 47 50 54 52 47
27 21 31 50 36 53 58 51 63 10 22 46 86 81 89 96 88 93 87 96 93 93 86 88 88 98 78 70 67 61 60 60 59 61 63 60 56 53 52 50 50 55 57 57 54 50 49
29 22 32 52 32 46 54 65 63 19 16 43 64 82 92 94 86 80 82 94 97 87 95 100 100 94 83 62 54 62 62 62 60 60 60 58 54 53 49 48 44 36 43 49 53 50 47
28 23 34 42 29 42 43 69 49 48 12 36 62 70 74 76 81 76 73 74 83 80 85 96 89 87 88 91 83 85 75 68 62 64 58 54 46 47 26 32 54 33 33 40 43 41 42
26 21 31 34 27 40 40 61 56 64 19 27 54 61 56 58 58 59 66 66 67 66 70 78 81 77 77 77 81 91 95 77 72 72 67 54 38 25 34 44 40 54 51 56 56 58 56
21 18 28 28 32 38 41 45 67 48 44 18 45 55 42 38 42 47 54 61 46 66 65 62 61 62 69 74 78 55 54 51 42 39 44 32 25 26 48 57 64 50 56 58 58 58 58
16 18 26 27 38 36 41 39 64 52 59 16 30 52 39 31 32 36 41 45 43 60 60 52 50 63 68 65 48 38 39 39 50 54 49 40 45 51 58 60 54 55 60 61 58 43 34
14 18 24 30 40 36 41 41 42 67 57 43 28 44 38 28 26 31 34 35 33 38 41 42 45 43 40 37 43 49 56 50 62 64 63 60 64 66 68 68 64 53 52 56 51 47 48
17 18 23 35 41 40 40 40 35 62 58 71 44 29 31 28 32 29 31 34 35 37 41 42 45 57 51 54 64 72 74 72 70 69 67 63 61 61 60 59 54 49 50 53 53 58 61

GFSGBSN_700_rhum_009.txt.gz
RH
18 19 20 26 25 39 27 15 22 41 53 63 69 65 68 68 65 57 47 41 42 41 38 42 47 68 71 60 47 66 72 55 46 73 61 33 70 95 98 78 82 77 76 62 55 57 60
22 20 20 25 29 28 41 16 22 44 46 66 69 72 77 80 76 64 55 45 46 44 40 53 70 80 72 60 63 69 70 56 61 69 67 42 78 98 92 94 84 70 78 66 62 61 62
24 20 22 22 31 30 42 19 20 36 42 70 83 86 81 87 88 76 65 54 50 52 49 48 70 74 77 56 71 81 69 59 85 76 68 47 66 100 99 95 82 86 85 74 64 58 59
23 22 22 20 26 36 38 29 17 26 36 78 87 94 100 100 100 93 76 60 54 57 64 59 64 85 72 60 66 67 66 69 100 80 66 58 93 99 98 97 91 91 95 90 61 65 55
21 24 22 22 21 36 38 41 19 20 22 48 92 89 100 100 100 99 98 90 74 74 85 75 77 82 75 58 64 63 73 69 100 83 63 95 100 99 100 90 90 91 87 90 71 60 61
19 24 22 25 22 31 43 46 26 17 19 40 94 94 99 100 100 100 99 99 100 86 92 90 74 84 73 66 61 60 66 70 94 95 67 93 100 100 98 87 98 90 82 83 71 68 65
17 23 23 25 23 26 46 43 43 19 16 37 91 95 97 99 100 100 98 98 99 100 79 79 66 64 68 73 72 71 68 66 84 99 65 94 100 100 95 85 77 74 68 72 70 70 73
16 20 24 24 27 24 43 49 51 27 16 20 82 100 97 100 99 99 98 99 99 98 96 96 81 70 68 69 74 68 70 61 78 99 65 98 100 97 98 80 86 87 84 77 72 77 76
15 20 24 23 30 24 42 55 50 42 19 15 74 100 100 100 99 98 98 98 99 98 98 89 80 73 70 70 64 83 67 54 82 99 67 83 97 95 100 90 88 88 77 74 87 79 75
16 20 25 23 32 25 42 56 54 51 27 20 33 91 96 100 99 98 98 98 98 98 97 89 81 75 73 86 66 92 65 58 98 99 68 93 100 98 98 85 86 87 83 78 85 91 87
15 18 24 23 34 27 41 61 60 52 54 26 18 32 91 98 99 98 98 98 98 98 98 88 87 96 64 72 79 84 60 85 97 94 78 98 100 96 99 82 84 97 84 86 90 94 91
17 17 21 24 34 27 46 66 65 53 68 44 20 19 23 78 93 98 98 98 98 98 96 97 96 90 83 80 95 80 63 90 99 95 78 100 98 100 87 85 91 94 76 86 96 94 62
25 17 19 24 35 29 43 66 64 60 67 42 20 23 28 44 80 99 98 98 98 98 91 97 96 96 79 78 98 80 67 100 98 98 95 100 100 98 100 100 100 99 88 96 96 80 67
24 25 18 24 35 30 42 66 66 64 68 38 21 30 48 63 88 98 98 98 98 93 93 91 85 95 88 90 98 82 64 99 99 84 83 100 100 98 95 100 95 98 92 84 76 71 60
18 28 21 25 38 31 40 65 68 66 72 38 22 48 57 74 92 98 98 98 86 96 98 89 87 94 98 83 94 84 83 98 98 86 70 98 98 99 84 86 85 100 98 82 61 66 65
14 26 30 29 42 32 43 62 70 68 73 40 31 58 71 86 100 99 98 97 96 98 98 72 80 83 87 84 99 86 85 78 96 81 64 70 85 98 93 100 98 88 83 98 68 67 70
26 26 30 33 44 32 50 61 74 70 76 38 44 81 97 100 100 98 98 97 97 99 98 78 78 80 71 75 99 91 75 95 98 77 80 67 68 85 94 96 97 96 98 96 68 58 62
66 28 26 37 45 33 54 60 77 72 76 34 59 92 99 100 99 98 98 96 99 98 96 93 82 66 50 68 90 98 98 99 91 78 82 73 63 76 90 86 89 76 83 90 57 60 56
92 22 26 37 48 35 57 60 75 74 74 33 94 96 100 100 99 99 99 99 99 93 94 88 79 91 68 68 99 99 88 85 83 80 71 69 67 75 72 73 64 79 84 71 66 54 50
95 56 24 36 50 38 61 59 72 75 71 31 90 94 100 100 100 99 99 99 99 97 94 95 86 92 93 85 88 91 100 93 94 73 71 67 61 64 72 66 63 64 75 69 57 57 52
99 97 69 35 47 40 67 58 70 77 70 25 90 93 95 99 99 100 100 99 100 99 100 100 99 82 81 85 92 88 99 96 98 93 86 74 64 58 58 58 58 54 59 58 55 55 52
99 99 90 34 46 40 68 58 68 78 72 29 62 87 68 89 90 100 100 100 99 100 100 98 94 90 91 79 82 80 61 93 94 97 89 87 73 61 53 57 60 59 56 54 54 52 54
100 100 98 29 45 42 67 57 63 80 69 66 21 43 63 89 98 100 99 100 100 99 100 94 78 87 98 95 75 68 64 71 83 89 89 84 70 64 60 60 62 66 52 54 54 51 43
100 100 97 30 49 41 66 58 58 78 72 76 25 43 60 92 99 100 96 99 100 100 99 96 96 97 87 80 80 85 83 82 85 81 85 91 93 85 53 55 55 49 47 48 48 48 51
99 85 100 50 54 41 63 58 56 73 84 70 30 33 53 79 93 95 92 91 100 100 99 99 99 93 95 97 94 91 88 99 91 98 98 91 82 79 48 48 45 38 39 38 39 44 47
99 98 100 80 50 44 61 58 54 63 84 68 56 24 49 75 61 64 69 74 100 100 100 98 100 99 99 95 100 99 100 88 94 77 77 71 64 68 49 38 48 40 39 35 36 36 32
99 100 100 96 53 45 57 56 53 59 79 72 72 23 44 75 58 44 60 74 84 93 100 100 99 98 99 100 94 85 84 97 73 74 69 70 67 82 43 36 34 34 31 40 51 36 36
100 98 100 100 55 45 52 53 53 58 69 81 70 27 46 71 52 36 55 67 73 73 88 97 100 100 100 100 98 77 76 73 62 57 60 68 61 57 47 42 43 48 45 47 46 53 54
99 99 100 100 52 44 50 51 54 57 62 85 77 37 46 68 54 42 51 62 64 76 73 75 83 81 98 87 82 66 57 72 54 47 49 49 54 46 45 39 36 39 41 52 55 60 54

GFSGBSN_700_rhum_012.txt.gz
RH
23 20 21 19 19 25 30 35 28 17 27 45 51 64 68 68 68 68 62 52 43 40 38 36 32 30 38 42 57 89 80 63 55 72 63 74 59 38 62 95 100 78 80 72 57 56 58
23 20 21 19 20 20 31 32 39 18 23 38 44 55 67 75 75 77 72 61 50 45 44 36 35 48 43 53 36 52 68 68 64 54 59 67 70 71 91 96 99 89 82 76 65 60 64
25 21 20 22 20 19 25 36 39 24 20 28 36 52 66 79 78 91 90 73 60 51 50 40 49 62 64 52 60 56 53 56 57 59 53 58 68 90 72 94 99 99 98 91 67 62 68
24 22 19 24 20 21 21 35 39 35 18 23 25 45 74 88 90 98 99 89 75 64 55 60 71 66 71 51 61 57 68 61 60 54 53 67 68 98 97 97 97 100 100 86 74 84 68
22 20 18 22 23 22 20 26 42 44 23 20 20 45 79 85 90 99 99 97 93 88 82 69 71 70 68 46 44 54 66 62 64 68 64 78 67 99 100 99 94 99 86 86 74 83 75
19 20 18 20 24 22 23 22 42 45 36 19 20 41 80 93 83 100 99 97 98 93 100 90 92 86 60 47 49 55 71 64 69 78 99 87 91 100 96 93 94 84 83 72 76 71 61
13 15 18 20 25 23 26 23 36 49 48 23 19 34 86 93 100 96 97 98 99 100 99 79 80 74 68 56 62 60 68 72 76 78 98 92 99 99 95 100 84 66 68 73 70 69 72
16 14 15 19 25 24 26 25 32 53 50 36 23 20 84 96 93 100 98 97 96 99 99 98 96 93 93 76 65 76 73 71 70 75 98 99 98 94 100 99 87 81 78 75 65 70 76
16 16 15 18 26 26 26 27 27 54 54 55 28 19 55 94 93 92 99 98 98 98 98 97 97 97 96 82 62 80 77 67 59 60 96 91 86 98 100 99 94 85 79 66 66 80 83
13 20 15 16 26 26 27 31 27 58 60 64 58 29 20 70 64 90 99 98 98 98 98 95 96 92 94 96 71 63 83 73 80 85 94 98 98 89 99 98 94 95 86 83 83 90 70
12 18 20 15 22 26 30 34 28 64 64 61 78 55 33 19 22 67 95 98 98 98 95 86 90 95 86 79 86 64 73 80 77 94 96 93 97 100 100 96 92 82 83 87 93 94 84
38 13 24 17 19 26 34 38 34 70 67 65 79 61 34 32 33 58 93 98 98 98 90 92 96 95 95 83 75 90 92 82 84 99 98 83 99 100 100 94 99 96 92 92 91 89 68
97 23 22 25 17 24 37 39 41 71 70 70 81 60 28 34 50 83 98 98 98 97 93 98 97 97 97 90 91 91 87 76 97 98 98 94 99 93 100 99 100 98 98 99 95 93 60
90 95 16 29 20 23 40 40 45 76 76 74 85 61 28 43 72 88 98 98 98 96 95 96 96 98 98 90 92 96 100 100 93 100 94 98 100 100 98 98 96 98 83 60 62 58 48
100 95 79 32 29 24 45 44 48 80 80 78 91 61 33 73 83 98 98 98 94 96 96 96 98 96 100 98 78 99 98 92 98 99 86 97 100 100 99 100 94 100 98 74 58 59 49
99 93 87 76 72 30 49 46 58 83 86 79 96 44 56 94 99 98 98 98 97 97 97 98 93 95 95 100 94 100 88 86 85 96 97 93 99 100 100 98 99 98 92 88 71 59 54
99 98 88 98 94 72 50 50 69 86 88 84 98 40 72 96 100 98 98 96 98 98 98 99 85 93 83 94 88 93 89 84 65 86 97 98 90 98 98 98 95 100 99 95 71 60 43
98 98 94 99 100 90 53 53 76 85 93 86 77 67 91 100 99 98 98 96 96 99 99 79 89 82 80 93 83 98 89 93 74 79 92 74 67 96 94 92 94 85 88 89 73 62 56
97 99 98 88 100 93 57 59 83 84 97 90 53 88 99 100 100 99 98 98 99 99 92 98 80 88 73 65 90 97 79 90 63 78 71 74 67 73 99 89 84 97 93 88 68 58 53
93 99 100 98 100 91 62 64 86 86 99 93 59 98 100 100 100 99 99 99 99 94 92 99 85 81 58 57 85 73 96 70 79 83 75 73 68 55 56 59 69 78 82 82 79 69 55
76 98 99 100 100 94 65 65 88 86 100 97 51 87 97 99 97 99 99 99 100 97 98 100 92 85 78 78 96 91 91 90 86 81 77 82 68 68 64 60 60 59 61 61 73 70 60
80 97 100 100 99 97 76 63 91 83 99 97 58 70 96 91 91 100 99 98 99 97 98 97 96 94 89 67 78 90 95 93 89 87 79 86 77 65 61 62 64 62 58 57 58 68 63
40 96 99 100 100 99 74 70 90 84 90 96 84 43 81 76 83 100 99 99 99 100 99 96 96 96 100 89 76 70 88 93 76 71 90 90 82 71 59 61 66 67 65 59 53 54 54
37 96 99 99 100 97 78 76 88 80 82 97 94 43 40 51 81 100 100 100 100 99 100 100 95 87 79 98 84 85 99 100 100 95 92 86 90 70 63 82 67 52 48 48 51 49 51
52 96 99 100 100 99 75 73 88 75 78 99 93 57 43 59 80 99 99 99 100 100 100 99 90 90 83 100 98 100 100 100 100 100 99 90 96 84 71 60 51 44 47 46 47 41 37
26 94 98 99 98 100 74 76 84 74 75 99 89 69 32 53 74 71 88 97 100 100 100 100 100 93 95 99 95 92 99 99 99 100 100 98 100 99 84 58 53 42 42 38 41 42 36
16 78 98 98 99 100 86 74 83 76 73 99 92 79 28 49 76 51 69 88 100 100 99 100 99 100 99 100 98 94 98 86 90 98 99 100 99 92 83 95 46 43 37 36 44 39 33
14 77 97 99 99 96 71 73 83 77 72 94 99 84 29 48 66 59 54 87 98 99 99 99 100 99 100 100 98 98 99 90 81 78 79 83 71 68 80 95 65 46 44 43 38 36 40
16 65 97 99 93 100 69 71 83 76 71 80 100 83 39 58 65 50 49 70 94 93 99 99 98 98 97 98 94 97 85 95 92 82 78 72 72 73 63 61 51 50 50 50 44 44 49

GFSGBSN_700_rhum_015.txt.gz
RH
29 29 26 22 20 19 17 19 31 34 27 21 34 42 52 58 76 76 76 70 62 54 43 36 34 35 39 62 65 62 69 55 58 66 66 64 56 69 60 97 99 96 78 72 72 70 71
19 27 30 26 20 22 18 17 24 34 37 19 25 33 44 63 83 87 90 77 66 61 49 40 40 46 40 60 41 70 48 56 62 61 58 71 67 62 95 90 96 92 85 80 72 74 73
9 19 26 29 21 22 21 20 18 32 37 29 19 24 33 69 86 83 91 84 79 70 57 46 52 64 78 39 47 40 39 36 48 58 63 53 89 96 98 92 87 94 85 84 77 74 74
10 13 19 25 24 19 24 22 20 23 39 40 21 20 22 67 78 80 91 89 85 79 65 51 52 88 79 39 46 39 47 54 49 47 45 52 73 77 97 97 97 90 94 93 82 73 71
14 12 16 20 23 19 23 23 24 22 38 43 35 19 20 61 89 96 98 97 90 85 69 58 56 79 84 41 43 55 57 52 58 60 52 59 98 80 75 98 90 98 88 91 88 67 65
16 14 13 16 20 19 23 24 27 26 30 47 47 24 19 45 89 98 100 100 96 97 91 80 85 82 64 52 46 44 47 56 64 64 69 85 77 93 73 95 97 90 94 72 78 62 72
29 16 14 14 14 18 20 26 27 32 31 51 50 42 21 20 88 93 100 99 100 97 92 78 82 76 73 67 57 49 47 47 65 95 91 96 96 97 61 78 93 77 75 68 61 58 61
59 30 14 16 14 14 18 26 25 37 36 53 56 54 28 19 63 98 100 98 100 98 100 95 96 88 96 88 77 63 55 64 89 98 100 99 97 89 66 63 100 92 81 59 55 60 66
94 57 23 14 17 15 15 26 27 36 42 54 62 62 47 29 26 75 100 99 100 100 99 97 93 100 98 98 92 85 65 62 96 99 96 98 63 74 95 95 100 98 82 54 58 66 67
99 87 44 14 20 16 16 24 27 32 44 60 69 69 76 62 34 40 51 71 100 99 98 97 80 93 99 98 95 91 87 82 98 94 98 98 94 99 99 97 98 100 77 62 64 72 62
99 98 86 43 17 20 16 26 27 32 49 72 76 76 88 83 51 52 39 64 100 98 96 90 98 99 98 98 97 77 60 76 100 95 94 84 82 97 100 96 98 96 85 70 80 75 88
98 99 98 83 36 25 17 37 34 35 60 90 90 84 96 98 53 66 61 100 99 98 93 94 94 92 97 98 93 82 60 69 100 98 98 90 87 99 95 98 100 98 80 85 86 77 69
100 97 98 90 86 76 24 61 60 47 61 93 99 97 98 100 58 85 91 100 98 97 93 98 96 97 96 96 94 94 100 100 98 98 95 94 84 100 95 100 100 100 94 95 87 93 51
96 98 98 98 90 90 32 74 85 76 59 98 100 100 100 100 85 89 99 99 98 96 92 97 97 97 98 96 99 96 100 99 97 86 98 97 98 99 99 100 98 100 94 57 58 55 43
44 97 98 99 87 89 77 93 94 82 62 99 100 100 99 100 92 95 100 98 97 98 96 97 97 98 96 99 96 98 94 93 98 75 98 93 94 100 99 96 100 100 87 64 54 46 38
41 85 98 100 94 98 94 99 99 87 76 99 100 100 98 100 81 100 98 98 97 97 98 98 94 91 94 98 94 99 91 85 90 84 96 97 94 100 99 100 95 98 86 72 57 51 46
75 60 98 99 100 90 97 99 100 90 95 100 100 100 99 85 100 100 97 98 97 97 98 98 92 86 78 92 98 98 87 77 77 80 96 99 99 100 99 100 97 100 99 81 56 49 40
91 26 96 98 95 90 100 100 100 94 100 100 100 100 98 86 100 99 98 97 96 98 98 98 96 71 69 77 92 89 80 67 76 75 98 98 99 99 98 97 95 85 94 75 58 54 48
98 26 91 98 97 99 98 99 100 97 100 100 100 100 97 100 100 99 99 98 98 98 96 99 93 77 69 86 84 98 85 70 94 64 98 88 92 99 100 96 100 99 87 82 70 57 48
94 99 80 98 100 100 98 99 100 98 100 100 99 99 100 98 99 98 99 98 98 96 99 85 91 79 71 80 81 81 94 88 88 66 100 99 89 68 56 57 75 90 82 80 73 62 51
95 100 66 97 100 99 99 99 100 96 100 100 99 98 99 99 96 99 99 98 99 100 88 98 97 87 80 76 80 86 86 91 97 82 94 99 72 59 55 56 69 74 78 80 77 69 55
94 95 72 96 100 90 99 100 98 98 100 100 99 100 81 100 99 99 99 98 98 100 89 98 98 96 89 73 72 91 89 100 96 90 93 99 79 66 64 61 58 58 63 68 72 70 64
96 97 89 95 96 95 99 100 100 100 100 99 99 100 80 89 100 96 96 99 98 99 98 94 95 97 94 80 78 97 87 95 99 77 95 100 89 67 55 62 67 64 59 59 63 63 60
96 97 91 93 99 78 98 100 99 100 100 100 100 100 100 58 80 95 96 99 99 99 99 92 98 98 99 97 89 88 99 100 96 98 79 86 90 73 68 62 68 50 48 55 58 54 60
97 99 59 86 98 88 98 95 99 100 100 97 100 100 100 52 86 95 99 99 100 99 99 100 99 100 97 99 99 99 100 99 99 97 94 95 96 87 71 68 64 53 48 50 57 45 48
94 99 64 92 99 86 99 98 93 100 99 92 99 100 100 63 70 90 93 97 100 99 100 99 100 100 97 100 99 98 99 99 99 99 100 100 100 96 88 62 57 46 41 43 49 52 46
98 96 26 93 98 94 98 98 88 100 99 84 96 100 100 62 45 81 70 83 99 100 100 99 100 100 97 99 100 98 99 99 96 99 99 98 100 99 97 82 72 52 44 39 48 45 38
92 97 15 91 98 89 99 100 86 96 97 84 95 100 100 61 52 85 80 79 100 99 99 98 100 99 100 99 97 86 91 86 86 94 98 97 96 98 100 97 88 57 44 45 44 37 34
98 94 21 87 99 88 98 100 87 92 93 84 98 100 100 52 55 82 62 74 99 100 100 100 99 96 95 100 98 83 90 87 74 75 87 88 80 70 70 77 57 53 50 49 46 49 44

GFSGBSN_700_rhum_018.txt.gz
RH
10 10 17 22 25 27 24 22 19 20 28 35 32 20 31 40 48 56 67 64 61 68 64 58 50 43 41 39 35 46 52 42 44 44 63 69 70 68 75 88 99 94 97 83 77 66 63
14 10 10 14 20 26 26 21 22 21 21 34 38 24 23 31 36 57 70 55 61 69 68 62 54 46 40 38 38 43 46 49 61 56 74 77 92 82 97 92 93 91 92 77 83 72 70
23 15 12 11 14 20 26 22 22 22 22 28 39 36 21 24 30 58 66 60 61 72 76 70 61 51 46 43 48 46 60 38 45 57 66 69 99 100 100 90 95 91 97 87 76 80 72
46 29 16 14 12 17 23 24 20 24 24 23 39 44 29 21 22 59 80 76 78 76 80 80 69 57 54 46 49 39 45 40 38 37 39 53 96 98 95 100 89 92 92 97 74 82 75
78 54 37 17 13 13 20 23 20 26 26 27 32 48 44 23 21 47 85 85 89 94 90 90 77 67 56 46 45 46 43 44 54 53 47 49 58 96 98 96 96 88 90 82 79 81 78
93 96 72 44 17 14 14 21 20 23 27 30 30 49 53 37 22 27 84 93 90 96 99 98 93 86 65 47 47 46 47 54 59 57 63 60 73 70 91 91 95 95 99 87 85 69 80
98 90 99 81 44 15 14 14 19 20 28 33 34 48 58 53 29 22 44 83 69 79 87 93 96 85 80 66 62 59 57 48 60 75 96 85 89 64 37 60 35 74 88 86 72 74 76
47 99 99 98 75 37 15 15 14 19 28 31 42 44 64 64 40 28 23 58 83 94 96 98 99 98 97 92 84 79 69 66 60 74 97 97 89 35 54 84 72 98 100 90 82 69 68
11 59 95 99 99 71 19 17 15 18 28 30 46 46 73 72 61 44 33 41 64 80 100 98 94 100 95 100 93 98 86 69 58 66 94 90 40 77 85 90 98 98 99 92 97 74 69
2 12 65 93 96 97 73 19 18 27 37 66 51 48 80 76 74 72 57 53 47 95 99 97 93 93 94 99 100 100 98 96 89 87 89 96 71 86 98 92 90 93 92 90 100 94 88
30 4 15 98 98 99 90 91 70 83 92 95 71 60 88 91 93 95 76 56 43 100 97 97 99 94 87 93 98 90 95 98 96 82 92 80 87 87 90 78 74 93 92 78 96 100 78
90 48 16 91 89 98 98 89 99 100 100 100 96 85 100 100 99 98 71 73 89 99 93 91 95 79 88 77 93 98 84 98 96 97 97 86 94 90 69 63 75 83 98 100 100 96 94
88 85 69 34 94 97 97 83 100 100 100 100 100 100 100 100 100 98 75 91 100 98 86 98 91 90 90 98 99 98 98 95 94 99 92 94 88 82 96 79 71 99 99 100 100 99 79
88 92 84 59 99 89 98 83 88 100 98 100 100 100 100 100 99 99 79 97 98 85 83 96 96 97 98 98 96 97 98 98 84 83 95 96 83 60 88 92 98 98 100 100 96 92 60
87 93 93 92 99 90 98 91 86 99 99 100 99 100 100 100 99 99 97 100 96 98 96 96 97 98 96 96 97 95 93 89 87 88 98 83 96 92 94 69 99 99 99 89 73 41 51
95 96 94 99 97 98 98 95 83 95 99 100 89 100 99 99 99 99 99 98 99 98 97 97 97 97 96 93 93 95 91 73 78 89 90 88 98 75 99 86 100 99 94 100 77 59 65
96 95 98 97 94 98 98 92 92 95 99 99 98 100 98 99 99 98 98 100 99 98 97 98 96 98 88 94 72 93 90 69 80 74 98 96 97 99 100 94 93 99 100 98 68 48 60
93 92 98 100 90 98 98 99 99 99 99 99 99 100 98 100 98 98 98 98 98 98 97 98 98 99 99 85 89 84 86 82 81 91 91 92 98 99 100 96 91 85 99 75 54 54 51
94 96 97 99 93 97 99 99 98 97 97 97 100 100 99 99 98 95 99 99 98 98 98 98 96 88 74 66 95 85 87 79 80 83 72 91 98 99 100 98 99 99 89 71 69 65 50
93 96 97 100 96 98 98 85 99 98 88 96 100 99 99 99 98 100 100 98 98 98 98 98 95 84 79 66 78 96 82 89 73 66 65 99 91 97 99 78 97 98 81 71 71 70 57
78 98 90 96 94 97 98 74 98 99 90 97 99 98 98 98 98 98 98 98 98 98 100 100 98 83 78 72 80 77 85 90 86 68 75 99 99 99 96 70 62 60 71 78 79 70 60
61 92 97 98 95 96 100 98 95 99 97 97 99 99 99 98 92 99 100 97 98 98 100 94 77 85 70 72 77 74 86 96 85 76 78 87 96 79 66 71 68 72 69 63 62 70 61
69 90 96 95 94 96 99 100 97 99 97 95 99 99 99 98 94 93 98 98 97 99 97 96 82 84 98 73 96 91 82 88 97 79 83 99 90 75 62 61 57 63 62 62 64 60 67
38 77 96 98 74 92 100 99 98 99 99 94 100 100 100 98 98 73 88 96 98 99 99 100 92 96 98 99 97 83 100 92 86 98 83 74 74 87 66 63 70 52 48 47 56 52 57
62 83 95 99 79 91 100 99 98 100 99 92 100 100 99 98 98 78 93 97 99 99 99 99 92 87 95 93 99 97 94 87 95 90 98 80 91 86 70 68 60 52 52 51 51 48 55
76 88 79 78 64 79 99 98 98 97 100 95 100 100 99 98 98 72 81 97 98 99 99 98 100 96 99 99 99 91 98 98 99 92 96 100 95 95 95 70 68 50 42 42 49 54 53
33 81 76 88 34 88 99 100 100 95 100 97 100 100 99 98 98 76 92 96 98 99 99 99 99 100 100 100 99 91 95 95 97 98 98 100 100 95 95 94 67 62 57 42 48 49 39
28 56 91 71 41 90 98 99 98 96 93 96 99 100 99 98 98 63 65 95 94 99 99 99 100 99 99 100 93 98 95 93 95 97 96 97 97 100 99 96 89 58 60 46 48 42 36
17 49 91 88 32 90 99 98 98 89 81 100 97 97 99 99 98 55 62 83 82 99 99 99 99 99 99 94 100 87 87 87 80 98 95 91 80 79 77 68 59 61 51 51 46 43 45

GFSGBSN_700_rhum_021.txt.gz
RH
42 35 18 12 10 12 20 27 28 21 23 24 26 35 33 21 28 38 41 61 64 59 57 60 61 58 51 48 41 47 43 41 38 36 39 68 86 75 64 72 75 71 72 76 58 54 58
72 59 41 22 14 10 12 17 28 25 22 24 24 34 39 27 22 31 35 64 56 54 56 60 62 59 54 45 46 47 42 38 35 36 40 53 78 78 83 80 93 88 85 85 83 70 71
99 94 76 46 28 15 11 13 20 28 21 25 27 27 41 39 23 24 31 56 67 59 62 65 66 69 61 52 55 52 51 44 41 47 50 74 89 96 98 85 88 90 91 89 79 84 78
20 38 99 89 59 38 16 12 15 23 25 23 29 29 36 46 34 22 24 49 69 73 64 69 69 68 53 58 58 50 50 45 45 41 55 65 97 93 95 92 81 84 83 84 86 80 77
4 13 57 85 99 78 49 16 13 18 24 21 28 34 32 48 47 29 21 42 70 74 70 54 61 71 56 52 52 54 52 51 40 40 39 40 56 64 77 92 85 86 96 92 81 78 80
2 2 11 86 88 100 90 52 14 14 22 22 26 32 36 46 55 44 26 25 57 84 73 67 65 59 66 64 60 49 54 50 45 47 52 52 54 54 74 96 96 88 84 78 80 56 78
2 2 2 6 83 98 91 89 38 14 16 21 23 32 38 41 61 57 37 25 31 52 70 76 80 55 74 84 77 62 60 53 56 68 76 52 58 82 60 63 75 74 90 95 82 83 82
2 2 2 3 11 70 88 99 87 19 16 30 54 32 42 45 62 63 53 33 28 57 78 72 54 55 84 98 97 87 77 68 60 72 63 85 77 53 45 57 82 83 80 67 78 80 93
2 2 2 4 3 59 98 98 98 75 46 72 85 86 44 53 60 67 66 53 46 40 96 83 34 47 61 100 100 98 96 86 75 69 71 56 75 47 59 63 80 78 85 65 77 65 85
2 3 19 46 6 22 98 93 98 90 76 98 100 100 82 53 69 78 72 71 60 62 97 97 78 70 71 100 100 99 99 98 98 92 84 87 71 70 73 83 88 96 63 81 83 99 96
10 52 72 83 80 28 82 71 99 96 90 100 100 100 100 79 98 88 89 88 61 55 96 84 90 74 68 84 93 87 100 99 98 97 97 82 92 62 77 62 82 73 81 87 95 96 100
61 77 66 85 94 81 55 95 98 97 94 93 96 99 100 96 100 100 96 80 64 95 94 91 86 74 74 71 95 100 99 99 98 98 98 90 86 91 81 67 80 59 85 79 87 100 97
84 85 83 83 94 88 43 87 94 98 96 95 99 99 98 99 100 100 98 89 80 98 66 93 90 87 90 96 95 99 98 98 98 98 98 97 86 95 82 86 90 86 92 88 92 96 89
88 88 88 90 92 86 85 44 94 98 98 98 86 94 87 100 100 97 99 97 98 66 65 79 90 96 99 97 97 96 97 98 99 98 95 94 91 76 80 70 72 82 82 80 90 78 68
90 90 90 95 97 95 98 80 31 98 90 94 98 89 86 99 99 100 99 97 68 62 67 83 87 97 100 99 97 93 93 95 76 80 96 89 84 67 85 62 74 86 100 44 97 78 82
81 92 90 94 96 86 97 95 87 86 89 95 98 91 79 98 97 99 98 96 87 86 80 94 96 96 96 89 94 97 92 72 78 74 70 74 95 70 83 98 99 91 91 92 99 98 98
34 82 95 96 97 97 96 98 81 97 98 90 99 96 80 99 100 99 99 95 97 94 94 97 95 98 97 96 80 84 78 60 60 61 85 91 96 86 97 98 92 97 98 90 90 92 85
24 39 92 95 97 98 96 99 98 96 98 99 98 100 92 100 99 98 98 98 98 88 98 97 97 98 97 97 92 82 71 63 71 98 97 87 98 98 90 99 90 69 71 96 89 92 64
31 40 80 96 97 97 94 97 98 87 99 98 98 87 93 86 99 98 98 99 93 96 98 98 98 92 91 99 97 81 74 69 86 95 93 92 98 95 98 100 100 80 97 99 97 99 61
25 19 73 96 98 98 96 99 97 91 99 98 91 99 98 99 98 95 99 94 99 98 98 98 99 98 95 95 83 79 82 94 94 92 91 96 98 93 97 98 97 99 77 98 99 85 57
36 18 57 94 96 95 92 99 85 98 96 98 82 92 98 98 91 94 98 99 94 98 99 99 100 98 80 92 82 83 82 82 97 95 96 96 98 99 99 100 100 98 86 96 100 71 54
43 13 54 88 97 95 94 98 96 99 98 92 86 98 94 83 93 98 99 98 96 98 99 98 96 92 73 73 74 73 79 80 94 93 94 96 97 100 100 91 95 73 81 82 93 67 60
45 10 55 74 96 96 96 96 98 93 98 99 88 84 100 86 96 99 92 78 92 98 90 99 79 91 76 67 81 84 96 77 83 99 91 86 100 99 83 99 100 97 72 70 70 57 61
44 11 24 32 86 99 94 98 99 98 98 99 92 95 96 98 100 99 98 93 86 96 98 100 89 88 82 88 81 98 97 93 92 97 100 82 84 99 70 65 70 54 52 55 59 58 59
55 14 48 78 70 77 87 98 98 98 98 99 93 88 99 92 99 99 98 93 98 98 99 100 99 89 99 97 100 100 99 100 100 98 89 90 78 88 81 73 63 56 58 53 58 53 61
63 17 42 69 68 83 64 94 95 98 98 99 95 100 100 98 98 99 98 89 89 98 98 99 99 100 99 100 98 98 88 85 99 93 93 95 91 92 84 80 70 49 56 43 52 55 55
63 33 21 58 52 38 67 98 98 96 99 99 98 96 100 98 99 99 97 95 97 98 98 98 99 100 99 98 96 98 91 99 93 97 99 100 98 98 88 88 64 56 59 49 52 51 41
68 58 21 31 38 22 54 85 92 80 98 99 99 100 100 98 98 100 93 84 93 98 98 99 99 99 100 99 99 96 99 92 93 86 88 98 94 99 98 89 84 54 56 56 48 39 41
78 22 14 30 34 29 59 97 98 96 98 100 90 100 100 100 99 99 96 70 93 97 99 99 99 98 99 99 94 88 98 98 92 99 93 95 82 83 75 65 61 62 53 52 48 47 46

GFSGBSN_700_rhum_024.txt.gz
RH
50 90 89 87 63 36 16 11 12 20 29 28 24 24 25 39 31 24 32 38 39 57 56 53 58 64 62 54 50 48 42 42 46 51 47 50 65 60 64 58 48 62 48 43 40 44 58
2 77 87 98 94 72 44 18 12 12 20 30 25 25 26 30 40 28 25 32 34 57 51 50 53 58 58 52 55 53 45 42 42 43 43 42 36 68 73 68 64 62 78 63 56 51 53
2 2 7 44 99 100 89 50 21 13 14 23 30 24 29 28 38 38 26 26 32 52 64 58 58 54 43 63 60 57 52 47 46 44 42 39 44 79 90 77 74 76 74 79 67 66 79
2 2 2 3 21 92 100 94 62 22 13 16 27 25 28 32 36 45 35 24 26 40 55 66 63 54 42 55 60 56 56 52 51 51 52 61 59 58 76 94 87 82 81 81 75 78 77
2 2 2 2 2 18 81 96 94 70 23 14 22 27 27 34 36 48 46 31 23 31 48 57 55 43 30 43 55 55 52 51 51 51 60 86 93 89 92 99 96 94 94 84 76 60 79
3 2 3 2 2 2 26 89 98 97 79 23 58 32 29 36 42 49 54 43 29 24 50 56 48 43 42 47 66 61 50 52 55 57 48 46 79 98 86 96 96 87 85 80 77 70 71
3 3 3 3 2 2 2 32 82 97 99 86 64 90 95 61 47 51 60 56 40 35 32 36 58 45 44 38 49 77 62 51 61 65 56 55 66 58 40 42 64 82 92 90 85 81 83
5 4 4 3 2 2 2 3 60 98 92 96 72 70 99 100 67 56 60 62 51 38 36 38 43 41 51 64 58 76 88 71 60 58 59 79 88 59 43 43 60 77 84 86 74 78 97
5 4 3 3 4 4 9 2 8 77 94 99 86 77 94 98 96 64 66 71 59 50 54 52 47 42 40 70 100 87 90 92 93 70 73 75 66 54 53 51 63 67 80 95 97 61 61
4 3 6 45 58 59 75 13 10 56 99 99 91 83 80 100 97 79 72 76 69 66 64 58 46 58 64 69 96 89 100 100 99 92 77 100 74 71 59 68 63 62 52 77 90 99 95
16 21 12 69 86 83 86 83 8 98 98 98 95 89 99 98 98 88 83 82 82 72 82 61 71 65 63 70 69 75 94 99 98 93 96 87 74 73 73 64 75 81 78 82 88 88 95
92 50 72 78 88 86 86 91 76 54 98 98 98 96 98 85 95 99 99 100 87 81 93 66 66 65 68 67 80 94 98 100 98 98 99 97 96 90 81 68 68 86 92 88 82 93 94
59 72 82 90 91 91 83 86 83 65 96 94 98 99 76 98 87 98 99 97 90 84 63 82 68 72 76 77 81 96 98 99 98 99 98 98 97 93 85 94 86 90 97 88 100 97 80
60 51 78 92 96 92 93 89 97 64 87 81 98 99 86 91 91 99 95 97 90 66 67 73 69 74 80 84 83 96 98 97 91 98 98 97 96 94 86 80 83 85 91 84 91 97 62
66 54 63 75 96 95 95 84 96 81 67 92 92 98 99 98 98 95 97 97 76 71 64 63 87 97 100 87 99 99 98 94 94 85 99 95 95 82 81 72 80 90 98 55 83 64 90
64 68 91 65 92 94 98 94 92 76 88 97 97 98 98 88 98 99 99 97 88 82 72 74 90 94 92 88 99 100 97 61 80 68 76 94 90 64 74 86 91 95 82 98 96 98 82
60 66 65 56 74 96 98 98 97 98 34 98 98 98 91 98 99 100 97 97 100 94 89 94 94 95 94 99 97 83 73 64 60 62 79 84 93 83 85 84 73 99 98 97 82 66 95
60 46 44 49 63 95 97 98 96 98 78 98 98 98 97 98 99 98 98 98 96 95 97 99 97 93 98 100 98 88 76 69 76 88 77 81 97 94 77 78 94 98 98 97 86 71 92
74 54 37 42 62 95 97 97 96 98 92 98 98 98 98 99 98 97 95 99 100 99 99 98 97 94 95 98 97 86 69 72 80 80 84 94 97 96 84 98 98 97 98 97 83 63 71
79 56 47 34 64 93 96 98 97 100 96 98 99 98 99 99 99 99 98 100 98 95 98 98 98 98 100 100 97 83 78 86 81 92 98 98 98 88 94 99 98 99 98 92 95 96 80
82 61 24 34 64 94 97 90 96 98 96 98 98 95 90 98 98 90 85 94 90 98 98 98 98 100 98 100 79 90 77 82 95 95 96 98 97 98 97 97 99 100 60 74 86 98 96
82 70 27 23 60 76 96 95 97 95 81 98 99 93 94 95 100 97 97 98 91 98 99 98 98 99 98 96 75 88 80 90 94 95 100 98 95 97 94 99 99 100 99 99 94 99 96
83 71 46 11 44 53 59 76 92 98 94 99 98 86 84 87 86 100 93 84 92 100 100 97 100 98 95 53 72 79 96 100 94 89 96 98 98 98 99 100 99 99 99 98 99 99 98
79 78 60 11 19 39 47 90 98 93 98 97 98 89 92 99 91 91 92 98 99 94 97 98 99 100 51 70 79 81 95 98 100 98 99 94 99 99 98 96 79 67 80 80 78 79 77
82 82 53 12 29 31 47 70 93 98 95 98 99 87 82 81 88 96 98 99 96 93 96 98 95 85 98 89 92 94 88 100 89 91 98 99 95 89 96 89 67 54 54 60 66 59 61
83 85 65 27 22 48 48 84 95 98 95 98 98 94 73 92 98 91 95 99 99 91 97 98 100 83 92 100 98 97 93 94 99 98 98 99 99 98 94 90 74 56 58 49 57 58 52
80 83 67 23 13 34 41 59 95 98 98 97 98 91 98 96 100 95 98 99 93 93 98 98 100 100 99 98 99 99 93 90 93 100 94 98 99 93 90 95 62 57 60 53 57 54 47
74 80 72 16 15 21 29 39 96 98 95 97 98 92 90 98 97 99 97 97 93 93 98 98 99 100 100 99 99 96 99 91 95 99 95 92 94 96 95 90 77 60 54 55 47 42 45
70 80 69 18 14 20 21 48 96 99 97 98 97 80 93 97 98 100 98 97 100 94 98 98 99 99 98 99 99 99 100 97 91 88 88 91 93 75 69 63 60 65 55 53 49 48 44

GFSGBSN_700_rhum_027.txt.gz
RH
2 2 2 24 94 97 95 87 57 24 13 11 23 33 26 25 26 38 29 30 40 42 49 64 60 59 58 58 52 53 52 48 44 43 47 59 57 61 59 60 56 53 44 54 52 45 45
2 2 2 2 80 65 100 99 92 64 31 13 12 26 32 26 28 34 38 27 32 39 47 59 54 50 48 52 54 51 49 50 49 47 45 42 41 56 75 72 68 58 55 52 58 51 47
2 2 2 2 2 3 46 99 100 99 85 33 14 15 30 28 30 31 42 35 27 34 41 61 64 54 42 62 50 52 52 52 49 47 45 43 44 46 65 71 83 73 62 65 61 52 52
3 3 2 2 2 2 3 32 93 100 99 83 32 15 21 31 29 34 40 43 31 30 39 55 65 60 55 51 44 49 60 59 56 54 51 48 49 58 80 93 93 81 80 66 47 59 61
2 3 3 3 2 2 2 2 42 97 100 99 84 68 72 72 29 39 42 48 39 29 31 49 56 44 38 37 39 43 56 63 59 56 55 76 85 99 98 99 98 98 92 81 79 59 66
2 3 3 3 3 3 3 2 2 23 96 100 99 84 65 88 54 43 47 50 48 36 30 40 42 46 37 40 49 60 52 54 60 58 58 70 100 99 98 98 96 96 99 91 79 73 74
3 3 3 3 4 4 4 3 3 3 54 100 99 92 82 90 94 62 54 48 48 43 40 33 45 43 46 40 48 55 49 57 56 59 58 57 78 94 92 99 94 94 95 97 95 91 71
4 4 5 4 3 3 4 4 3 3 8 81 100 99 91 86 99 98 77 60 56 57 49 42 35 35 35 41 42 47 46 65 63 58 63 75 63 53 49 55 68 75 81 85 92 89 81
7 11 28 18 11 12 49 70 22 9 5 27 86 98 98 86 98 99 94 77 74 69 62 52 51 49 52 63 67 47 59 79 87 86 71 65 68 52 58 54 72 69 72 98 92 70 60
10 34 38 37 92 83 76 89 86 96 61 5 62 98 98 97 97 98 98 91 82 73 74 61 56 61 51 59 62 60 62 85 96 96 93 97 78 66 64 76 71 81 66 67 71 90 95
57 77 63 56 76 83 84 90 91 92 98 37 86 98 98 99 98 95 73 99 84 79 85 64 66 61 66 73 70 75 79 100 100 99 99 90 79 68 70 60 67 98 84 88 93 85 87
69 77 69 58 74 89 94 94 84 78 92 60 97 97 98 98 99 96 98 96 87 91 93 72 74 71 70 71 84 75 86 100 99 100 97 92 94 90 82 73 78 96 95 97 98 97 97
60 70 69 68 52 81 96 96 88 76 68 62 99 89 98 96 80 100 99 91 97 94 68 76 62 57 60 72 75 91 95 100 99 100 97 99 99 99 88 88 95 98 98 97 97 97 83
78 78 66 65 68 59 90 94 98 78 93 56 95 98 98 97 98 97 99 95 94 71 65 64 67 72 71 82 80 96 100 98 98 100 99 98 98 88 95 89 82 85 89 95 90 92 83
80 82 79 72 68 60 88 96 100 93 94 78 84 97 98 97 92 99 95 100 73 67 63 56 68 96 99 100 100 100 97 90 93 80 99 97 95 76 71 80 96 97 97 73 95 79 92
79 80 79 58 51 54 91 96 97 96 90 72 67 39 97 98 98 97 99 92 76 70 68 65 70 87 98 99 99 100 98 64 64 64 88 99 98 77 72 98 98 97 90 96 98 96 91
79 81 77 62 41 47 86 94 97 97 98 75 91 93 89 98 99 98 99 98 86 82 81 79 82 94 96 97 93 97 78 60 58 55 78 100 100 92 90 94 70 100 99 95 94 79 90
83 82 75 70 30 41 59 93 96 97 97 80 92 99 98 99 98 98 99 84 79 87 94 91 93 97 98 94 98 97 89 69 64 70 66 73 100 99 87 72 71 66 67 94 86 85 82
78 86 81 74 26 39 71 91 96 96 98 99 92 97 99 98 98 100 96 96 96 94 94 94 94 97 97 98 98 88 88 71 75 73 79 82 97 96 94 93 98 97 95 97 91 83 80
92 85 83 76 19 39 71 86 85 97 96 92 96 98 98 98 99 92 97 99 97 85 94 97 97 99 100 97 87 86 94 91 87 81 88 96 98 94 91 92 98 98 99 99 97 98 83
94 78 91 84 23 32 59 60 79 97 85 82 98 98 85 97 98 94 96 94 87 97 98 98 94 94 97 99 98 99 81 86 94 99 97 98 97 97 92 90 98 97 98 99 100 98 95
94 65 94 74 90 21 50 50 72 99 100 98 99 99 98 90 85 100 96 98 95 92 100 97 94 97 96 98 95 88 70 79 81 89 99 98 98 98 94 94 100 99 100 100 88 83 82
90 84 93 76 74 13 40 39 64 98 91 99 98 100 97 82 97 100 92 96 86 98 94 94 97 100 100 98 98 84 89 91 99 99 98 99 98 98 93 99 98 98 89 94 96 89 96
89 88 94 88 34 14 20 30 83 98 99 99 93 98 98 97 100 97 97 92 96 96 93 100 97 100 98 92 95 78 79 83 90 99 98 99 99 98 98 100 98 94 100 99 98 97 95
90 87 91 92 45 14 15 29 87 100 100 94 99 93 100 97 92 99 95 98 99 99 97 97 94 93 99 99 83 88 97 94 82 98 99 92 99 98 99 100 75 71 82 94 98 99 100
90 84 90 88 44 11 18 46 81 95 94 83 86 97 99 99 98 97 98 100 98 99 98 97 98 100 97 98 98 100 98 96 97 99 96 96 100 99 90 100 80 71 62 69 89 78 86
86 84 78 85 57 10 17 52 84 95 97 92 98 98 99 95 90 98 93 88 97 98 97 97 98 100 99 98 100 99 97 95 97 96 99 93 100 98 89 86 68 65 62 60 58 59 58
78 87 67 62 62 11 15 42 86 95 97 82 84 97 98 95 94 97 96 95 98 96 97 95 98 100 99 100 99 99 99 96 94 97 97 84 85 95 98 93 72 64 59 52 47 47 44
75 85 56 55 72 11 14 31 85 98 100 95 96 98 95 99 99 93 100 96 97 98 99 96 98 100 99 90 96 97 100 87 85 90 88 90 88 82 77 68 61 69 59 54 50 48 36

GFSGBSN_700_rhum_030.txt.gz
RH
2 2 2 2 2 2 3 94 72 99 94 93 41 72 80 32 33 29 30 36 30 30 43 50 56 64 60 58 56 59 59 54 47 51 76 92 85 79 78 64 58 65 52 50 51 50 43
1 2 2 2 3 2 2 43 56 99 100 99 93 74 84 73 35 30 31 38 36 29 32 42 57 57 52 53 57 56 56 55 55 52 63 89 69 79 78 68 66 65 57 50 50 50 46
1 1 2 2 2 3 3 2 3 75 92 100 100 98 82 92 44 34 33 35 41 34 31 39 50 62 55 64 49 48 51 51 54 53 55 64 90 62 55 51 68 63 62 57 48 40 40
1 1 1 1 1 2 2 3 3 9 40 85 99 99 96 84 85 39 34 40 41 40 32 36 44 50 64 66 56 50 54 56 59 57 53 54 58 67 77 71 81 94 90 63 49 47 47
2 2 2 2 2 2 2 2 3 3 3 16 89 99 99 91 89 87 46 47 45 45 36 35 41 35 37 42 51 47 44 53 62 62 59 57 54 56 64 87 97 93 100 96 89 75 68
3 3 3 4 3 3 3 3 3 3 3 3 42 96 100 97 88 93 94 60 55 48 43 36 33 34 41 46 40 40 46 50 59 63 61 60 65 90 100 95 96 93 90 94 98 88 74
4 5 6 8 5 4 4 3 4 6 4 3 7 48 99 99 97 92 98 79 69 59 49 42 42 45 50 49 50 46 54 60 58 59 59 63 75 96 74 80 87 94 97 100 99 92 88
5 7 34 88 95 29 26 30 42 61 67 9 3 10 92 100 98 99 97 90 66 62 56 50 45 40 36 35 43 45 47 50 51 54 61 71 65 60 66 93 97 100 100 100 89 64 64
4 6 41 64 94 80 61 88 90 94 89 92 27 7 81 98 98 99 86 99 67 86 78 60 54 45 42 45 52 58 62 63 66 72 66 64 61 65 63 60 68 70 68 63 56 47 49
6 13 66 74 62 61 48 84 93 92 91 86 94 16 86 98 99 98 97 93 98 100 73 60 50 53 48 58 76 60 70 78 84 80 89 91 86 84 78 79 68 71 66 63 67 83 98
9 37 82 78 76 56 69 75 89 92 94 89 89 47 58 99 98 98 90 96 100 100 97 60 69 68 74 69 70 69 73 93 98 96 90 79 84 77 88 81 78 90 80 82 90 87 94
25 71 75 84 77 72 68 80 89 93 89 65 71 78 58 98 97 98 95 100 96 85 97 74 82 87 96 97 82 79 77 95 100 99 98 94 94 98 95 91 86 92 98 96 95 98 96
48 79 70 84 82 78 82 59 87 96 96 77 70 75 52 98 98 98 96 98 93 97 67 78 87 81 99 99 100 100 94 99 93 99 99 100 95 98 97 98 97 98 98 97 98 97 86
66 78 73 83 87 80 66 66 96 96 92 90 78 50 90 75 98 98 99 98 89 72 69 77 68 78 93 85 95 98 96 99 98 99 99 95 87 78 75 71 80 87 91 95 92 86 84
60 81 80 81 86 79 45 52 94 97 97 98 88 72 94 93 98 98 99 100 69 61 60 59 73 70 83 91 95 100 99 100 98 95 99 95 95 90 80 74 89 99 99 72 97 97 97
87 80 86 83 87 73 36 57 74 95 98 99 97 96 86 97 98 98 99 84 73 68 68 67 53 67 94 99 93 100 99 70 71 66 92 99 95 83 81 82 98 98 97 98 98 96 93
37 83 88 85 84 65 30 44 58 87 97 94 77 92 95 97 98 98 98 89 83 68 70 66 64 73 83 93 98 100 83 65 58 56 81 100 99 94 94 90 76 99 100 97 96 97 92
54 88 91 90 84 76 30 39 52 88 96 99 98 90 94 97 97 98 100 99 80 81 79 76 80 79 83 90 100 100 92 77 66 69 70 73 99 97 87 71 77 91 78 94 89 88 85
79 91 93 89 83 80 29 40 44 91 97 98 96 87 79 95 98 98 95 91 86 88 87 84 92 86 86 96 99 93 92 78 88 77 74 79 98 98 85 90 100 97 92 96 94 81 86
92 89 90 96 84 83 24 36 39 73 98 100 68 92 97 98 98 85 96 94 94 91 90 91 94 97 97 99 98 95 92 90 95 84 92 95 98 88 88 74 98 97 93 95 98 97 87
95 91 87 95 91 84 19 31 37 85 99 98 84 93 90 93 97 98 92 82 94 93 84 90 98 95 96 99 94 97 81 97 100 99 99 99 97 93 87 94 98 98 98 97 97 85 98
90 92 92 95 87 48 15 27 34 97 83 92 86 97 100 97 94 98 91 85 96 97 94 95 92 95 98 99 99 92 96 82 78 96 99 100 98 98 95 96 98 98 99 98 97 98 97
93 94 93 92 86 32 16 27 50 97 99 99 84 98 97 97 100 97 90 85 87 95 94 90 94 97 98 97 96 92 98 93 98 98 100 99 98 98 90 96 99 99 99 99 100 100 96
89 95 94 92 84 35 14 19 44 97 100 97 96 98 98 98 95 92 83 94 91 88 96 95 97 100 99 98 99 99 91 90 80 77 97 99 99 98 95 98 98 97 98 99 99 90 89
81 84 94 89 84 47 12 19 83 96 98 98 91 98 97 98 98 98 92 96 100 98 100 98 97 98 99 99 98 87 78 73 69 77 86 92 100 98 99 99 90 80 74 97 100 94 84
89 76 85 82 77 52 11 26 82 95 92 100 100 96 98 99 90 97 93 94 96 99 96 98 98 98 99 97 98 99 92 93 91 96 97 98 100 99 98 98 97 79 71 75 74 80 81
90 68 75 78 48 57 10 30 76 93 95 100 100 99 97 100 98 96 89 94 100 99 100 98 98 97 99 98 97 99 87 85 98 92 93 98 99 99 100 93 74 72 70 65 58 64 62
78 55 74 71 53 53 10 27 79 96 99 100 99 100 100 95 93 85 96 98 98 98 98 97 98 98 99 97 97 90 84 88 96 90 90 92 92 84 92 97 76 72 64 54 54 52 48
75 61 78 63 68 42 10 22 71 100 100 82 92 87 82 97 95 99 96 82 100 98 98 98 98 98 99 100 92 99 93 98 90 84 79 86 83 87 85 74 68 69 60 55 51 40 45

GFSGBSN_700_rhum_033.txt.gz
RH
1 1 1 1 1 2 2 2 2 4 45 72 100 98 91 72 82 52 38 30 36 35 37 48 49 48 57 61 58 60 58 52 50 67 81 86 87 78 62 54 50 53 45 45 42 39 37
2 1 1 1 1 1 1 2 2 3 23 75 100 100 99 94 77 86 48 35 35 40 34 39 46 44 54 58 60 62 62 59 61 57 55 84 88 94 85 61 65 64 51 44 44 40 42
2 2 1 1 1 1 1 1 2 2 3 3 63 95 100 100 91 86 78 40 36 41 38 35 41 40 53 60 55 56 56 54 56 58 57 60 79 82 72 64 73 72 66 58 44 40 45
2 2 2 2 2 2 2 2 2 2 3 3 3 49 100 100 99 87 87 63 45 44 42 37 39 36 44 62 61 59 55 54 56 58 59 60 73 94 93 73 70 77 86 64 50 43 39
3 2 2 3 4 4 4 3 3 2 3 4 3 7 69 99 100 97 97 85 66 52 46 42 40 34 37 36 52 62 61 53 57 64 65 63 61 64 65 64 67 77 84 86 67 67 66
3 2 3 5 12 18 13 9 5 4 23 11 4 3 5 54 99 100 98 94 94 74 51 45 41 39 41 40 38 46 47 46 50 63 67 67 70 67 78 60 73 65 83 83 83 78 72
3 3 4 7 16 58 54 45 28 22 48 90 48 9 4 9 96 99 99 99 99 82 53 43 44 48 37 39 39 45 43 50 56 66 71 73 70 63 52 62 72 78 87 91 87 96 74
3 3 4 7 18 45 66 63 57 55 93 95 94 93 12 8 58 98 99 99 85 81 59 57 48 43 44 44 47 52 49 56 56 56 68 72 62 55 64 66 77 98 96 96 97 77 69
3 4 5 24 38 93 76 63 64 64 94 90 97 91 87 15 86 98 98 99 91 84 80 67 56 48 45 46 46 44 52 54 60 60 54 55 57 62 64 69 72 76 88 88 77 61 52
4 6 8 48 66 72 68 64 68 84 87 81 80 86 84 39 50 91 98 99 96 99 83 66 52 50 52 48 47 48 55 69 78 70 68 74 65 72 78 85 78 77 71 70 70 84 97
5 8 32 88 80 67 70 68 70 81 91 92 87 56 71 66 79 98 98 99 99 97 84 58 65 72 58 61 60 54 63 85 87 76 72 66 78 83 88 79 88 95 90 84 85 92 98
6 10 61 84 76 70 72 67 55 64 95 95 88 59 55 63 88 93 99 98 98 95 94 76 78 92 87 98 98 80 79 91 96 100 100 92 96 96 85 84 93 92 98 97 92 96 96
6 14 86 74 75 75 73 56 51 82 96 98 88 74 56 56 79 98 98 98 97 86 65 79 93 100 100 99 99 100 99 100 92 99 99 99 92 94 98 97 94 99 98 96 96 97 83
7 44 63 77 79 72 69 43 40 71 93 97 97 87 67 62 60 98 98 98 91 72 63 77 85 100 98 99 100 99 98 99 99 99 96 91 85 76 97 84 98 96 96 85 92 82 70
7 12 78 81 81 76 67 35 43 74 91 98 93 90 78 55 68 97 98 97 67 58 52 59 100 99 99 100 96 99 99 97 98 98 98 96 97 88 76 86 88 99 99 92 97 92 97
10 24 82 83 86 74 72 36 38 78 95 97 88 84 99 37 95 97 99 95 72 60 50 64 75 85 92 84 84 100 93 75 78 78 94 99 94 78 71 81 81 99 98 97 98 96 86
13 80 90 85 82 79 83 39 38 94 96 97 93 81 96 58 95 97 97 95 70 65 66 66 61 66 77 81 94 95 84 72 66 58 86 100 98 88 82 67 51 89 100 98 92 89 81
63 100 87 84 87 84 82 28 38 63 95 98 96 98 99 89 84 97 97 93 70 65 69 67 63 72 80 87 100 98 93 80 72 67 70 71 99 94 74 61 75 78 75 91 97 82 96
71 99 86 85 90 92 90 27 37 44 95 99 94 98 97 97 98 97 97 89 75 63 69 70 74 82 83 93 97 98 95 87 86 80 74 75 97 96 76 74 76 98 80 97 97 98 95
70 89 89 87 93 88 56 22 29 50 97 85 92 98 94 94 93 95 93 88 81 86 78 78 81 93 94 100 99 98 96 90 89 87 90 91 97 90 83 63 80 98 95 96 98 97 86
69 91 85 84 91 88 25 18 29 94 88 80 97 90 91 91 98 92 88 86 89 79 81 80 82 83 91 99 99 100 99 91 95 100 96 98 97 90 83 85 94 98 98 99 97 87 98
86 78 86 82 88 87 22 16 30 96 96 98 100 98 79 92 93 98 92 84 72 78 75 76 77 87 98 100 100 88 90 91 83 93 99 99 97 99 91 86 97 98 97 99 98 97 98
91 76 72 84 76 84 23 19 61 98 97 100 93 96 96 94 97 98 84 80 79 89 88 87 87 96 98 96 97 84 94 97 100 96 92 99 99 99 94 88 91 98 99 100 100 99 90
52 94 73 83 73 61 18 20 62 97 100 98 92 98 99 98 97 90 84 84 82 96 97 94 93 98 94 100 95 91 95 84 96 95 100 99 99 99 97 96 98 97 99 100 100 98 93
19 90 58 82 64 42 10 16 86 90 80 89 97 98 99 97 97 99 95 98 95 94 99 97 98 97 100 100 95 95 99 88 71 70 81 83 95 98 99 99 80 85 98 98 100 100 94
11 44 54 82 76 28 9 26 82 79 87 96 91 98 98 98 92 98 88 95 96 100 99 98 98 98 98 98 97 94 82 86 92 91 99 97 100 100 100 99 97 76 72 77 80 97 100
6 31 46 78 82 49 13 17 69 77 90 96 95 99 97 98 92 91 94 99 98 96 98 92 97 98 98 98 98 92 88 91 91 91 86 94 99 99 99 98 71 75 65 56 57 78 98
4 19 48 85 76 56 24 14 59 90 79 98 99 99 98 90 96 91 89 98 98 97 96 98 98 98 99 99 98 94 88 82 86 87 89 94 98 92 91 92 84 72 61 61 60 53 56
5 6 41 64 70 40 22 9 39 100 96 89 94 99 98 93 88 87 78 76 88 88 99 98 97 98 98 98 86 87 92 84 86 87 87 87 85 90 89 71 69 70 64 58 52 49 56

GFSGBSN_700_rhum_039.txt.gz
RH
6 6 6 5 5 4 4 3 3 2 2 1 1 1 2 14 55 99 87 100 98 58 37 35 41 62 74 72 77 59 56 70 76 84 95 93 82 97 94 85 81 89 64 74 80 87 60
7 8 7 7 6 5 4 3 3 3 2 2 1 1 2 3 13 80 100 92 100 97 47 38 41 67 75 74 64 63 58 64 77 82 93 96 96 100 98 94 83 90 88 83 87 48 47
8 9 8 8 7 6 5 4 4 3 5 3 2 2 2 2 4 36 100 98 99 95 68 40 40 60 69 78 62 65 63 61 59 68 86 100 99 99 94 92 99 73 58 67 64 38 62
10 11 11 10 8 6 4 8 18 17 47 45 8 5 3 4 3 11 91 99 99 99 89 50 44 49 58 56 58 62 66 66 64 65 68 77 86 94 97 99 94 67 85 78 62 64 72
12 13 13 12 10 6 4 6 27 76 73 73 54 25 28 32 5 4 27 96 99 98 98 76 49 44 58 45 58 63 62 66 67 69 72 75 95 99 98 99 88 83 68 62 57 70 76
13 15 15 13 9 5 6 16 87 92 78 66 66 65 85 90 74 17 12 36 98 99 100 96 53 50 46 46 49 71 68 64 65 66 70 92 98 100 98 98 69 59 61 62 58 60 73
14 16 16 12 7 5 53 99 85 90 65 80 80 77 93 94 95 95 29 68 98 98 99 88 42 44 43 42 48 63 78 73 71 76 90 75 96 76 79 80 74 65 71 62 58 65 71
16 17 15 9 6 19 92 97 94 81 87 89 74 82 84 84 78 95 83 84 98 98 98 86 50 49 41 42 54 54 67 71 90 98 100 88 77 82 84 85 85 86 79 70 66 66 68
17 17 12 7 8 57 94 96 92 88 94 88 54 87 81 75 72 76 86 95 98 98 98 94 66 52 55 50 63 54 56 80 95 100 100 99 87 68 86 91 84 87 80 71 69 70 68
18 17 9 10 19 92 96 95 94 86 95 81 74 96 94 95 68 64 70 74 96 98 98 96 79 59 53 62 66 67 71 77 98 93 100 95 86 72 66 70 86 80 74 76 76 79 63
19 14 8 28 92 96 95 96 93 82 83 54 68 95 97 98 99 80 70 86 95 98 96 92 84 88 62 55 82 72 83 81 100 92 93 92 69 95 94 87 87 83 95 89 87 84 86
18 9 27 98 96 89 91 95 85 80 77 47 62 86 98 85 84 86 68 57 90 97 97 100 97 76 68 94 76 79 88 78 95 99 100 94 97 83 95 93 96 97 96 95 96 98 90
14 7 39 98 96 87 88 87 74 73 46 31 60 64 71 92 82 70 91 96 97 97 98 99 99 93 89 100 100 87 98 97 89 100 100 99 99 95 74 94 97 98 94 74 86 90 65
13 6 45 96 93 86 82 80 72 59 25 34 84 89 78 93 74 67 97 97 96 96 100 100 100 98 100 99 100 100 99 97 100 98 96 96 88 97 90 98 95 100 97 68 61 37 35
10 7 38 98 88 79 83 70 66 26 35 68 95 84 93 75 65 90 98 98 97 93 97 100 98 99 99 100 99 100 99 100 100 100 97 93 94 83 100 97 97 99 98 76 85 71 66
9 6 45 89 84 83 73 71 28 31 55 97 80 90 93 68 82 96 96 98 98 96 74 98 98 96 98 100 100 97 98 99 99 100 99 96 94 86 100 99 98 99 88 92 96 82 59
8 5 44 81 84 83 53 25 28 47 99 98 92 97 93 68 87 97 95 98 89 88 83 97 98 96 97 99 100 99 97 89 99 97 98 97 95 96 95 82 88 93 100 97 81 80 62
9 3 26 70 77 58 25 22 45 96 99 90 80 96 91 84 90 97 93 97 97 95 80 98 99 91 92 97 100 97 90 94 80 69 100 100 99 96 82 80 79 83 94 96 96 63 78
9 3 12 31 47 33 17 22 63 83 93 82 96 88 90 99 87 96 98 97 96 85 83 92 84 94 89 97 96 98 97 86 76 72 98 98 97 88 81 82 82 90 86 86 96 98 96
9 3 4 15 32 20 11 20 75 72 77 97 96 98 90 93 96 98 97 98 86 84 78 67 70 78 94 99 94 99 98 82 84 82 96 99 100 90 65 64 74 90 91 97 98 98 82
9 4 2 8 18 12 15 45 68 84 93 92 81 91 79 81 62 81 96 88 86 89 76 75 79 87 95 97 98 90 97 93 89 91 88 97 96 94 94 91 88 89 96 93 99 98 98
10 4 2 4 15 9 22 62 53 78 94 91 100 98 93 64 63 96 83 84 96 77 78 74 83 73 73 94 99 100 100 97 91 93 92 86 98 100 97 72 94 98 97 99 99 98 98
12 5 3 2 9 9 18 47 66 67 90 70 74 78 95 80 95 94 84 100 99 88 78 76 80 79 76 78 88 89 92 93 98 99 86 100 98 100 97 67 86 96 98 97 98 100 100
12 6 3 2 3 9 16 45 60 70 77 86 92 76 88 96 95 97 100 99 95 90 91 82 77 80 84 81 88 82 80 93 97 86 95 95 100 99 96 78 89 85 88 84 88 100 99
13 6 4 2 2 4 14 41 55 63 77 86 98 100 98 100 100 96 96 97 84 82 84 86 85 84 90 89 86 96 92 93 80 84 97 100 100 97 93 87 75 76 85 82 76 98 100
13 7 4 2 2 2 7 31 54 63 70 80 99 100 96 100 83 95 92 79 93 99 82 89 79 93 92 98 99 98 84 74 91 99 98 100 99 99 93 96 72 66 74 71 67 85 96
13 8 4 3 2 2 3 16 47 59 68 81 94 89 95 99 99 97 97 95 94 82 81 85 89 92 95 99 98 96 85 84 90 96 98 100 100 98 98 98 87 71 75 73 68 73 77
15 8 5 3 3 2 2 4 33 58 70 88 100 99 100 98 100 96 98 97 90 97 91 93 89 90 100 99 99 87 83 82 82 86 94 88 95 98 99 98 92 74 72 79 75 66 74
14 8 5 3 5 5 2 2 13 40 65 79 100 97 100 96 100 99 100 95 100 100 98 100 91 98 96 100 99 98 99 98 84 76 84 94 87 98 98 94 87 82 73 71 55 67 58

GFSGBSN_700_rhum_042.txt.gz
RH
7 8 10 11 11 10 9 8 8 7 7 6 4 3 2 1 1 2 25 82 94 90 94 75 38 36 50 62 71 68 73 79 76 80 84 81 46 43 66 66 85 86 74 78 64 63 74
7 9 11 12 13 13 11 10 8 8 7 6 4 4 4 2 1 2 10 51 99 89 99 92 47 37 59 72 79 57 64 67 76 78 90 98 98 81 90 87 82 84 82 83 71 60 58
7 9 12 14 15 14 13 10 8 9 26 47 22 22 14 5 3 2 2 25 86 97 99 97 68 38 57 75 81 57 73 65 78 85 95 99 100 95 89 84 89 88 88 76 67 38 42
7 10 14 16 17 15 12 9 9 30 47 87 78 80 47 26 17 8 3 4 64 99 99 100 85 43 42 65 67 69 72 68 76 84 94 98 100 100 95 97 84 78 84 73 44 45 40
7 11 15 18 17 13 11 20 69 94 100 87 80 75 66 67 76 92 16 5 26 99 98 99 92 49 41 42 57 66 69 72 68 73 73 96 92 100 98 98 86 92 81 66 64 61 60
7 13 17 18 14 9 30 97 97 100 96 82 80 94 78 88 82 95 82 21 24 98 98 98 98 63 41 37 49 56 69 73 73 75 74 78 87 93 96 91 91 75 75 69 62 63 64
9 14 18 17 10 15 54 99 98 97 89 84 91 90 72 83 82 72 89 71 70 97 98 97 89 59 40 35 47 56 75 74 86 87 89 95 99 96 89 85 83 79 67 62 56 56 61
12 17 18 13 13 40 97 96 94 94 92 84 91 79 77 88 75 74 78 88 96 96 98 98 82 82 48 42 50 71 85 86 93 99 99 93 86 84 90 80 79 78 77 71 66 58 63
15 19 17 13 50 100 94 92 92 90 89 78 85 65 94 96 95 64 85 77 98 97 98 98 92 84 51 46 50 54 80 93 92 99 98 99 84 69 88 86 82 80 84 79 71 67 62
16 19 12 22 96 97 93 89 89 91 76 77 68 54 89 95 97 87 72 82 90 97 97 98 98 95 67 62 64 68 75 90 97 98 89 88 88 86 63 87 88 88 78 76 75 76 70
20 17 10 23 94 95 89 84 81 84 81 85 48 52 55 85 93 90 85 64 61 97 96 98 99 98 71 68 70 78 80 96 98 91 94 90 85 91 76 75 85 81 84 76 81 86 89
20 15 9 31 85 89 84 82 79 82 93 47 43 37 72 77 92 90 87 79 72 96 94 98 98 100 87 100 97 76 99 85 96 90 93 90 93 69 80 90 87 88 87 82 84 91 95
20 12 8 30 71 85 84 79 82 67 32 27 36 54 83 81 93 80 84 94 86 97 98 98 99 100 88 99 99 88 93 80 83 97 95 88 92 98 77 94 92 95 94 89 96 94 90
20 13 6 21 79 88 88 74 53 27 35 75 94 76 86 89 98 77 93 86 89 85 98 98 100 100 99 98 95 98 100 98 100 84 86 92 85 96 93 83 94 93 91 82 86 77 69
19 12 5 19 54 86 56 29 25 32 54 99 78 88 95 96 94 82 91 83 74 97 93 97 99 99 100 96 94 98 99 96 92 92 92 87 94 90 98 98 96 97 97 78 86 65 76
18 13 5 12 50 46 27 22 27 48 84 98 78 90 93 81 82 76 98 89 93 99 98 91 95 96 98 96 91 91 93 91 98 98 93 87 89 89 97 99 99 93 86 89 88 96 85
19 12 4 5 25 35 20 20 29 64 95 85 78 91 89 96 93 88 97 89 98 94 93 96 84 91 89 93 94 92 84 93 97 98 96 98 95 93 98 90 80 92 99 92 90 89 91
20 13 4 2 12 27 12 18 71 69 86 76 78 98 90 90 95 90 80 98 97 96 94 96 90 87 91 88 88 90 88 94 98 98 99 98 94 97 86 84 72 92 89 85 85 71 75
21 14 5 2 6 18 15 67 77 91 98 82 90 78 95 97 96 82 95 98 96 99 99 92 94 91 89 94 90 96 95 91 94 92 94 96 98 94 82 83 80 82 73 86 88 86 92
22 14 5 2 4 14 31 70 84 97 84 66 84 95 96 94 97 98 97 97 92 95 98 89 89 91 91 96 93 94 97 87 77 86 98 93 98 76 86 78 84 88 84 87 94 98 87
23 15 6 2 2 10 31 66 74 81 67 73 66 76 86 95 96 98 96 95 86 88 87 96 95 91 92 95 99 97 98 91 86 82 88 91 96 97 93 69 70 77 89 93 98 94 99
24 16 8 2 2 8 20 58 64 77 62 64 69 85 74 64 64 96 93 98 94 89 98 91 95 89 95 95 95 97 98 94 86 88 95 98 98 90 67 65 79 86 77 91 93 99 100
24 17 10 4 2 6 17 46 62 70 65 72 67 80 80 59 68 95 95 84 94 85 85 88 74 75 81 75 76 84 90 85 98 88 94 99 93 84 89 87 83 92 82 79 83 85 99
26 19 12 5 2 2 12 40 63 66 78 82 72 74 84 82 99 95 96 94 97 98 81 76 72 80 78 73 80 82 78 83 97 94 92 97 87 90 96 81 95 76 72 82 86 83 98
26 20 13 7 3 1 3 24 54 69 71 84 85 100 95 98 95 93 91 98 99 94 94 84 84 80 82 82 86 100 99 91 85 92 94 84 94 97 95 90 64 77 81 75 82 71 78
26 21 15 7 4 2 1 8 42 57 76 85 87 84 100 100 100 100 100 99 100 99 86 82 84 79 88 92 87 96 89 74 90 85 86 88 95 97 99 96 84 67 71 75 76 85 84
26 22 17 8 5 3 3 1 14 52 65 69 80 87 100 100 96 95 100 96 100 99 99 95 88 91 91 99 99 99 88 77 86 98 97 98 99 98 99 96 74 57 77 77 80 82 84
26 23 18 8 5 3 7 2 3 30 63 74 95 100 93 93 90 96 89 91 99 96 96 90 94 92 99 92 98 94 85 86 80 93 86 95 95 99 97 99 91 90 85 85 76 75 75
27 24 18 9 5 4 12 10 2 7 56 75 99 100 99 96 99 99 99 100 100 98 96 96 96 99 94 99 94 96 87 86 78 88 91 91 79 90 79 70 78 94 87 73 70 68 63

GFSGBSN_700_rhum_048.txt.gz
RH
6 6 6 6 6 9 11 16 18 17 16 40 84 100 99 96 67 51 21 13 4 2 36 72 99 98 100 58 31 36 48 34 42 71 59 24 32 34 31 38 36 46 50 36 26 28 31
7 6 6 6 9 11 16 19 17 16 50 100 99 95 97 96 89 73 60 17 8 4 16 34 93 99 95 69 36 40 71 59 46 81 70 51 45 40 36 35 47 53 38 42 40 31 30
8 8 6 8 11 17 19 17 14 30 65 88 88 86 90 81 81 76 77 75 33 7 3 23 92 99 86 81 38 45 72 84 73 73 87 79 85 74 44 58 67 64 81 76 48 35 39
11 8 7 11 16 20 16 18 61 95 86 80 79 85 85 84 83 83 81 80 83 50 4 62 99 98 95 92 49 40 61 72 86 88 99 100 99 76 60 83 81 91 84 82 52 37 41
12 6 9 13 20 18 16 35 98 93 73 72 75 79 79 80 86 80 82 79 98 86 8 58 99 99 95 95 50 51 63 78 73 90 92 98 100 94 85 78 78 90 90 82 55 51 45
12 8 11 19 20 13 10 44 65 67 63 74 73 66 62 86 81 88 87 66 75 87 18 79 99 99 99 91 49 67 84 78 74 79 91 100 100 100 99 90 94 79 77 70 74 55 69
13 9 15 21 19 9 7 21 53 67 92 82 66 53 48 61 56 92 85 80 74 72 45 99 98 99 98 96 50 69 91 83 86 99 93 99 100 97 100 96 89 92 87 82 68 76 68
13 10 18 22 16 6 16 30 70 95 84 67 57 46 46 52 75 84 91 91 74 86 48 98 98 98 70 77 50 76 92 85 84 89 99 100 100 99 99 99 93 89 89 76 75 76 76
12 12 20 21 13 5 18 42 58 36 35 36 38 37 43 56 58 70 84 71 64 77 54 97 98 98 96 58 50 68 92 81 83 84 82 84 88 87 88 87 98 87 89 86 81 69 66
10 14 22 20 11 5 20 25 27 26 29 28 31 32 35 43 48 63 96 66 77 97 83 97 98 99 95 74 72 74 98 80 94 96 100 98 90 90 91 83 85 85 85 82 77 67 61
10 17 23 18 8 7 10 22 24 26 28 31 37 56 84 73 61 62 97 83 73 98 95 71 98 94 96 81 77 100 100 99 96 91 90 87 95 89 77 88 90 86 80 74 73 76 74
10 19 23 16 4 5 11 16 22 26 28 36 92 85 95 99 96 91 96 98 88 96 95 98 99 99 96 88 91 100 100 96 98 91 94 88 84 84 79 79 84 88 81 77 75 73 84
12 20 23 15 3 8 14 16 17 21 29 72 78 78 92 87 82 91 97 79 75 95 97 98 99 98 93 100 99 95 95 99 95 99 100 98 93 91 84 87 89 90 84 84 89 94 83
11 20 24 14 2 15 33 39 45 62 76 80 79 82 96 100 89 88 80 82 85 95 93 99 94 97 94 97 96 99 97 100 89 86 93 94 95 89 80 84 68 89 79 70 79 96 86
12 20 24 14 2 21 56 67 91 87 84 85 88 91 93 83 82 87 83 92 95 97 98 98 100 93 99 93 98 99 96 95 92 81 76 88 87 90 84 86 83 88 94 82 89 90 92
13 21 24 14 1 24 56 80 87 98 85 81 88 81 76 70 86 96 96 96 97 94 92 90 93 98 99 95 95 95 94 98 85 75 71 75 89 94 94 95 93 81 79 87 87 82 88
14 21 24 14 2 24 52 63 48 68 89 70 67 56 58 53 84 92 96 97 98 93 97 96 88 96 94 93 84 90 90 86 80 80 80 84 78 99 94 91 87 90 91 84 79 78 93
19 20 25 15 2 24 50 48 50 54 64 72 56 64 53 68 88 92 97 97 97 98 89 87 84 69 80 81 89 81 80 92 76 71 83 85 90 90 95 88 89 91 84 82 72 68 92
30 18 26 17 3 22 49 44 53 53 69 72 48 64 47 68 83 97 98 99 99 90 90 88 79 75 72 72 82 76 81 88 84 83 88 84 88 90 92 86 89 90 88 95 85 79 88
37 16 26 19 6 15 44 38 44 37 47 58 54 78 54 60 91 93 97 99 100 99 91 78 77 77 80 74 78 83 83 96 92 94 88 87 86 76 77 77 76 84 71 75 88 92 86
40 15 26 22 11 6 37 41 34 39 51 56 58 83 77 67 71 72 85 100 99 88 85 84 85 81 77 92 92 87 89 95 97 97 93 96 90 86 78 85 90 85 79 83 87 72 93
47 14 25 24 16 3 22 40 43 37 41 49 54 61 70 88 85 100 88 92 91 93 88 93 95 100 87 87 85 86 77 87 95 98 99 97 94 84 70 63 66 69 69 67 70 72 91
51 15 24 26 20 10 7 34 46 51 52 47 47 51 79 87 90 94 95 97 95 94 96 93 92 92 90 86 86 84 79 81 80 79 88 99 99 90 68 90 82 80 68 69 73 79 84
61 17 22 27 24 18 3 11 40 55 55 55 53 52 67 93 88 81 81 83 83 77 89 91 91 90 81 79 89 96 96 93 92 97 93 95 99 93 81 80 94 91 70 77 82 83 92
80 24 19 27 26 22 15 2 14 44 63 68 65 64 48 60 69 88 86 93 85 77 80 76 70 72 74 79 90 96 100 99 98 100 98 93 92 90 93 96 70 84 79 75 91 72 74
80 32 17 25 28 25 20 9 2 15 51 62 73 69 72 76 73 92 91 93 83 84 75 77 82 80 81 82 83 94 90 88 93 96 96 95 96 98 95 99 85 78 76 85 85 70 84
88 40 17 22 27 26 23 15 5 2 15 60 82 84 86 86 85 91 94 89 88 85 90 97 100 90 87 95 99 98 95 93 92 95 97 99 92 92 98 94 70 67 84 86 84 81 76
94 54 18 19 23 25 24 16 6 5 4 34 92 96 100 90 100 99 94 89 94 95 96 99 96 98 100 100 98 95 96 96 95 97 95 95 98 99 100 94 84 88 84 94 85 73 80
95 51 19 18 20 22 22 11 7 11 14 6 84 97 100 93 98 100 96 94 94 98 94 98 100 100 96 99 97 95 88 90 90 90 98 96 82 80 74 71 80 80 90 91 85 73 81

GFSGBSN_700_rhum_051.txt.gz
RH
19 20 18 14 10 10 13 19 18 14 11 29 59 85 86 94 93 91 84 78 59 25 9 3 43 91 99 87 75 39 40 28 34 36 30 47 29 31 32 37 38 39 33 25 21 18 22
28 25 20 14 12 12 20 19 16 18 53 96 86 81 79 75 79 79 75 76 81 68 27 4 45 92 99 99 82 52 49 46 32 40 41 29 48 37 37 42 43 48 41 33 30 24 26
32 24 17 13 12 18 21 16 12 31 64 96 87 86 76 77 80 76 83 85 81 77 74 7 32 89 99 99 82 52 47 70 46 60 79 54 42 56 62 54 55 54 58 37 34 32 30
36 23 18 12 15 21 18 11 6 33 65 86 76 83 74 68 68 78 78 78 90 87 88 22 43 75 98 99 96 54 73 80 67 90 89 67 64 67 59 68 60 64 73 83 40 30 31
38 26 14 13 20 22 15 8 8 27 52 93 92 84 69 68 81 81 84 81 79 82 87 45 73 99 98 99 91 51 69 94 80 88 95 88 87 94 75 97 96 92 87 73 47 48 47
39 28 15 15 22 20 11 13 40 56 99 81 72 67 52 45 53 60 85 93 82 69 76 49 74 100 97 99 95 58 64 87 84 91 100 99 97 100 93 93 96 95 78 65 64 55 65
41 28 12 18 23 17 8 20 45 92 68 99 73 57 62 39 44 66 83 68 87 66 71 51 90 99 91 99 98 66 74 82 89 99 99 100 98 99 93 86 78 81 82 77 66 62 67
52 32 13 20 22 14 6 23 59 61 63 64 31 34 39 39 51 59 56 69 92 74 71 71 98 98 96 98 90 91 90 77 89 94 99 98 100 98 99 100 100 97 98 88 75 74 79
53 35 14 22 21 11 5 18 22 41 37 28 29 33 41 48 46 51 55 77 73 71 57 98 95 92 96 96 79 95 93 100 99 100 100 96 94 98 99 100 99 100 92 83 83 74 76
46 38 14 23 20 8 5 15 30 25 25 29 30 55 91 94 79 78 59 89 69 82 59 97 100 100 99 98 78 83 99 99 100 96 94 98 95 92 98 93 88 98 87 85 84 80 76
46 58 14 24 18 5 11 32 35 21 20 27 70 90 97 95 97 97 79 79 80 93 91 94 98 99 97 97 72 100 99 100 100 99 93 89 97 85 95 90 94 91 85 83 77 70 67
44 56 14 25 17 3 24 63 72 78 71 86 93 90 90 97 90 89 91 79 90 97 96 98 98 99 97 95 84 99 99 99 99 99 91 83 94 90 86 94 98 91 86 78 73 68 78
44 48 15 25 15 3 44 72 92 92 91 88 93 89 92 77 78 77 74 68 81 95 97 98 98 93 88 95 98 96 93 96 98 99 95 94 94 91 86 82 82 90 87 71 78 87 78
46 38 16 25 14 6 52 62 61 84 88 93 83 84 73 71 74 87 77 73 88 94 97 98 98 95 94 98 99 98 89 96 94 92 93 93 96 88 80 81 72 90 82 63 68 88 86
41 56 17 25 12 14 45 36 46 76 75 81 83 66 59 62 74 93 87 94 95 95 98 98 98 94 98 100 98 95 98 98 90 81 73 85 85 88 85 76 82 86 89 76 78 90 95
42 71 17 26 10 25 39 38 41 53 57 49 60 50 64 79 76 74 90 96 98 98 100 89 92 94 98 98 94 99 92 91 86 82 74 80 84 90 86 94 92 80 74 81 77 66 75
41 81 18 26 11 28 37 42 37 40 41 37 37 55 72 78 82 80 91 99 100 99 95 88 86 98 97 91 89 94 81 88 91 85 76 78 74 98 89 93 94 92 89 79 70 68 87
51 84 20 26 14 22 34 41 44 51 56 54 47 65 62 74 91 91 97 96 89 95 83 74 83 74 78 83 91 78 85 84 87 86 79 80 80 96 96 92 94 98 81 75 68 75 96
62 78 27 26 18 10 38 34 44 44 44 52 52 53 71 75 87 97 100 99 94 82 78 74 76 75 72 69 79 81 75 83 73 82 82 80 80 87 96 94 95 94 88 94 86 79 84
54 77 43 25 23 5 34 35 39 44 55 52 51 55 76 80 92 97 90 92 92 94 83 81 71 70 70 70 74 80 81 87 82 83 82 77 81 77 77 72 77 86 76 83 95 95 84
58 79 42 23 26 14 11 36 39 50 50 50 58 56 64 72 76 96 96 96 94 95 91 83 82 74 75 77 78 81 83 86 88 91 84 87 88 88 79 87 90 83 75 74 79 72 84
64 81 43 18 28 21 6 21 39 42 45 51 52 69 64 87 78 97 96 88 79 83 75 75 84 81 76 81 81 77 77 88 89 91 87 94 95 88 74 72 75 77 78 80 77 80 83
65 79 73 17 26 26 18 4 18 41 45 44 47 60 69 80 92 88 88 86 88 83 92 98 98 92 90 87 83 88 86 87 86 86 93 99 99 96 74 93 87 75 63 54 51 58 72
66 80 86 23 21 28 24 16 2 20 44 44 45 51 66 86 76 83 89 100 92 85 77 90 96 98 91 89 92 97 95 93 89 86 99 97 99 98 83 82 95 78 74 73 78 79 90
80 84 84 33 18 23 28 22 14 2 21 50 56 53 54 84 82 76 78 82 84 72 84 87 88 86 83 84 96 99 99 98 99 98 95 95 99 94 96 100 70 63 88 75 78 73 75
91 87 88 50 19 21 26 26 22 14 3 18 54 62 54 60 83 89 85 90 91 80 76 76 75 80 83 90 96 92 97 90 96 96 97 91 97 94 93 95 90 87 83 78 82 72 79
93 93 92 84 22 20 24 28 26 21 11 3 18 63 69 66 66 72 88 86 92 91 88 87 94 87 87 96 98 99 98 96 94 86 99 95 96 89 86 92 70 67 86 83 82 84 86
91 96 97 91 31 18 20 27 27 25 15 7 6 73 98 88 88 85 97 85 85 95 90 87 94 94 99 98 99 96 98 98 99 95 86 94 90 89 88 96 83 69 87 93 91 86 90
90 95 98 94 46 19 19 24 25 22 12 10 13 32 100 100 87 92 95 88 84 93 95 96 92 98 95 95 92 100 96 98 96 98 96 93 83 88 84 74 78 96 96 98 96 84 86

GFSGBSN_700_rhum_054.txt.gz
RH
45 49 36 26 19 13 14 20 21 16 12 26 62 99 91 89 80 71 70 73 80 84 73 68 18 24 100 99 97 72 50 33 29 30 28 31 33 51 46 41 43 41 39 34 26 28 30
29 49 42 29 17 13 19 22 18 12 12 45 86 96 74 88 67 67 69 72 80 78 73 82 36 12 100 100 94 97 69 42 28 29 32 30 72 45 56 46 42 46 42 34 28 28 28
30 37 42 25 14 15 22 19 15 16 39 88 74 90 93 76 63 59 73 77 75 80 80 73 78 60 98 99 98 98 84 60 37 30 34 32 74 62 53 53 49 59 52 36 29 28 30
26 38 49 29 16 19 23 18 17 58 100 100 100 86 77 64 57 77 84 82 87 91 78 84 83 96 98 99 98 97 82 68 52 47 45 45 73 80 73 62 60 56 64 52 34 29 28
29 36 51 29 15 21 22 15 41 84 98 100 98 99 100 52 39 46 58 79 77 82 74 86 94 94 98 71 99 89 62 74 62 62 85 97 80 78 86 73 75 79 70 54 44 36 36
33 39 50 40 16 23 19 14 55 46 89 72 96 100 56 40 39 42 50 69 63 80 78 77 89 98 87 84 98 74 74 94 74 90 99 98 98 89 90 98 87 88 94 53 41 38 40
32 42 48 40 17 24 15 9 25 27 81 100 88 50 34 36 38 41 53 53 61 92 78 84 60 97 70 81 98 72 86 97 86 91 99 97 96 97 90 91 87 72 68 63 47 61 64
32 41 52 41 19 23 8 10 45 73 75 37 28 32 34 71 62 54 58 52 59 73 77 72 65 98 76 87 97 81 72 100 97 95 98 99 99 99 98 90 94 98 90 79 78 77 79
34 35 57 25 22 20 5 36 66 85 81 63 52 58 83 97 96 89 58 59 74 64 75 95 66 97 100 97 94 85 88 94 92 98 96 99 99 96 99 99 100 99 94 86 82 79 77
25 36 58 19 24 12 21 53 78 90 92 96 93 96 95 91 96 95 93 68 65 66 74 87 99 97 99 99 94 96 92 91 96 99 99 99 100 95 100 99 99 100 90 94 82 82 79
27 37 63 21 24 6 41 39 47 75 90 93 94 84 87 89 83 87 86 77 67 68 89 96 98 82 98 97 89 100 100 98 97 96 95 95 94 92 93 98 95 94 86 84 82 77 69
34 38 66 26 23 16 31 36 52 51 88 79 75 82 79 74 74 77 68 68 88 94 96 99 99 99 93 99 84 99 97 93 99 98 98 92 94 99 100 100 98 90 88 86 79 72 76
36 45 71 29 22 26 31 35 47 46 85 68 66 64 68 70 76 66 67 78 94 92 96 96 98 98 97 95 89 95 98 96 95 98 94 98 98 94 94 95 96 93 91 74 71 83 73
38 56 70 31 21 26 34 33 33 32 45 55 58 66 63 71 57 56 82 94 94 97 98 98 98 95 98 95 98 98 99 91 98 94 88 86 99 97 94 86 80 94 87 60 59 80 79
30 60 71 32 23 18 31 36 32 32 44 55 65 72 70 52 60 78 90 95 97 97 98 98 98 91 100 100 98 98 85 80 97 88 75 82 86 95 83 90 83 86 87 73 68 89 91
23 51 65 41 24 11 33 40 38 34 44 55 68 76 82 77 74 89 94 99 100 98 93 88 95 92 96 99 98 95 90 91 96 85 82 77 84 93 89 94 89 80 76 75 66 64 64
26 54 61 58 25 10 35 32 44 43 49 61 64 62 84 85 83 88 97 98 100 97 94 82 75 89 91 96 94 94 93 94 97 85 76 73 73 96 95 97 89 84 83 72 68 64 78
28 56 62 76 23 14 26 28 36 42 46 54 61 72 78 67 69 91 96 99 97 85 77 69 80 72 76 85 88 87 84 71 83 86 76 75 74 97 95 96 92 95 87 75 60 74 83
29 57 63 78 21 21 15 31 36 45 44 50 62 78 82 75 99 81 93 92 86 76 66 63 75 67 68 75 75 76 77 74 87 92 81 75 76 93 100 95 96 96 89 90 76 70 75
36 59 68 78 19 26 11 27 38 49 50 49 57 76 81 84 96 100 99 84 76 78 70 70 71 76 70 73 66 78 74 76 70 87 84 81 77 72 74 72 79 92 82 84 88 90 81
44 58 67 75 53 24 20 13 32 45 45 47 51 50 56 82 99 100 100 98 85 90 86 83 77 71 75 71 69 73 74 75 83 90 92 90 81 77 77 80 88 85 76 79 83 82 73
64 69 74 76 83 21 27 17 9 31 40 42 48 59 58 68 87 100 98 95 86 80 85 83 79 87 78 69 69 72 75 82 86 96 87 89 82 85 75 74 76 73 72 84 79 73 69
74 77 79 80 79 56 25 26 18 5 30 37 42 43 67 75 89 83 81 92 87 83 84 81 82 82 81 86 87 86 85 87 86 87 89 92 93 90 78 81 86 70 57 58 59 54 55
79 80 80 78 89 77 27 28 26 19 4 36 41 42 43 69 80 78 76 83 90 86 80 90 93 96 97 93 93 96 96 96 94 87 95 92 96 93 86 83 96 70 78 76 72 77 81
85 83 87 84 84 70 82 23 28 26 20 4 38 52 44 48 78 82 84 87 84 79 90 91 90 97 94 96 99 100 99 99 99 96 94 98 92 87 91 97 70 62 82 77 77 83 83
89 88 90 84 85 87 58 58 24 29 26 21 5 37 64 52 71 79 82 88 87 79 89 80 76 77 82 90 96 93 98 93 98 95 93 91 91 91 96 88 95 88 91 83 83 84 88
92 91 91 86 90 96 50 84 31 25 28 26 21 7 20 62 57 75 80 88 95 90 82 75 71 83 89 97 100 99 94 98 94 91 96 97 97 93 78 83 75 79 91 90 94 91 86
92 95 91 89 94 96 66 58 64 47 26 27 24 17 9 13 62 63 74 72 91 93 90 82 79 80 97 99 98 98 96 95 96 90 88 85 85 89 87 87 86 78 91 99 99 100 86
90 95 92 91 94 96 92 76 19 25 48 28 26 18 13 11 40 90 81 78 89 94 89 90 92 97 95 92 93 95 96 97 98 94 98 94 86 82 80 72 92 98 99 100 97 98 92

GFSGBSN_700_rhum_057.txt.gz
RH
23 23 29 38 50 31 19 19 22 21 13 18 77 99 100 96 64 74 62 53 57 65 72 74 69 66 24 47 87 97 83 80 55 29 28 27 35 76 76 50 52 55 43 40 34 37 32
23 26 29 40 48 26 18 22 22 15 25 87 99 98 98 98 88 82 66 58 65 73 74 79 77 78 75 62 86 98 95 77 51 30 29 29 28 52 91 64 54 63 52 39 33 32 33
21 28 29 32 56 31 20 23 22 45 76 94 97 95 98 97 97 61 68 72 70 72 73 75 79 92 80 80 88 97 85 68 55 33 30 31 69 59 47 60 50 67 52 46 29 30 34
21 28 27 32 53 20 23 18 32 58 62 98 96 96 97 93 96 81 49 64 73 66 75 86 86 92 53 99 99 83 92 97 71 38 37 37 78 98 79 71 57 69 76 49 29 26 30
23 24 25 49 40 21 21 10 20 64 96 100 96 95 97 87 44 43 41 48 63 57 63 72 92 96 66 82 89 89 94 79 79 83 48 63 77 88 90 70 74 77 71 58 46 38 37
22 20 37 54 25 23 10 28 49 83 100 100 52 40 36 36 53 40 39 52 57 50 75 75 96 97 44 72 83 98 91 84 92 68 77 86 97 95 91 79 79 92 83 54 40 35 34
21 22 43 54 30 22 18 34 45 100 100 100 100 76 61 63 91 76 55 59 57 65 84 79 89 74 64 81 96 99 84 95 85 68 70 85 93 77 84 95 74 59 44 44 35 42 50
21 25 46 62 28 16 30 31 41 68 83 98 94 98 97 96 88 96 88 53 60 74 75 80 77 99 85 90 94 100 97 97 89 86 97 98 100 94 85 85 84 73 64 64 62 64 67
22 26 52 63 28 12 26 28 35 53 90 87 92 96 96 88 87 97 81 74 73 69 80 92 70 98 100 98 96 98 99 99 91 99 99 98 98 98 92 90 96 97 84 78 78 80 78
30 30 57 70 25 15 25 22 30 51 78 62 68 80 78 81 79 79 78 72 61 76 93 86 97 98 91 90 98 93 99 99 99 99 98 99 99 99 99 99 98 94 89 86 91 82 71
32 40 58 71 24 16 23 19 28 46 42 54 63 69 68 65 79 73 70 54 68 89 91 92 91 100 70 96 98 100 100 99 99 98 98 98 96 99 100 99 100 98 95 94 88 76 70
33 35 53 68 24 13 24 19 43 53 41 41 58 68 70 62 52 48 44 56 89 84 96 97 95 97 95 98 92 88 100 92 99 98 97 98 99 99 96 97 98 97 90 86 82 75 71
34 36 52 62 25 10 24 21 38 56 44 41 46 57 62 65 42 55 83 92 88 91 96 97 98 97 97 96 94 94 99 92 91 97 97 98 98 100 99 92 97 92 89 80 66 79 70
34 41 57 59 32 14 24 26 32 50 53 53 58 64 71 77 92 93 92 82 86 100 100 99 99 98 97 98 92 99 100 95 94 82 87 87 99 96 99 98 90 92 89 73 55 65 62
46 50 58 61 56 22 25 26 34 46 57 64 67 86 81 78 87 78 76 97 98 98 98 93 98 96 96 99 98 94 100 87 83 80 72 83 97 98 97 90 82 93 92 75 59 80 82
60 56 59 63 71 24 17 25 34 46 55 61 69 81 73 78 83 82 78 98 100 89 89 88 81 87 97 96 96 94 90 83 82 86 73 76 93 99 94 98 88 75 75 71 64 76 55
71 62 61 66 76 24 12 24 31 37 46 50 64 68 71 75 82 87 100 100 100 99 88 76 76 94 99 99 89 92 85 87 87 85 84 70 72 100 98 96 90 84 80 68 59 58 61
74 70 62 68 71 24 19 22 29 38 39 52 69 70 76 77 78 75 86 89 86 83 71 63 71 70 86 91 97 90 78 70 83 81 74 71 73 95 96 94 90 92 78 69 58 69 72
74 70 68 71 70 61 25 14 27 36 41 47 64 74 67 63 78 91 95 85 82 76 66 67 70 71 73 80 83 82 78 69 80 84 77 70 73 95 100 95 96 96 84 81 73 56 62
73 73 72 74 73 76 27 22 17 33 39 40 54 64 61 71 83 92 94 93 79 74 72 69 70 69 72 75 62 76 72 77 75 84 84 75 72 69 72 69 78 89 79 87 86 76 69
78 74 74 77 77 76 66 26 18 20 38 36 43 53 58 72 89 96 95 97 87 84 78 78 78 74 71 71 66 72 73 75 75 73 92 82 74 70 72 77 81 82 76 81 84 75 69
75 76 76 74 75 72 79 49 26 15 16 34 38 44 60 67 76 98 96 90 90 85 84 83 78 77 80 74 70 68 70 70 68 85 95 94 82 77 79 77 76 73 77 83 77 73 66
76 80 81 80 79 75 75 75 34 26 13 12 33 36 40 65 82 82 80 84 82 85 88 88 91 87 82 76 83 84 82 81 83 82 81 90 91 80 80 76 84 80 64 60 60 58 56
77 84 84 81 81 82 75 78 75 27 26 11 10 40 40 41 69 79 72 80 86 87 87 91 89 87 92 92 87 94 93 96 94 93 95 90 95 88 87 78 92 69 81 82 72 62 66
79 86 89 84 80 86 80 81 76 58 27 26 15 9 49 44 51 76 76 78 83 78 82 87 91 97 100 98 99 99 100 100 98 97 98 97 86 86 91 88 64 62 79 78 81 84 83
80 87 88 90 83 87 82 87 78 69 54 26 28 21 6 48 57 76 79 78 84 82 94 88 83 80 87 95 99 95 99 98 99 95 99 91 91 93 95 90 88 88 90 89 86 92 91
85 94 92 89 87 86 85 90 76 56 88 45 27 28 24 10 49 67 88 86 81 81 82 84 78 76 78 91 100 99 93 98 99 94 96 97 91 96 88 85 71 86 88 96 96 96 94
95 99 92 81 86 87 88 93 92 65 79 88 80 52 27 27 19 38 73 96 87 89 88 83 83 79 82 93 97 94 96 90 98 88 91 83 86 100 97 83 76 73 85 97 99 99 95
91 100 82 82 82 89 90 95 96 81 36 44 44 70 93 42 26 16 41 74 85 98 98 94 88 86 90 91 90 92 92 94 100 92 90 91 84 82 79 68 93 92 99 98 98 98 98

GFSGBSN_700_rhum_060.txt.gz
RH
14 16 17 23 43 56 29 22 34 34 70 88 71 94 90 98 94 93 83 88 62 47 52 58 62 68 59 67 25 76 84 99 99 60 31 30 44 61 74 82 62 56 67 52 48 40 38
18 19 19 31 47 48 26 17 50 89 74 93 98 93 92 95 88 91 85 76 68 68 66 57 64 77 78 74 29 97 99 84 94 75 34 32 30 70 91 90 81 71 83 57 54 45 42
21 20 22 41 54 48 24 16 34 50 89 93 90 94 93 94 83 99 79 72 71 73 61 67 76 86 89 67 61 96 99 97 93 75 35 35 40 73 85 97 80 86 71 62 50 44 41
22 20 26 44 60 39 15 26 30 50 96 93 89 94 63 76 75 69 68 47 53 56 64 62 89 88 72 86 64 62 100 94 99 79 37 40 49 69 100 98 81 80 88 76 36 38 38
21 25 30 55 64 30 21 21 31 43 80 82 89 95 77 39 36 59 38 41 44 44 46 59 86 94 94 80 66 76 97 98 94 48 43 59 78 78 84 90 98 92 62 64 62 34 40
20 37 33 60 58 20 19 16 18 31 70 85 84 92 95 86 65 72 73 43 53 57 51 70 74 95 83 60 96 95 79 99 96 49 76 96 98 92 99 88 64 74 73 74 61 51 38
20 41 34 61 51 15 18 13 21 34 72 65 71 83 88 96 96 88 95 74 67 56 69 77 87 97 66 75 98 100 72 98 95 67 88 96 99 95 99 90 72 73 78 66 33 42 36
22 42 33 53 51 16 17 18 27 27 50 58 67 66 65 70 75 89 96 80 61 69 74 73 90 98 67 79 85 90 83 98 92 97 94 94 95 97 100 99 80 80 67 66 45 40 48
26 38 30 52 52 16 19 24 31 30 33 55 64 58 50 64 61 90 78 69 65 75 88 84 92 76 77 78 88 98 99 98 93 92 89 99 92 100 98 100 95 85 72 81 73 61 69
36 38 35 56 54 15 22 30 32 26 40 48 36 31 44 64 66 60 55 60 76 92 96 94 97 81 97 97 95 100 99 100 92 91 99 98 89 90 95 97 89 90 86 81 78 83 63
58 44 41 59 62 15 24 29 31 36 42 48 57 45 34 38 33 39 58 85 92 91 94 97 98 98 86 87 96 98 98 99 99 97 95 98 98 97 96 99 97 98 99 93 93 89 74
67 57 46 58 62 18 24 26 46 41 43 61 70 66 76 71 62 80 82 83 80 85 92 95 99 90 93 98 99 98 94 98 97 98 99 98 99 99 99 99 99 92 95 98 86 75 69
70 67 55 57 64 23 25 28 35 50 48 59 74 71 70 78 72 63 56 57 69 92 97 98 100 99 98 97 100 98 99 96 98 98 98 98 99 99 99 99 99 98 94 84 80 82 59
56 67 64 56 67 29 17 27 36 49 50 59 56 59 64 68 61 43 42 62 87 99 96 100 100 98 97 93 91 84 94 94 80 88 96 98 98 99 100 92 90 96 92 75 54 43 42
53 70 72 63 68 46 14 25 30 42 44 55 57 50 58 58 51 42 41 57 97 98 99 97 95 98 100 100 96 99 91 88 91 79 75 88 99 97 98 97 89 91 93 74 52 61 60
57 59 69 66 70 65 21 21 28 33 37 46 59 50 57 55 59 44 41 95 99 99 99 92 86 93 92 85 91 92 85 81 82 78 67 77 97 98 99 97 91 89 81 74 60 66 47
63 59 70 70 70 70 29 15 26 37 38 47 59 53 57 59 64 58 62 93 99 93 85 76 75 86 95 88 88 84 81 80 81 81 74 69 80 97 97 95 94 81 80 66 58 53 44
67 60 69 71 72 73 60 17 20 33 41 44 55 51 52 63 62 82 93 91 88 82 75 71 80 94 100 92 86 85 73 68 81 81 74 72 75 98 95 89 84 86 76 63 63 69 66
65 59 60 73 70 69 73 30 14 26 38 38 44 53 57 55 54 68 79 84 81 74 69 74 79 80 81 88 91 84 74 66 77 82 75 64 70 96 98 96 92 90 79 72 60 60 61
71 59 51 72 76 68 70 69 24 15 28 36 39 48 56 61 58 61 71 78 77 74 70 69 72 71 79 85 74 82 79 75 78 89 79 67 60 66 60 72 77 82 70 75 77 71 67
71 62 66 72 77 71 65 70 67 22 15 31 34 41 53 59 71 72 62 66 71 70 70 68 72 69 81 77 68 67 78 78 78 77 84 80 70 66 64 68 73 75 76 77 81 72 63
71 60 64 66 72 74 67 64 71 64 23 12 34 36 39 56 58 72 76 73 68 67 68 76 73 72 72 70 67 67 76 71 68 72 80 85 75 71 69 66 72 71 71 73 71 77 67
65 75 70 72 71 72 66 66 67 72 48 23 11 34 36 48 68 72 79 75 78 82 77 81 79 80 79 76 72 71 70 74 80 69 74 92 89 81 86 76 76 76 53 59 59 59 58
76 73 76 77 77 77 71 67 66 72 75 32 23 8 43 44 53 74 71 79 82 88 79 80 83 78 81 85 85 86 84 91 92 92 92 88 90 88 94 77 83 56 77 78 63 60 52
73 78 87 86 80 76 67 71 72 73 77 72 29 24 8 42 50 72 77 74 83 84 89 93 88 89 93 93 96 99 96 96 95 95 95 89 93 85 91 80 65 66 72 78 81 84 82
86 82 93 92 86 76 69 70 75 77 81 68 75 29 26 12 37 62 88 85 84 85 88 96 96 92 91 94 92 91 93 98 97 94 98 94 95 97 99 94 61 82 84 86 90 98 91
91 91 97 93 90 80 73 72 75 79 86 61 66 83 36 30 21 39 82 97 92 90 83 90 90 89 90 96 100 99 97 92 99 96 93 98 95 98 98 92 72 81 83 92 97 97 95
100 97 100 100 97 95 78 74 78 80 85 88 79 52 78 67 46 29 41 95 99 98 92 85 87 85 84 97 98 91 97 86 92 93 86 96 99 99 100 97 78 67 86 90 99 96 94
51 99 94 96 99 96 82 76 78 84 92 85 64 52 58 80 66 63 31 31 95 100 100 97 87 75 81 89 89 86 92 89 94 98 84 94 79 92 76 74 81 82 98 96 97 95 96

GFSGBSN_700_rhum_063.txt.gz
RH
24 22 24 42 51 57 30 20 19 21 35 87 91 91 87 83 86 93 95 86 78 88 60 60 51 52 53 56 35 68 40 66 98 96 76 36 91 77 88 99 88 69 72 68 76 60 48
29 23 36 43 56 52 17 15 16 24 56 91 89 79 84 86 85 86 93 89 74 74 74 64 61 69 69 52 54 57 100 62 80 74 90 36 91 95 99 99 97 94 83 86 80 65 51
31 27 45 45 56 33 15 14 23 28 45 79 76 75 81 73 33 69 84 83 73 69 71 62 68 82 74 55 84 53 94 68 66 74 93 42 97 99 100 98 100 99 86 91 83 75 63
34 27 49 43 58 19 11 22 24 24 53 87 82 79 81 84 56 30 38 50 55 52 56 64 68 69 79 69 70 75 97 99 84 95 92 85 90 99 99 99 98 98 87 83 82 63 66
39 27 50 43 59 16 11 25 18 19 51 72 61 67 80 83 80 40 45 36 40 41 50 50 55 73 81 70 64 56 99 100 99 99 89 50 66 89 99 92 94 88 69 65 60 57 58
37 35 50 50 59 15 14 28 15 18 19 24 34 53 66 73 81 84 63 65 39 48 52 51 68 80 76 81 72 57 97 98 92 90 93 59 90 81 89 90 81 68 64 49 48 68 63
42 50 52 54 59 15 16 28 28 44 34 27 25 39 46 57 69 92 93 95 71 65 58 79 85 82 86 98 93 67 100 99 87 99 69 70 92 90 85 78 57 48 58 46 47 57 67
56 60 57 55 58 18 18 28 32 39 50 45 48 34 44 59 69 78 88 80 57 64 87 69 88 100 84 97 94 71 99 98 98 88 100 89 99 83 89 79 69 63 57 58 59 64 62
59 62 62 56 60 27 21 23 34 40 50 64 62 61 36 39 43 50 56 56 56 69 95 88 97 80 86 97 98 98 97 99 99 94 98 98 99 94 98 86 82 62 58 56 61 69 63
60 59 63 58 60 38 21 26 38 42 51 63 76 73 52 59 61 68 73 62 69 93 97 96 79 96 87 99 92 97 80 99 99 93 99 99 99 96 93 95 81 65 61 56 82 72 48
66 51 60 65 61 52 16 27 36 48 54 60 66 53 75 66 51 52 66 83 87 88 83 91 84 74 97 80 94 97 98 98 100 99 93 98 99 96 99 91 86 91 76 85 84 79 72
68 53 58 69 62 61 15 25 37 46 48 54 55 47 47 45 49 50 60 72 84 90 92 96 84 89 98 98 99 99 98 79 84 99 80 96 85 90 99 98 98 85 96 94 88 81 74
70 54 55 60 65 62 24 20 30 41 36 48 48 46 44 41 37 45 61 68 93 91 98 89 98 96 97 98 98 98 99 98 98 97 97 97 99 100 99 99 100 96 93 94 95 90 63
65 56 55 64 65 62 42 15 26 32 35 44 47 43 35 34 36 48 62 65 92 100 99 94 96 95 97 97 92 99 97 96 95 95 98 98 98 98 99 99 98 99 98 81 68 54 48
56 55 62 65 63 62 59 16 24 34 40 52 50 42 28 38 39 40 42 62 100 99 94 98 98 98 98 82 81 96 100 99 96 94 95 98 97 99 99 97 98 99 97 80 61 44 44
54 54 59 64 64 59 60 26 18 33 37 49 44 43 37 43 38 36 38 72 97 90 89 95 91 90 81 94 94 89 90 81 83 74 81 86 98 98 96 96 92 94 89 76 63 69 41
47 55 49 50 65 60 54 56 15 28 37 40 47 39 46 48 51 39 45 92 96 85 76 87 94 86 83 90 88 85 89 77 79 73 70 80 85 100 98 97 91 80 81 68 68 54 45
53 52 45 51 62 61 52 60 33 17 39 35 37 37 46 47 55 50 69 80 78 74 70 76 97 96 83 87 83 81 79 92 78 78 80 68 97 91 95 88 85 89 79 71 60 54 56
46 51 50 64 60 63 52 51 62 25 18 35 36 38 46 49 56 56 62 70 73 70 65 68 78 86 80 90 86 89 81 66 79 77 80 67 82 90 87 90 84 84 82 82 74 56 70
52 53 44 53 61 56 59 51 53 60 23 17 35 36 42 51 52 58 83 66 62 61 61 61 66 67 77 90 76 89 85 68 66 76 76 64 66 78 58 80 80 87 90 84 74 72 60
66 66 60 54 56 56 54 54 51 58 62 21 27 36 38 46 59 60 65 65 66 67 61 61 63 67 84 82 82 83 87 75 74 78 84 80 86 60 55 58 66 70 86 94 82 66 68
86 79 69 64 62 56 53 50 49 55 61 57 21 32 36 38 50 60 64 78 65 66 68 86 74 68 77 77 73 80 78 90 85 70 82 78 74 68 66 59 60 64 68 74 71 69 70
71 86 68 71 78 66 58 54 53 52 58 65 45 20 21 42 50 64 98 69 64 67 65 68 85 82 86 76 69 65 68 85 87 79 80 96 87 77 74 71 73 77 49 53 52 52 52
42 80 72 71 79 79 69 60 59 58 61 69 66 34 19 23 47 86 64 71 77 80 80 76 83 89 74 72 70 78 75 76 78 80 91 98 99 85 85 79 82 66 62 63 61 57 55
14 54 74 76 76 86 78 73 69 64 58 71 74 66 32 22 20 52 78 79 81 85 85 79 78 83 88 91 100 100 99 98 91 92 96 94 92 94 86 70 64 59 62 74 74 79 48
14 19 52 67 81 72 76 80 80 68 64 68 78 67 73 32 26 18 61 87 84 97 90 88 89 88 92 94 98 87 82 83 96 85 88 86 88 96 92 85 62 89 73 81 90 96 89
5 7 14 54 76 87 85 76 83 79 68 73 83 72 67 80 52 26 41 88 99 97 100 98 98 95 96 96 99 92 83 90 88 86 98 100 99 98 93 86 75 68 83 88 94 98 92
6 6 7 14 54 79 76 86 79 82 71 70 85 93 84 72 65 55 26 47 100 100 100 99 99 98 94 98 96 90 87 89 91 84 89 94 90 92 89 92 81 60 87 86 100 99 98
6 6 6 6 29 46 68 83 91 86 74 72 85 92 77 63 66 68 76 46 53 100 99 98 97 97 89 96 93 93 91 98 86 83 88 88 81 80 81 81 72 67 89 84 83 94 95

GFSGBSN_700_rhum_066.txt.gz
RH
49 41 36 52 47 50 14 20 13 12 27 46 77 87 87 84 81 61 82 82 82 72 84 78 71 60 65 64 38 76 84 23 54 86 98 82 37 52 67 80 97 66 75 53 57 53 49
49 42 46 51 47 48 11 23 13 26 33 51 87 78 66 78 88 54 51 74 82 67 75 77 66 60 64 51 57 62 91 64 52 68 85 91 45 76 76 96 96 86 76 70 68 64 53
50 42 52 51 50 44 11 24 18 30 39 50 34 51 68 73 80 70 30 52 67 65 65 68 57 54 59 59 85 56 84 68 73 89 87 90 49 96 96 92 92 97 82 84 74 67 58
51 50 54 52 52 46 12 24 33 38 45 52 41 33 62 54 77 82 34 35 49 54 57 60 58 50 38 60 67 50 83 89 73 94 93 95 57 98 86 87 95 99 80 96 82 78 69
54 56 51 54 52 52 14 26 31 31 45 62 57 30 42 51 61 81 51 39 39 41 42 51 46 52 59 63 61 47 51 100 82 99 83 98 87 83 88 99 93 95 88 85 82 78 79
57 56 46 56 49 54 15 18 31 34 42 64 65 49 36 40 63 76 94 61 55 37 44 49 59 77 78 86 90 60 71 98 98 76 96 98 85 91 83 84 87 81 80 68 70 71 66
52 57 42 59 50 55 16 20 26 39 48 60 66 54 50 33 48 79 82 86 74 75 65 80 87 92 80 86 82 54 76 98 91 99 98 99 78 81 81 74 81 66 72 61 59 61 60
53 58 43 62 52 58 21 21 31 45 54 57 52 47 51 55 41 48 55 56 59 56 75 62 73 91 92 91 84 70 97 99 99 99 98 94 70 64 94 87 80 93 83 55 52 58 62
58 59 44 48 52 58 28 20 38 42 53 52 53 37 36 50 60 47 74 67 68 84 95 91 86 84 96 98 79 97 92 98 98 98 86 98 85 95 92 84 81 79 63 53 56 69 70
60 60 43 40 62 57 40 17 35 34 41 46 46 42 32 43 58 69 74 82 88 93 98 85 77 77 89 100 100 96 89 99 97 93 92 89 98 75 99 87 81 78 59 60 60 68 62
56 58 42 50 60 57 52 13 22 30 34 47 42 36 38 30 47 61 75 86 82 85 90 92 96 98 98 97 90 98 96 98 98 90 91 100 90 94 86 79 85 70 57 57 69 57 68
49 51 40 54 59 57 56 17 20 26 39 47 38 34 27 31 45 59 61 78 76 76 96 97 98 99 100 89 81 94 93 99 99 95 95 95 98 99 95 98 97 77 75 80 82 82 84
50 47 41 55 56 52 54 27 17 27 42 44 41 27 21 31 49 57 48 50 70 88 95 96 93 98 98 95 97 99 99 99 95 99 92 95 96 100 96 98 99 99 82 91 91 94 87
52 39 37 43 55 52 50 43 14 25 38 36 39 33 18 29 33 46 45 40 86 94 97 90 99 98 94 92 97 98 98 86 83 84 83 80 88 98 90 97 97 98 70 81 76 88 73
48 34 35 28 50 50 48 56 14 23 29 39 33 38 30 23 27 35 38 47 90 85 80 92 93 98 86 77 82 89 92 97 97 97 95 98 94 99 100 87 99 93 99 88 63 40 59
48 37 40 29 37 48 45 48 48 14 27 30 26 33 32 41 33 40 39 58 89 86 80 91 90 81 84 88 85 87 88 92 86 87 92 91 96 99 98 99 99 97 96 85 53 74 62
45 37 44 41 44 44 45 40 50 40 16 26 25 28 40 44 44 36 42 56 71 70 69 87 87 79 74 85 80 80 84 83 80 76 85 88 86 98 98 96 95 98 98 87 72 58 80
38 42 45 39 41 44 50 43 40 48 39 18 25 28 40 42 48 50 50 56 57 57 62 72 89 86 78 81 81 80 83 86 74 80 80 81 86 93 94 92 93 91 85 93 65 61 50
49 51 59 53 43 47 51 46 40 40 45 47 17 27 36 45 68 58 58 58 58 58 59 66 77 71 72 83 78 86 75 65 72 76 82 71 73 89 88 80 79 81 77 77 70 66 64
58 65 67 63 50 46 47 46 42 43 43 52 31 22 33 40 53 62 93 88 77 59 56 58 62 64 73 84 80 86 82 59 61 70 69 65 82 84 75 82 76 72 67 74 76 62 59
19 33 57 55 54 55 55 51 45 46 44 48 50 26 32 40 82 59 68 95 83 88 58 59 64 65 85 81 81 82 90 72 68 62 72 72 85 66 64 56 57 62 64 88 83 65 58
4 14 46 52 57 67 72 67 61 53 50 50 57 45 26 34 41 60 87 98 93 97 61 84 74 87 83 79 74 75 74 85 79 68 68 74 72 68 62 56 53 51 53 68 77 69 65
3 5 9 23 35 49 69 68 66 58 54 53 50 53 56 31 39 51 91 100 98 76 83 63 70 93 80 87 75 68 76 84 86 80 69 84 75 74 79 75 64 59 35 40 51 50 48
3 4 5 7 8 17 53 58 66 65 59 58 56 54 58 56 32 61 95 81 86 96 93 99 76 77 94 87 74 72 75 74 78 72 79 93 95 87 88 76 96 58 51 54 50 52 52
4 4 4 4 6 8 20 27 52 56 66 68 66 60 63 61 64 35 36 66 77 87 88 86 83 78 81 83 93 95 93 95 97 96 87 96 89 82 86 78 59 56 54 64 73 81 60
5 5 5 5 6 6 11 18 21 43 67 66 71 64 57 65 69 68 45 29 68 93 98 95 83 88 90 89 95 90 90 83 89 92 89 87 93 88 84 83 79 80 71 76 88 89 72
6 6 6 6 6 5 6 22 37 56 66 67 71 70 68 68 68 69 72 44 90 100 93 99 83 94 93 91 98 93 91 83 84 83 92 93 92 88 86 83 73 70 63 87 94 94 94
7 7 8 9 8 6 6 7 22 43 60 67 75 72 70 76 68 74 73 60 31 96 98 95 99 97 98 97 93 89 80 78 84 81 83 91 95 93 88 87 81 61 65 95 96 95 96
9 10 10 10 9 9 6 8 20 61 73 69 69 69 76 77 70 73 72 62 71 57 91 99 98 91 94 90 85 88 83 84 83 81 83 89 83 81 76 74 71 66 59 76 90 96 94

GFSGBSN_700_rhum_069.txt.gz
RH
30 38 45 33 40 50 17 22 18 25 34 56 51 41 48 58 66 90 73 47 77 75 68 81 72 63 84 94 81 98 55 32 25 46 78 81 43 33 58 68 86 82 81 63 57 68 66
30 42 47 34 37 50 20 17 21 24 34 60 50 49 36 43 59 75 59 29 65 65 71 73 68 61 54 52 68 89 100 47 37 78 72 71 69 34 49 71 78 82 76 70 78 63 61
33 45 46 36 35 48 20 15 20 29 42 57 47 44 28 41 56 76 61 27 33 57 65 66 55 47 52 77 53 53 97 71 62 83 100 91 82 39 66 80 79 96 76 80 79 67 59
29 40 42 32 30 46 20 19 24 38 52 47 36 36 19 28 54 79 59 35 47 48 51 56 53 45 42 54 63 48 61 100 54 74 85 96 82 56 97 89 91 96 86 86 76 73 59
30 45 41 26 34 53 20 24 34 45 52 36 32 36 24 31 45 79 82 43 37 39 38 44 44 39 50 60 66 53 47 98 87 71 70 96 84 89 94 88 98 96 91 80 75 73 69
35 45 42 24 44 53 22 29 35 43 52 34 33 39 40 54 32 55 69 60 63 46 38 40 48 69 75 74 78 51 43 89 82 97 99 98 99 87 93 86 89 98 87 76 63 73 76
32 45 43 25 53 52 32 27 31 32 46 46 27 33 40 50 62 41 38 48 55 55 66 74 60 78 74 88 83 54 40 96 76 98 98 99 98 73 77 83 90 72 78 74 63 63 66
31 43 40 35 52 53 49 18 32 28 41 48 36 32 34 47 58 57 65 63 59 76 89 82 90 92 84 79 81 57 40 88 82 97 99 97 97 74 74 78 82 84 79 70 64 66 66
23 36 34 39 50 51 54 14 23 26 42 43 35 27 32 45 55 61 65 76 83 87 95 98 96 94 95 76 69 61 63 98 95 94 100 99 93 78 83 73 81 90 81 73 67 62 67
20 32 30 43 49 47 53 16 23 30 39 37 24 20 28 41 51 63 69 72 62 63 82 95 97 99 92 66 97 84 80 87 79 99 97 98 92 75 84 79 84 92 70 70 62 71 78
20 27 26 37 46 45 48 21 23 32 36 31 22 18 27 45 50 44 64 69 66 77 91 98 99 100 97 76 83 98 99 100 97 99 96 98 93 78 75 93 89 79 73 79 64 66 65
22 22 23 22 43 46 42 39 19 31 33 32 24 16 21 32 40 30 37 48 63 71 90 97 98 99 89 80 96 85 97 99 100 93 95 92 99 94 97 82 80 87 79 74 72 74 81
25 20 23 21 34 44 40 50 14 26 32 32 30 24 20 23 26 39 38 37 57 88 90 98 99 98 98 99 98 97 98 96 96 97 96 96 85 78 81 89 93 84 99 96 90 92 90
30 22 23 25 22 38 40 40 47 19 25 26 26 33 30 34 20 24 39 33 66 96 90 87 99 100 86 96 100 97 98 99 84 84 91 89 100 100 89 89 88 98 91 69 87 97 83
35 25 26 26 27 32 38 34 41 41 20 23 25 27 38 29 29 30 39 40 73 83 89 95 82 90 94 93 93 96 93 90 87 77 71 82 96 93 100 96 93 98 98 76 69 60 69
41 30 28 30 30 29 37 34 34 37 40 18 22 24 35 33 29 29 40 55 70 71 86 90 87 78 82 87 91 89 92 94 82 91 76 87 95 100 97 95 91 97 96 88 80 76 72
39 32 31 30 35 27 34 36 34 35 32 39 18 23 29 38 38 42 42 60 66 64 66 81 84 78 74 79 80 80 85 81 84 80 87 95 90 100 100 99 96 99 99 93 77 69 81
31 28 28 26 37 35 31 33 33 29 34 35 35 23 28 36 45 44 53 56 57 59 63 74 82 81 79 74 81 79 83 78 82 90 93 94 86 97 98 98 98 98 96 88 73 65 53
15 11 20 28 28 40 42 46 46 37 30 31 36 32 29 32 44 51 64 65 65 58 59 65 78 76 78 78 76 76 72 62 74 74 79 71 83 97 98 96 99 99 92 94 96 74 64
3 4 10 14 16 19 25 33 42 43 42 39 35 40 35 35 47 58 63 90 97 82 62 59 60 67 79 78 79 79 67 58 67 74 72 70 74 82 73 74 70 81 83 89 93 91 69
2 2 3 3 3 3 4 10 19 23 38 47 40 39 45 37 35 45 64 71 82 95 94 72 66 69 83 85 79 79 80 69 63 67 70 68 64 71 73 68 55 56 58 72 77 72 60
2 3 3 3 3 3 4 4 4 5 17 44 51 48 45 47 42 28 69 92 100 97 98 89 89 89 86 84 80 78 77 69 67 65 64 72 73 75 69 56 58 53 47 55 64 69 70
3 3 4 4 4 4 4 4 4 4 6 19 42 48 47 52 53 42 76 97 95 100 84 100 78 90 94 84 84 82 80 76 75 76 69 64 69 67 67 76 77 66 38 36 38 47 45
3 4 4 5 5 6 6 5 5 5 5 10 27 48 52 54 53 56 52 54 74 99 100 98 98 83 94 95 90 80 71 74 87 86 73 86 90 82 83 86 87 44 53 48 48 40 44
4 4 5 6 7 8 8 7 5 5 5 8 27 41 52 48 58 56 57 63 32 41 74 92 96 88 86 88 88 82 83 86 85 79 80 89 89 85 80 90 53 58 50 55 60 60 50
4 5 5 6 9 9 10 10 7 5 5 7 26 47 48 56 60 58 57 66 67 36 27 69 89 91 91 96 97 94 86 86 84 89 96 98 95 89 84 87 91 79 70 69 72 83 72
6 6 8 8 9 10 10 11 8 6 5 5 18 44 64 59 60 68 71 75 74 68 84 91 84 96 97 94 99 93 86 81 85 81 93 98 96 96 91 82 72 64 69 83 92 75 74
7 8 8 9 12 11 12 12 9 7 5 5 23 42 64 66 59 68 70 73 73 66 51 92 84 88 99 98 98 96 94 80 82 83 83 82 88 91 95 92 84 60 69 92 83 86 91
12 14 17 19 20 18 16 13 8 6 5 6 12 43 75 80 62 75 70 72 77 58 69 55 89 98 98 98 92 87 85 76 76 86 84 83 75 82 71 64 68 71 63 64 82 88 87

GFSGBSN_700_rhum_072.txt.gz
RH
22 25 31 21 25 42 18 21 26 39 42 23 27 31 40 29 46 65 66 25 56 70 57 70 72 62 81 81 96 99 84 74 41 31 79 81 46 64 70 64 85 88 83 70 77 82 77
20 26 33 16 31 45 14 27 36 44 32 22 28 35 51 28 48 67 48 22 33 53 60 63 61 63 62 76 84 97 99 78 37 45 93 92 56 49 83 83 94 87 83 82 79 70 81
19 27 32 16 42 46 15 29 37 42 33 19 23 35 51 26 58 70 28 27 35 48 50 54 47 43 62 84 79 96 100 65 50 41 88 98 61 39 66 80 90 83 84 84 68 65 73
17 24 28 22 43 47 16 29 29 35 41 23 19 29 50 31 38 67 31 29 37 36 40 41 36 34 38 55 58 65 97 82 40 64 75 88 89 42 48 86 78 80 84 97 76 65 72
16 18 23 26 45 50 26 24 27 30 40 36 22 23 47 42 28 46 47 44 39 30 32 34 34 34 35 48 49 56 74 94 32 82 98 86 90 67 66 97 85 89 75 79 81 71 69
15 15 21 25 42 49 43 16 21 29 37 33 20 26 40 57 39 33 30 33 42 44 39 38 50 62 60 55 56 57 41 94 61 95 99 99 95 89 77 98 96 92 93 78 81 71 70
16 15 14 23 35 43 46 13 20 34 34 27 18 27 40 53 58 45 44 50 51 52 52 46 63 77 71 72 58 48 43 80 82 100 98 97 96 72 80 96 91 86 79 69 77 77 70
15 15 14 21 31 38 45 12 20 32 30 20 19 26 36 48 55 56 55 60 70 76 88 90 82 85 73 78 77 42 43 73 64 76 100 99 100 74 74 85 86 71 78 73 69 71 72
14 15 14 17 26 35 44 13 20 30 30 15 17 24 38 38 50 56 53 44 56 82 94 98 98 99 71 68 62 47 48 58 86 99 99 100 98 81 75 78 85 90 80 72 72 70 69
14 14 13 15 25 35 38 25 19 29 30 25 15 17 25 34 37 42 49 56 61 69 94 100 100 91 94 97 74 48 57 97 94 97 98 100 96 95 82 81 91 89 86 80 74 72 71
14 15 14 16 16 34 35 45 14 25 27 28 27 20 18 24 35 40 47 50 60 84 92 97 97 77 75 98 72 44 71 98 91 99 98 98 86 87 87 82 77 81 86 80 80 70 74
15 15 15 17 14 25 36 33 39 16 21 23 23 30 25 22 20 32 39 53 54 66 93 98 94 98 96 100 92 78 98 98 91 96 98 93 100 92 89 98 88 85 87 80 79 80 83
14 15 18 18 19 18 28 31 30 37 17 20 21 25 30 27 30 27 38 42 54 86 86 87 98 98 100 100 89 96 98 98 98 99 98 99 99 92 92 83 91 85 77 96 97 98 92
10 16 20 20 25 20 26 26 26 28 36 18 19 23 35 33 28 30 36 43 54 87 96 97 97 95 97 94 65 100 99 81 88 82 98 96 99 85 76 81 74 88 79 83 89 96 81
8 15 20 21 23 19 24 28 27 24 27 36 19 20 30 34 32 29 37 44 64 77 77 87 88 90 96 98 99 100 95 80 81 74 68 86 96 99 94 79 90 96 98 90 69 70 79
7 12 16 21 21 24 22 25 26 23 25 27 33 22 23 35 38 38 42 55 67 71 80 81 86 78 89 92 98 93 95 89 81 80 76 77 85 97 99 96 90 100 94 98 82 83 79
6 8 11 17 16 19 20 18 20 31 27 25 27 30 27 28 42 44 50 59 61 67 70 83 85 74 72 85 85 88 79 88 98 90 88 85 82 99 100 99 100 100 99 98 80 64 83
3 4 6 6 6 3 3 3 2 4 19 22 26 31 31 28 42 48 59 64 57 62 71 77 80 78 76 83 81 79 74 77 82 91 88 88 91 100 98 99 97 100 100 89 72 84 66
2 3 4 2 2 3 3 4 3 3 4 16 28 29 34 36 35 39 56 72 81 72 69 69 77 80 80 79 78 80 78 78 81 87 89 92 85 97 98 97 99 99 89 88 87 73 65
2 2 2 2 3 4 5 4 4 4 3 7 18 32 36 37 40 39 38 76 98 83 68 68 67 70 73 78 79 75 71 66 80 85 83 77 76 73 70 67 69 90 89 90 99 98 79
2 2 2 3 4 5 5 5 5 4 4 5 5 18 33 39 40 45 36 53 87 91 93 87 72 76 88 87 82 78 73 68 65 80 82 79 72 75 80 73 75 73 76 81 84 79 87
2 3 3 3 4 6 6 5 5 5 5 5 5 9 13 25 48 44 48 62 86 87 99 90 92 88 89 90 81 80 77 77 74 71 72 76 71 68 67 65 61 55 53 71 85 83 81
3 4 4 4 5 8 8 8 8 6 5 5 5 6 6 10 36 43 48 54 73 100 92 95 98 80 88 92 90 86 84 81 72 74 75 74 79 76 71 65 71 70 36 40 39 44 50
3 4 5 6 7 8 8 8 8 8 6 6 6 7 7 12 21 40 49 55 59 67 97 95 96 94 80 90 93 92 94 84 80 79 84 86 81 78 80 92 92 40 47 44 41 41 37
3 4 5 6 7 7 7 9 10 11 11 10 7 7 7 8 15 32 48 58 58 61 56 42 85 96 93 89 90 95 90 85 79 82 91 88 88 86 80 96 56 36 48 50 50 42 43
4 4 5 7 7 8 13 14 14 12 10 8 7 7 7 9 14 24 42 54 64 65 63 62 37 89 93 94 95 93 87 83 87 83 93 94 93 86 85 89 91 66 61 73 68 51 48
4 5 6 7 9 17 18 18 18 16 12 8 7 6 7 9 19 40 51 59 66 74 77 76 99 98 96 98 99 99 89 74 83 88 81 97 97 96 92 89 73 54 76 77 84 69 71
5 7 8 9 14 19 19 20 21 20 17 11 9 7 10 11 28 56 77 79 83 80 76 68 80 96 98 98 99 95 93 80 78 78 81 86 90 97 96 97 85 61 70 74 77 83 84
7 9 13 15 18 21 22 24 23 21 17 13 8 8 10 22 21 51 66 69 42 45 70 77 68 92 98 96 98 98 90 84 78 79 80 85 77 80 76 69 64 68 65 62 64 92 82

GFSGBSN_700_rhum_075.txt.gz
RH
9 12 11 12 27 35 15 23 24 30 23 14 22 32 20 17 46 55 25 19 24 38 57 70 67 56 89 85 93 98 88 90 61 46 60 91 66 59 81 99 90 90 88 96 100 97 96
10 13 10 12 26 34 18 20 23 29 21 14 20 32 22 20 38 35 23 26 37 47 53 50 56 63 72 86 76 97 80 80 86 30 85 92 68 62 81 72 92 100 98 92 84 97 94
10 12 10 12 28 35 31 15 19 28 19 15 20 32 26 28 25 36 31 31 35 46 52 44 46 50 65 74 73 96 98 88 85 31 59 96 80 68 72 75 86 98 91 92 83 94 96
10 11 9 11 21 32 38 12 18 27 17 14 20 30 36 29 33 31 38 37 30 32 34 32 34 36 46 64 76 88 98 97 95 44 53 99 77 75 74 84 76 94 99 99 95 90 97
9 11 9 9 18 30 35 11 19 24 16 15 21 29 39 33 38 43 38 37 44 40 33 33 36 46 49 57 52 80 82 94 64 31 85 98 67 70 86 89 88 92 91 90 79 67 68
10 11 9 9 15 30 34 11 20 25 16 19 23 31 37 44 37 45 56 48 46 45 43 40 50 66 72 53 49 49 60 95 90 61 97 98 90 66 71 79 96 96 98 87 81 64 60
11 11 10 9 14 29 37 11 18 28 23 17 19 29 32 42 43 45 54 71 69 79 79 69 67 80 75 71 53 46 59 92 89 73 97 99 94 65 56 78 84 86 80 80 90 82 77
10 11 10 10 14 30 34 23 16 27 30 25 14 19 28 34 43 51 55 53 80 91 94 77 80 75 71 73 69 47 42 83 83 99 99 100 98 68 72 98 90 76 67 81 82 84 80
10 12 9 10 12 26 31 38 13 22 29 29 27 17 19 28 40 46 54 63 66 82 98 77 70 56 67 73 50 44 50 82 92 98 98 97 95 71 81 90 92 84 83 80 78 78 84
8 12 10 8 11 20 31 32 37 15 21 23 23 30 24 22 26 41 54 60 72 73 94 96 98 85 95 58 54 46 46 84 81 93 99 97 99 80 80 82 90 84 71 80 80 80 77
8 10 11 8 12 15 22 30 28 38 16 21 20 26 32 30 23 29 44 56 63 78 89 98 98 98 82 81 52 70 76 68 65 89 98 99 94 90 75 70 83 90 93 88 84 79 78
5 9 11 8 12 14 19 23 26 25 35 18 20 23 33 30 29 29 40 50 54 62 84 98 95 97 96 73 82 68 81 77 79 96 98 99 98 99 84 72 82 85 94 92 91 84 88
5 7 10 8 12 14 17 21 23 26 24 34 20 20 28 31 23 26 39 45 55 77 81 97 99 97 92 87 80 87 80 76 86 96 99 98 99 94 92 82 86 88 87 98 98 98 93
4 6 7 8 10 16 14 18 21 22 24 24 29 24 23 32 31 27 36 42 62 89 90 94 98 100 95 97 89 92 98 98 90 87 98 96 99 97 98 88 90 90 91 84 89 96 83
4 5 6 6 7 11 12 13 14 19 18 22 22 26 27 28 32 33 37 41 68 78 83 90 86 96 97 99 97 98 99 100 94 80 77 90 91 100 86 90 79 96 94 89 82 75 84
4 4 4 5 4 2 2 2 2 4 12 20 22 26 26 25 34 37 38 48 64 77 81 83 83 85 93 96 81 84 89 88 88 82 77 73 76 93 93 92 94 90 89 98 99 95 87
4 3 3 3 2 2 2 2 2 2 8 17 21 24 30 31 32 33 42 52 57 64 69 82 85 80 80 91 91 91 87 88 88 87 81 84 78 96 98 98 99 100 100 92 95 81 80
3 2 2 2 3 3 3 2 2 2 5 8 13 16 24 28 30 33 37 46 52 57 57 74 83 80 78 87 86 87 82 82 78 95 87 82 93 99 99 98 99 100 100 99 96 91 74
2 2 2 3 4 4 3 3 3 3 3 3 5 6 13 18 28 34 34 37 56 59 60 59 74 81 83 84 81 82 84 83 83 93 88 96 98 98 99 99 99 99 94 97 99 92 75
2 2 2 3 5 5 4 4 4 4 4 5 4 8 15 14 21 33 37 51 59 66 66 66 64 73 78 81 82 77 76 80 83 89 94 96 95 74 72 66 72 93 95 99 99 99 84
2 2 2 4 5 6 5 5 6 6 5 5 6 6 6 10 21 39 40 43 57 72 84 92 82 73 83 87 88 85 79 76 75 87 91 92 87 79 74 76 76 80 82 88 100 95 98
2 2 3 3 5 6 7 7 7 7 7 6 6 7 7 7 8 11 27 42 51 61 79 78 87 90 94 92 88 89 88 82 77 71 86 86 81 74 72 75 78 75 71 71 82 81 84
2 2 3 4 6 6 7 7 9 9 10 11 8 8 7 8 8 12 14 25 46 71 76 97 91 90 88 91 94 86 88 89 93 76 76 82 82 80 79 72 76 84 45 45 46 49 53
3 3 4 4 7 6 6 9 12 14 14 13 9 8 7 6 7 13 19 28 44 56 63 62 94 98 80 95 94 96 92 94 91 92 82 87 81 83 78 86 96 42 45 43 49 41 42
4 3 4 5 6 7 7 14 15 17 17 16 12 9 8 7 7 11 21 28 37 60 68 66 59 72 94 85 98 99 96 96 90 86 82 90 92 92 82 99 60 36 36 42 45 38 43
3 3 4 5 6 6 10 16 17 18 19 15 14 12 8 8 9 10 19 34 54 69 74 68 72 65 42 89 99 97 86 87 86 92 87 96 97 93 91 96 89 62 64 66 66 53 50
4 3 4 5 6 7 14 16 18 18 20 16 13 11 8 8 8 12 36 53 82 76 83 78 71 88 64 80 98 96 92 79 75 89 93 92 98 96 97 84 75 55 60 77 80 63 66
4 4 5 6 6 11 16 17 17 18 20 19 15 13 8 8 10 18 36 50 64 72 63 59 74 73 93 100 97 97 88 81 78 72 74 73 86 98 98 97 86 62 67 74 72 78 88
6 5 6 8 9 13 15 16 16 18 20 20 16 11 8 9 11 15 44 54 66 71 69 78 62 82 100 96 100 97 98 90 80 80 74 80 76 75 72 65 60 65 68 69 66 64 92

GFSGBSN_700_rhum_078.txt.gz
RH
8 8 5 5 10 24 29 13 18 16 12 13 19 26 27 33 25 23 27 24 27 41 50 61 64 56 79 80 76 83 81 97 54 26 70 91 79 42 97 84 85 95 97 95 79 87 75
8 8 6 4 8 19 31 12 18 18 13 14 19 27 26 33 34 25 24 26 28 38 40 42 51 60 71 86 88 100 79 96 83 32 75 94 91 49 82 91 92 90 98 99 92 94 77
8 8 6 4 8 19 31 11 19 18 16 18 24 29 32 30 45 33 27 33 26 31 42 44 44 44 55 79 81 78 95 94 95 53 89 100 98 65 79 90 97 89 87 85 87 94 98
8 9 7 4 7 15 29 11 18 20 17 21 24 28 32 36 41 46 37 35 38 31 31 34 36 42 48 63 69 94 96 97 96 66 97 100 89 74 77 81 95 92 89 97 90 85 71
8 10 8 6 6 14 27 13 15 24 20 17 19 26 32 37 42 52 56 53 54 42 37 36 42 54 56 63 65 88 95 97 94 65 100 99 87 75 90 86 88 92 91 91 98 89 81
8 10 8 6 6 13 20 30 14 23 26 22 14 19 28 37 43 50 57 68 73 75 69 49 53 66 67 60 71 59 69 97 98 87 88 99 86 81 96 88 97 96 88 92 93 95 100
7 10 9 7 7 12 18 32 15 18 25 25 25 16 19 30 44 50 60 62 77 79 78 74 69 65 73 58 60 55 73 95 99 83 68 97 89 69 77 99 86 94 89 87 89 92 99
6 8 9 7 7 9 17 23 36 18 18 22 20 29 22 22 32 50 60 67 72 82 77 64 61 59 79 72 62 54 76 96 79 84 94 98 98 60 68 100 83 80 81 82 91 90 88
5 7 10 7 8 9 11 20 24 36 24 20 21 24 32 29 32 37 60 70 75 87 91 88 88 68 72 70 47 56 83 92 93 78 96 98 93 59 64 88 86 73 70 82 88 87 90
4 6 10 7 8 9 10 15 20 23 32 23 21 21 30 30 35 35 50 62 74 80 95 100 94 77 67 69 44 59 91 86 91 99 99 93 91 73 72 87 91 84 76 71 80 95 92
4 5 8 7 7 9 9 13 15 18 22 33 23 19 24 28 26 35 44 52 66 78 90 100 98 86 74 71 53 41 75 72 77 97 98 98 100 97 79 82 89 74 70 74 87 84 88
3 4 6 7 6 7 9 11 10 12 20 22 28 25 22 27 28 28 41 44 60 68 94 92 87 96 82 80 79 66 60 68 72 94 98 99 100 99 82 82 91 97 92 91 88 89 90
3 4 5 5 6 6 5 7 6 7 14 19 21 22 25 23 29 31 37 46 58 78 89 93 98 88 93 85 83 100 62 59 65 87 98 99 99 100 92 73 79 97 92 95 95 96 89
4 4 4 4 5 3 2 2 2 2 7 15 21 24 24 22 29 33 35 45 56 87 97 97 96 86 81 87 87 89 86 57 67 82 100 97 99 100 100 85 76 92 90 84 88 96 88
4 5 4 4 4 2 2 1 1 1 3 10 20 23 26 26 30 34 35 44 57 72 84 92 89 88 92 96 96 93 93 55 54 70 93 98 97 99 100 99 86 91 100 92 89 78 83
4 5 4 4 2 2 1 1 2 2 2 7 14 15 19 26 29 34 35 43 63 68 73 76 78 88 95 94 93 94 80 88 88 77 88 82 84 99 99 99 97 92 89 94 97 97 91
4 5 4 2 2 2 2 2 2 2 2 3 5 7 9 21 26 31 37 50 54 62 68 76 80 82 84 91 92 90 90 81 85 94 96 88 78 98 100 99 99 100 100 98 87 81 87
3 4 4 2 2 2 2 3 3 4 4 3 4 5 4 10 15 29 37 43 52 60 59 65 76 82 79 84 87 88 85 80 90 89 84 85 85 85 96 98 93 96 91 94 93 88 94
3 3 3 3 3 3 3 4 4 4 5 4 5 4 4 7 9 19 31 38 50 69 70 65 64 74 84 82 84 86 84 82 82 91 98 94 94 92 98 94 98 99 96 97 94 94 95
4 3 2 3 4 4 4 4 5 6 6 5 7 6 6 6 5 8 14 31 38 46 54 60 70 77 80 83 83 84 82 84 86 88 97 98 91 80 73 71 71 94 86 89 99 99 90
4 3 2 3 4 5 5 6 8 8 8 9 9 7 6 6 5 5 8 14 27 51 65 80 74 82 80 82 81 86 86 84 83 85 98 99 97 96 84 81 79 79 76 81 100 94 99
4 3 2 3 4 6 6 6 9 10 11 12 10 8 6 6 6 5 8 13 16 36 69 82 98 97 100 100 94 89 88 88 84 82 91 93 97 89 83 76 72 78 80 81 81 89 99
4 4 2 3 4 7 7 6 11 13 13 13 12 10 7 6 6 6 8 12 20 35 40 72 94 98 95 97 97 98 96 91 89 89 85 94 97 95 90 78 73 84 45 49 49 52 53
4 5 3 3 4 7 7 7 13 13 16 16 13 11 9 8 7 7 9 10 14 24 36 36 66 93 92 94 98 98 97 97 96 90 95 96 89 93 93 81 95 50 44 47 47 40 46
5 6 4 3 4 6 7 7 12 12 15 16 15 13 12 10 8 6 10 12 16 23 35 55 63 77 72 68 94 96 95 97 94 93 93 92 98 95 95 97 74 46 43 42 45 33 40
7 8 6 4 4 6 7 8 11 12 14 15 16 17 16 12 8 7 9 14 23 24 43 42 72 89 100 82 82 96 96 80 82 98 89 99 98 98 98 96 94 48 65 65 64 49 68
12 9 8 4 5 5 7 11 10 11 11 14 17 18 17 12 8 7 11 20 28 56 54 61 53 66 78 91 96 96 96 85 75 83 86 100 100 96 98 94 76 58 57 57 79 60 72
24 10 11 4 5 6 9 12 10 10 9 13 17 19 17 10 8 10 15 33 52 65 66 71 67 75 80 92 98 92 83 94 86 70 68 70 93 98 99 97 90 61 62 65 62 79 77
17 13 11 5 6 7 12 12 10 9 10 13 21 21 15 9 10 17 29 50 58 66 90 88 82 81 77 99 98 93 97 98 97 85 77 77 68 69 72 73 58 61 67 71 74 68 67

GFSGBSN_700_rhum_081.txt.gz
RH
7 8 6 4 6 12 21 9 14 14 15 18 21 23 29 31 43 32 26 26 24 27 29 36 43 49 56 78 71 98 93 97 58 89 83 98 85 43 55 92 82 99 91 96 96 80 69
6 8 7 4 6 12 21 11 13 18 16 19 18 23 26 34 41 43 35 32 27 30 35 32 32 34 46 74 78 96 90 97 64 75 76 93 94 54 58 84 87 94 91 92 96 91 76
6 8 7 5 5 12 17 21 12 20 21 15 17 18 28 32 40 53 52 45 36 31 33 32 31 30 36 71 80 91 86 96 74 55 58 83 99 65 73 81 89 83 87 97 92 95 93
6 8 8 5 5 12 13 26 14 17 22 22 14 14 20 32 44 51 62 64 62 46 38 34 35 35 38 53 78 82 88 94 67 49 88 96 99 64 88 89 86 82 90 84 84 85 82
6 7 8 7 5 8 14 21 29 14 19 20 20 20 16 24 42 54 58 73 75 79 68 47 51 53 54 65 78 98 86 90 73 61 86 97 99 77 79 89 89 94 96 92 88 85 79
5 7 8 8 6 7 14 18 30 31 17 16 17 21 26 23 30 53 63 65 76 72 65 54 61 65 74 67 87 94 100 95 88 82 93 98 96 81 97 85 98 96 86 80 76 82 79
4 7 8 8 6 7 10 15 21 27 34 20 16 16 29 29 34 39 64 71 76 78 55 58 62 68 74 64 58 64 84 92 97 85 94 99 90 79 100 93 86 86 74 79 79 79 79
4 6 7 9 6 6 8 12 16 21 24 31 19 17 25 29 33 39 55 70 77 87 84 88 64 63 68 62 52 80 88 90 98 95 97 99 96 72 79 95 90 90 74 90 91 88 90
5 5 7 9 6 6 6 11 11 14 19 20 29 20 21 27 30 38 49 63 76 84 92 99 80 49 53 54 57 95 96 99 97 83 78 97 94 81 90 97 90 96 86 86 88 87 85
5 5 6 9 7 5 6 8 8 10 13 17 22 26 22 25 30 33 45 54 75 82 89 94 92 58 47 52 91 100 95 93 77 78 82 98 99 88 83 86 86 81 84 88 84 87 89
5 5 6 8 8 4 4 5 6 6 8 13 18 20 24 24 31 34 42 50 70 78 87 86 83 45 52 50 67 88 79 79 94 68 96 97 96 76 68 63 62 85 84 80 70 74 78
5 4 5 7 7 4 3 3 2 3 5 7 15 20 24 25 30 34 41 49 58 69 95 95 91 90 72 57 62 93 78 60 82 92 98 99 100 88 80 92 91 84 81 85 90 87 90
4 3 4 6 6 3 2 2 1 2 4 6 14 20 24 26 29 34 39 48 58 76 90 92 90 99 85 69 84 100 68 54 74 86 98 99 100 98 83 90 96 95 95 94 94 95 90
3 3 4 4 4 2 2 2 2 2 3 5 10 14 18 26 26 31 37 42 57 90 96 83 87 86 94 74 84 89 76 52 55 62 86 98 98 97 99 90 80 90 88 80 93 92 83
3 3 4 4 4 2 2 2 2 2 3 3 5 9 13 18 25 27 33 42 63 77 89 95 88 85 84 94 88 78 95 69 56 58 84 83 96 99 98 98 85 75 96 92 94 85 84
4 3 4 3 2 2 2 2 2 2 3 3 3 4 6 10 20 24 30 47 59 69 77 83 85 90 91 89 100 99 85 70 57 66 79 90 91 99 95 99 98 94 78 90 95 97 92
7 3 4 3 2 2 2 2 3 3 4 4 3 3 4 6 10 13 25 37 50 55 61 70 84 83 88 95 94 90 84 75 68 70 82 82 86 99 98 96 88 100 99 94 85 82 82
12 3 4 3 2 2 2 3 4 5 5 5 4 3 3 4 6 7 14 22 34 50 64 70 66 85 85 83 85 92 90 79 79 78 78 83 93 98 94 90 96 93 96 99 88 84 92
14 4 4 3 2 2 3 4 5 6 6 6 6 4 4 4 3 4 5 9 19 37 48 73 76 73 83 88 88 86 88 84 83 85 87 88 99 98 100 97 98 94 90 86 97 87 92
31 4 4 3 3 3 3 4 6 7 7 9 8 6 5 4 4 3 3 5 11 19 33 54 72 90 86 86 93 90 88 88 88 93 98 99 99 81 72 64 70 95 88 91 87 93 87
32 3 4 3 3 4 4 4 7 9 10 11 9 8 6 5 5 5 4 4 6 10 21 34 70 99 97 96 95 87 85 97 89 93 98 98 98 96 77 82 84 84 79 80 96 88 97
31 4 5 3 3 4 5 5 7 10 11 11 11 10 8 7 7 6 6 6 6 7 12 20 28 38 87 98 90 97 95 98 97 98 91 97 98 97 96 88 82 87 76 77 77 75 88
62 5 6 3 4 5 6 6 7 11 11 12 12 11 10 10 10 8 7 7 9 10 15 27 29 48 48 77 90 97 97 85 97 98 96 95 97 98 95 90 89 92 68 55 50 48 46
83 12 6 4 3 4 6 7 6 9 10 11 11 12 13 13 14 10 8 8 12 12 17 28 34 53 56 66 70 90 95 99 98 98 98 97 98 100 96 89 95 64 56 51 50 41 47
100 27 7 6 4 4 6 7 7 10 11 10 8 11 15 15 15 10 8 9 11 14 24 32 44 62 76 88 89 86 84 97 95 99 100 86 98 98 96 98 74 53 50 53 51 35 39
99 98 32 10 5 4 6 8 7 9 11 10 7 9 15 17 15 10 9 9 14 23 36 42 66 66 75 88 97 96 84 95 82 90 94 100 99 98 99 96 89 52 64 71 69 48 62
100 99 28 11 8 5 6 8 6 8 10 9 6 10 16 18 14 11 13 14 20 34 41 52 54 61 68 80 93 99 88 82 97 97 83 96 100 98 99 95 80 60 55 54 61 54 69
100 99 53 38 14 5 6 7 7 9 9 7 7 13 18 18 13 15 14 13 26 38 37 48 58 73 68 90 99 96 97 97 97 90 74 66 93 97 100 98 89 65 62 63 55 63 79
100 99 91 33 18 6 6 7 8 10 8 7 11 17 19 20 18 18 12 14 25 39 38 46 50 59 75 79 98 97 93 94 97 96 91 92 72 69 63 59 57 61 61 66 69 74 68

GFSGBSN_700_rhum_084.txt.gz
RH
5 5 6 5 4 4 9 20 12 12 18 17 15 16 23 32 36 42 55 49 34 26 27 29 31 33 54 72 71 98 87 97 86 83 89 79 82 79 62 78 80 94 99 96 82 82 72
4 6 6 5 4 4 8 15 22 12 16 20 20 16 20 26 39 45 57 62 52 35 30 29 31 33 41 68 73 72 95 96 74 81 70 97 70 73 92 75 89 78 94 88 90 80 82
4 6 6 6 4 4 7 11 22 19 14 17 16 20 22 24 36 48 56 70 69 67 43 34 33 39 52 72 78 91 79 97 66 98 73 97 86 63 90 78 91 99 87 86 86 85 90
5 5 6 7 5 5 5 9 15 25 25 16 16 16 27 30 33 45 60 73 69 59 62 42 46 50 55 60 86 85 79 96 73 97 94 98 89 73 64 73 83 82 90 90 89 85 87
9 4 6 6 6 5 6 8 13 18 26 27 16 16 23 36 39 40 62 66 68 52 45 47 55 55 57 74 86 79 79 92 82 90 87 98 93 72 67 73 96 100 74 75 91 80 91
12 4 5 6 7 6 6 7 10 14 18 28 23 17 20 33 37 43 61 69 74 67 45 47 54 57 67 93 82 77 68 90 80 63 76 95 95 75 82 92 76 95 73 79 79 73 74
17 6 4 6 8 6 6 8 9 10 14 20 25 23 19 30 34 44 59 68 80 80 52 42 56 64 63 63 74 81 89 84 77 78 98 98 95 93 85 94 85 86 83 80 86 70 77
16 6 4 6 8 5 6 7 7 8 11 18 19 24 23 27 32 38 53 65 78 81 83 44 43 51 52 61 92 82 84 83 71 95 92 98 98 99 82 90 90 89 74 76 76 65 78
12 5 4 5 7 5 6 5 6 6 8 12 14 16 22 24 31 36 47 54 76 80 74 56 40 40 53 84 100 80 74 82 76 95 87 98 96 88 87 67 85 84 71 77 77 86 90
12 5 4 4 6 5 4 4 4 4 6 9 12 14 21 23 30 36 41 52 71 81 83 54 51 43 57 92 96 89 86 83 98 82 82 92 85 76 92 82 87 87 80 88 84 84 72
13 5 4 4 5 4 3 3 2 2 4 7 10 13 21 24 29 34 39 47 65 78 84 78 70 63 45 68 90 97 96 82 74 69 80 86 93 82 95 91 89 84 82 92 90 84 84
19 6 3 4 4 4 3 2 2 2 3 6 8 9 15 21 27 30 36 45 61 69 90 92 82 80 63 53 80 83 88 81 70 67 70 93 95 97 93 83 73 77 84 85 83 79 71
22 7 3 3 5 4 3 2 2 2 3 4 6 8 10 15 20 26 34 46 58 77 80 91 94 98 71 84 98 85 81 83 94 81 86 100 97 86 88 76 80 87 86 81 80 84 60
37 6 3 3 4 4 3 2 2 2 3 3 4 5 4 8 13 21 32 41 61 74 78 78 87 84 89 80 96 94 90 77 78 75 97 99 98 92 85 97 95 89 75 60 67 56 45
59 10 3 3 4 3 2 2 2 3 3 3 3 3 3 4 6 13 27 39 64 79 83 87 87 82 78 86 89 91 82 89 63 66 92 99 96 95 91 88 92 96 96 89 87 77 69
80 19 4 3 4 2 2 2 2 4 4 3 3 2 3 3 4 7 18 36 55 67 71 72 79 86 86 84 93 97 98 76 58 56 66 84 96 98 99 97 94 87 84 94 95 81 66
98 26 7 3 4 2 2 2 3 5 5 3 3 3 3 3 3 4 8 24 40 52 58 60 67 80 83 84 87 91 91 68 60 61 69 84 93 99 99 95 98 88 98 82 78 74 60
98 63 19 3 4 2 2 2 4 6 5 5 3 3 3 3 3 3 4 6 14 24 38 57 58 66 80 85 80 88 83 85 82 74 68 82 96 100 92 88 91 99 96 93 78 76 75
99 91 28 4 4 2 2 3 4 7 7 7 5 4 3 4 3 3 4 5 7 8 12 28 44 58 70 79 92 84 86 82 89 85 92 87 98 100 99 98 95 93 93 91 95 89 94
100 98 61 5 4 2 2 3 5 8 9 9 7 5 5 4 4 4 4 4 5 7 9 10 15 48 77 80 91 94 95 92 91 97 97 98 97 83 63 65 67 92 95 100 99 97 81
100 100 93 9 4 2 3 3 5 8 10 10 9 8 7 7 7 6 5 5 5 8 11 13 18 25 72 76 89 88 89 91 95 100 100 98 97 93 81 73 71 69 73 96 100 92 89
100 99 97 9 5 3 3 4 5 8 9 10 9 8 8 8 10 11 10 7 6 7 11 14 24 33 31 38 77 97 95 98 94 89 100 97 98 90 97 95 93 96 85 81 87 76 91
100 99 68 9 6 3 4 4 5 7 9 9 10 8 7 8 12 14 11 8 8 9 10 17 38 47 40 45 57 73 82 95 97 100 99 100 99 100 96 94 98 97 74 68 60 58 57
100 99 50 7 6 4 4 5 5 6 9 8 7 6 7 9 14 15 11 8 8 10 13 19 37 46 49 58 69 73 67 60 69 98 97 98 99 100 95 96 88 63 54 52 56 46 53
100 100 97 17 8 4 5 5 6 6 8 8 7 6 8 11 16 15 11 10 10 12 18 33 44 47 58 69 86 88 91 81 52 81 99 96 100 97 94 86 71 56 53 53 51 41 44
100 100 98 45 9 5 4 5 7 7 7 7 7 6 9 16 17 17 14 11 9 13 20 36 48 51 62 74 93 100 75 82 96 98 96 96 99 97 97 85 68 56 51 60 62 56 50
100 100 99 84 21 15 9 4 7 8 7 6 7 6 11 18 20 20 15 10 10 19 30 38 41 50 61 78 100 100 89 80 95 99 99 97 98 97 98 94 85 63 56 54 65 56 57
100 100 99 100 72 40 12 5 7 8 7 6 8 7 18 22 23 22 16 8 9 21 33 41 48 52 60 81 84 92 97 96 97 90 96 96 97 98 99 96 79 58 66 68 63 57 57
99 100 100 100 93 24 11 6 7 8 7 6 9 12 24 27 28 27 12 8 15 32 35 41 58 56 53 56 58 69 87 85 89 92 97 98 95 96 86 79 57 57 61 60 66 70 73

GFSGBSN_700_rhum_087.txt.gz
RH
8 6 8 8 7 5 7 10 14 19 15 14 14 14 19 26 28 44 54 67 64 63 38 32 31 30 39 97 71 98 77 96 93 76 94 74 77 94 82 83 92 100 87 98 76 92 80
11 8 7 8 8 5 6 10 13 18 24 21 16 15 17 30 33 41 56 67 60 54 60 38 34 34 57 94 63 69 92 98 68 66 85 78 98 99 83 72 88 98 96 93 80 73 71
21 9 6 7 9 6 6 9 12 16 23 26 21 17 16 27 34 41 56 65 56 44 41 38 43 42 96 67 78 84 92 98 73 82 87 76 90 97 86 87 85 89 90 94 92 97 80
44 18 8 6 8 8 7 7 10 14 18 20 24 20 18 23 31 38 57 67 59 34 36 47 48 45 77 63 83 93 82 97 82 79 78 76 96 83 97 96 90 78 87 93 98 98 92
63 21 17 6 7 10 8 7 9 10 13 17 21 24 22 22 28 37 57 68 59 26 31 44 49 71 97 86 78 75 81 93 84 60 70 97 93 86 96 92 93 83 70 75 86 90 90
77 34 17 9 6 8 8 7 8 9 10 14 18 22 23 23 29 37 54 68 67 31 31 37 58 94 92 84 74 69 74 84 88 86 90 98 98 94 93 82 73 74 55 51 59 90 89
96 45 24 10 5 7 9 7 7 8 7 10 14 17 18 23 29 36 49 65 64 43 29 36 43 50 66 85 74 59 72 81 78 97 94 98 94 93 80 74 69 55 55 45 48 78 90
99 94 29 8 5 6 8 7 7 6 5 6 12 14 17 22 28 36 43 63 49 38 44 35 44 59 70 74 83 60 76 89 78 99 82 99 98 95 79 75 83 77 55 57 68 83 81
100 94 35 10 5 5 6 6 6 4 4 6 11 14 15 21 26 34 41 61 71 46 60 42 45 77 88 74 56 82 68 71 100 99 82 96 98 98 97 89 77 72 62 77 66 78 82
100 100 43 10 5 4 5 5 4 3 3 6 10 10 12 18 22 31 41 57 68 71 65 62 63 45 49 89 96 78 86 79 99 91 71 84 79 77 90 80 74 67 69 64 69 74 61
100 98 89 11 4 4 4 4 2 2 2 6 7 7 9 15 19 29 39 50 65 76 86 71 58 43 58 63 63 92 90 93 97 67 90 90 98 90 88 74 76 68 73 81 79 73 71
99 99 96 17 4 4 4 3 2 2 3 4 5 4 6 9 13 24 38 48 60 76 86 73 68 60 67 47 69 81 86 80 99 88 79 90 82 97 83 90 79 92 81 80 82 79 91
100 98 98 20 5 4 4 3 2 2 3 4 3 3 3 4 8 19 33 47 61 91 68 77 94 93 56 84 74 78 92 94 97 95 86 81 96 94 98 97 86 88 71 73 78 87 64
100 100 99 25 4 4 4 3 2 3 3 3 3 2 3 2 5 14 28 41 75 68 71 75 81 80 100 78 98 85 100 99 99 93 98 91 98 93 84 92 85 79 71 57 59 47 39
98 100 100 40 5 5 3 3 2 3 4 3 3 2 2 2 3 7 18 30 52 66 76 83 92 98 90 87 89 100 88 80 77 96 97 93 98 90 80 95 92 84 82 68 74 63 52
100 98 100 58 5 5 3 3 2 3 4 4 3 2 2 2 2 4 7 15 26 44 58 71 91 87 70 93 90 99 88 74 74 85 96 98 98 99 86 78 88 99 89 87 85 69 53
100 100 100 55 7 5 3 4 2 4 5 4 3 3 3 2 3 3 4 6 10 18 33 46 83 83 80 76 90 98 86 81 74 84 87 84 82 99 95 93 87 98 99 95 84 53 49
100 100 100 78 10 5 4 4 3 6 6 5 4 4 3 3 3 3 3 4 5 6 12 24 26 40 83 78 78 86 85 90 93 94 94 78 97 97 88 90 82 92 90 87 72 65 64
100 100 100 97 28 5 6 3 3 6 6 7 5 4 3 3 3 3 3 4 4 5 7 12 22 47 78 85 76 72 84 84 95 99 94 89 92 94 98 99 97 98 97 96 86 68 96
100 100 100 98 44 6 4 2 3 7 7 7 6 5 5 4 5 6 5 5 5 5 6 10 14 37 89 79 78 77 78 78 86 93 98 100 88 79 74 83 75 94 95 96 95 100 80
100 100 100 99 51 9 9 2 3 6 8 7 7 6 6 6 7 9 10 10 7 7 6 9 24 76 91 81 60 55 59 72 85 82 99 98 98 96 92 94 85 66 70 92 95 88 90
100 100 100 100 69 23 7 3 4 6 8 14 7 6 6 7 8 10 13 11 7 7 8 21 55 54 70 72 59 69 89 72 98 97 91 98 98 91 94 98 97 87 72 92 92 93 100
100 99 100 99 99 45 5 3 4 5 8 9 9 5 6 6 8 13 14 12 8 8 8 10 19 30 36 61 47 50 57 76 56 93 97 98 98 97 98 92 97 98 74 73 78 84 85
100 100 100 100 100 27 15 4 4 4 7 8 7 6 5 6 11 15 17 13 10 8 9 15 26 36 41 54 58 61 69 75 69 83 52 87 96 95 96 98 92 60 58 55 78 77 74
99 100 100 100 100 75 15 4 4 4 6 8 7 6 6 7 13 18 20 19 13 8 9 17 26 34 38 56 63 89 99 95 89 47 38 53 94 98 93 82 58 61 54 48 52 48 44
100 100 100 100 89 24 20 5 4 4 7 7 7 6 7 8 16 22 23 22 10 8 12 20 34 35 42 57 85 98 63 82 94 100 87 83 97 98 97 95 60 54 52 53 56 54 44
100 100 100 100 99 38 16 16 5 5 7 7 7 6 8 10 20 24 28 21 9 9 15 23 38 38 48 64 95 98 92 89 88 97 98 98 100 98 96 82 72 68 53 53 62 61 59
99 100 100 100 46 28 22 24 6 7 20 7 7 6 8 16 25 29 26 13 9 12 20 25 43 45 46 72 82 96 100 99 88 94 92 95 96 97 98 98 73 67 64 72 74 65 61
99 100 100 100 90 55 45 9 6 8 8 8 8 6 9 25 28 26 24 16 8 17 24 31 48 53 51 52 52 49 90 81 96 77 79 97 97 94 91 81 70 67 69 60 63 69 71

GFSGBSN_700_rhum_090.txt.gz
RH
50 35 23 9 6 8 6 6 7 8 12 19 24 21 18 20 28 32 41 58 54 37 43 40 33 32 58 99 65 82 84 82 91 81 80 95 98 96 93 81 79 100 91 96 90 98 84
54 60 51 22 8 8 8 6 7 7 10 14 20 22 21 22 26 29 46 62 42 24 33 37 41 40 82 66 65 61 89 79 95 95 98 83 94 87 87 84 94 83 97 92 98 88 88
99 99 72 34 15 7 9 7 6 7 9 11 16 21 23 22 25 30 48 62 34 21 34 39 39 57 77 58 69 96 93 83 95 97 96 94 92 96 84 84 92 73 92 97 94 98 88
100 99 100 62 26 11 8 8 6 7 8 8 13 18 22 22 24 30 45 64 32 22 34 42 58 80 72 80 74 73 80 74 81 90 85 85 79 92 79 83 84 63 99 98 88 82 84
98 100 99 94 49 16 7 9 6 6 7 7 11 14 17 22 24 30 42 64 23 22 32 51 74 82 82 74 74 74 79 93 63 76 77 81 86 76 78 79 81 91 84 88 94 100 88
99 99 99 99 54 20 8 9 6 6 7 5 8 13 16 20 22 30 39 59 24 22 40 40 88 85 64 73 74 66 81 85 94 78 72 71 77 69 67 89 88 78 67 71 82 84 91
88 100 99 100 98 46 8 8 8 5 6 4 6 13 17 19 22 27 39 51 28 29 40 52 54 63 61 64 60 69 76 99 87 62 78 86 83 75 76 85 64 68 64 54 62 69 80
76 94 100 100 99 66 10 8 8 5 5 4 6 12 13 17 22 24 37 54 27 34 37 66 69 57 56 46 53 63 74 96 86 87 93 98 95 85 77 74 75 64 62 53 70 76 77
100 82 100 97 100 67 13 7 8 5 3 3 7 8 11 12 20 22 33 50 56 50 55 42 63 62 52 45 50 57 66 82 97 94 98 90 90 85 88 77 80 79 60 56 71 87 81
93 98 96 98 100 99 24 8 7 5 2 3 6 6 8 9 15 19 32 43 58 62 62 59 47 42 58 44 53 61 68 74 86 96 89 84 97 91 87 86 76 75 66 80 77 76 70
100 99 100 97 100 100 32 8 8 4 2 4 5 5 5 4 10 17 28 41 54 67 87 58 39 40 52 53 51 73 59 66 84 90 83 96 83 80 91 79 77 72 65 71 71 76 66
100 98 100 100 99 99 30 8 8 3 2 4 4 3 3 3 7 15 25 40 50 80 80 69 47 46 84 48 59 65 69 80 80 96 79 92 86 84 84 89 71 90 79 78 76 75 90
100 96 99 100 99 100 35 7 9 2 3 4 4 3 3 2 6 13 22 39 60 84 55 57 95 95 60 92 82 79 92 83 90 99 83 61 75 76 70 88 88 84 83 80 90 87 90
100 100 90 100 97 100 60 8 10 2 4 4 4 3 3 2 4 8 16 31 62 63 58 62 74 92 93 91 96 86 94 99 87 96 96 70 86 79 73 85 86 79 78 66 73 75 59
100 100 99 100 98 100 73 8 8 3 4 4 4 3 3 2 3 4 13 14 19 44 46 61 96 95 88 94 81 96 95 86 94 88 89 96 89 74 76 81 97 78 77 66 96 64 58
100 100 100 97 100 100 76 9 7 5 4 4 4 3 3 3 2 3 3 5 7 11 25 37 83 82 72 78 86 91 79 76 76 85 92 96 98 91 89 90 90 82 67 77 91 89 62
100 100 100 96 100 100 66 10 8 7 5 5 4 4 4 3 3 3 3 4 4 4 6 14 42 76 74 71 76 86 75 71 83 76 91 90 98 97 100 90 98 88 82 89 81 61 74
99 100 100 96 99 98 86 12 7 8 7 6 4 4 4 3 4 3 3 3 3 4 5 7 8 15 34 70 70 69 82 71 78 94 94 89 98 91 76 83 83 99 90 98 95 81 64
97 100 100 98 98 100 70 12 6 11 8 6 6 4 4 3 3 4 4 4 4 4 5 7 14 29 64 70 79 60 65 84 90 88 98 97 95 97 99 99 97 94 88 100 91 84 82
98 100 100 98 98 100 72 12 7 12 7 6 7 5 4 4 4 6 7 8 9 6 6 8 12 34 50 83 72 68 67 72 84 76 78 96 98 83 71 70 80 92 78 83 95 98 81
99 99 100 100 96 98 94 14 8 12 7 10 7 6 5 6 6 7 8 11 11 8 7 8 15 68 75 86 72 62 58 55 55 62 93 99 97 94 86 72 89 88 97 86 92 92 90
98 99 99 100 100 99 97 18 10 20 8 9 8 8 5 6 6 7 10 13 12 8 9 11 26 35 23 36 68 64 55 61 81 41 80 98 98 95 87 92 87 96 89 94 79 81 84
96 99 100 99 99 99 66 18 9 7 8 9 17 36 7 6 6 8 14 16 15 12 11 9 10 15 24 28 34 49 56 57 67 57 62 93 95 96 97 93 99 97 76 73 73 77 82
98 98 100 98 100 99 98 17 10 7 8 9 26 32 12 7 8 11 18 19 18 15 10 10 15 23 28 29 43 48 56 74 87 71 77 53 66 82 97 96 97 61 59 52 67 59 63
95 100 100 99 100 100 62 20 12 10 9 8 11 11 7 7 8 12 21 23 22 14 9 11 19 31 31 33 43 59 95 92 93 100 100 46 50 78 98 96 76 62 58 56 60 56 62
96 99 98 100 99 100 95 34 29 14 9 8 10 9 7 6 8 15 21 24 22 11 10 10 22 31 32 35 52 86 78 82 93 97 85 94 66 99 100 93 88 60 55 56 58 52 52
98 100 99 100 100 100 100 76 26 13 8 7 18 20 9 6 8 16 24 24 17 13 10 17 25 35 34 36 92 92 89 85 97 94 99 99 99 100 99 95 78 69 64 54 56 71 69
99 98 98 99 99 100 99 60 69 13 10 8 16 16 9 7 9 20 26 23 20 13 11 22 30 44 41 43 54 92 99 93 79 91 98 97 93 95 99 95 89 69 68 68 80 79 70
98 100 100 99 99 100 99 83 54 21 12 8 22 21 9 8 14 26 24 25 24 13 13 22 31 46 48 47 50 48 56 72 84 82 92 87 95 100 95 92 90 76 75 65 72 71 74

GFSGBSN_700_rhum_093.txt.gz
RH
73 81 78 76 79 42 15 9 11 8 6 6 8 13 18 19 20 24 34 52 21 17 28 35 35 38 67 48 58 66 71 70 56 80 75 99 96 98 86 74 92 98 97 100 99 98 86
77 87 90 97 90 80 51 9 11 10 7 6 6 11 15 16 20 24 34 48 14 19 31 43 42 68 46 53 88 89 71 66 60 70 81 97 99 96 96 87 86 91 96 100 100 96 92
100 82 83 97 100 96 75 20 9 11 8 6 5 9 13 15 20 26 33 38 14 20 34 55 66 56 59 72 83 78 63 68 78 99 92 98 96 88 93 86 88 99 98 100 96 97 96
99 100 85 98 93 100 75 40 10 12 9 6 4 7 12 16 20 26 34 28 17 24 33 54 51 56 62 74 75 68 53 65 91 97 87 90 92 97 88 89 83 78 91 95 94 92 100
97 99 100 87 100 98 99 85 15 13 9 7 4 6 11 14 19 27 34 29 20 33 36 45 38 54 62 72 74 65 67 84 85 88 86 87 85 79 94 96 97 88 86 73 86 87 99
94 100 99 100 93 100 100 87 39 12 10 7 4 7 9 14 19 25 32 26 20 31 36 32 42 69 62 61 67 70 62 76 75 82 77 70 78 74 77 83 87 85 75 92 83 83 87
95 100 99 99 100 94 99 98 62 12 11 8 4 7 8 11 18 22 30 28 22 30 32 42 51 57 58 62 63 65 64 77 65 64 62 77 82 77 73 57 53 66 76 76 62 88 83
95 98 100 97 100 95 98 99 58 14 12 7 4 8 8 8 16 21 30 38 36 24 30 40 46 53 48 48 59 65 80 74 69 70 65 65 67 77 75 67 74 71 70 56 73 67 87
38 99 98 100 100 100 100 100 98 37 12 7 4 7 6 6 12 18 27 35 39 34 27 30 40 40 43 48 50 58 72 71 76 83 78 78 74 90 82 78 79 74 66 66 64 81 92
2 76 88 100 98 100 91 99 100 36 11 6 6 6 4 4 10 17 25 31 39 51 33 35 32 35 41 43 54 55 60 62 68 83 96 83 90 81 88 85 77 78 74 66 69 75 86
3 6 75 100 100 99 100 99 100 48 11 5 8 6 3 3 8 15 24 29 39 49 70 47 33 36 46 46 47 59 65 70 66 74 84 82 83 90 86 76 87 81 81 77 77 86 74
5 3 49 96 100 100 100 90 99 71 12 5 8 5 3 4 7 12 19 26 34 61 64 48 48 41 46 69 52 53 57 64 76 77 79 85 84 81 84 79 80 79 89 82 94 89 85
9 7 11 94 100 99 98 99 88 73 13 5 9 4 3 3 7 10 17 24 35 36 45 46 58 67 53 67 59 70 69 78 82 90 96 75 81 83 76 80 86 76 88 92 90 96 87
10 8 6 90 100 100 97 100 96 87 12 8 8 4 3 3 5 8 10 21 15 23 34 37 50 52 68 72 84 87 86 92 99 99 97 80 64 62 69 71 81 82 80 73 81 95 71
17 16 15 61 100 99 97 100 100 83 12 10 9 4 3 3 4 5 11 6 4 9 14 26 52 61 75 83 84 86 76 76 83 95 94 92 82 65 62 67 82 78 82 74 80 82 73
38 26 94 34 100 100 96 100 99 83 13 10 12 4 3 3 3 4 6 4 4 4 6 16 26 54 72 74 91 89 72 62 82 82 85 91 96 70 78 81 92 81 75 78 84 94 78
29 40 100 29 99 100 100 100 93 60 15 10 12 5 4 3 3 4 4 4 4 4 4 8 15 30 56 55 75 79 79 70 69 80 94 95 97 92 95 89 81 95 90 78 77 70 74
37 31 98 97 97 97 100 100 96 86 11 11 11 8 7 4 5 3 3 3 3 4 5 6 7 13 23 38 39 65 69 72 78 79 84 98 98 98 92 97 97 94 85 78 76 86 64
48 65 89 96 98 100 100 100 100 52 8 12 15 6 8 4 4 4 5 5 6 6 6 6 8 12 38 72 79 59 60 69 79 78 95 89 98 96 99 99 98 99 98 82 81 88 75
98 97 96 88 99 100 100 99 72 30 9 19 14 7 6 4 6 5 6 7 10 10 8 8 10 19 27 54 61 85 76 73 74 82 82 88 96 98 92 97 89 98 90 99 90 98 84
99 96 100 97 98 100 99 99 90 30 11 18 11 8 6 6 4 4 6 8 12 12 11 10 13 25 50 80 70 49 50 49 59 59 56 72 99 92 95 97 93 97 92 97 98 92 86
99 94 100 97 99 98 99 100 97 29 14 18 10 9 6 6 6 6 7 12 16 15 14 13 11 14 23 35 32 31 36 45 48 45 50 95 76 95 92 69 91 100 83 95 95 90 90
96 97 99 99 98 100 100 100 89 14 14 16 10 12 16 6 6 6 11 18 22 20 17 14 10 11 16 26 29 40 51 50 63 68 62 66 87 84 89 78 97 99 79 73 74 74 74
89 100 91 99 99 99 99 98 86 25 15 11 12 34 47 39 7 8 12 21 22 22 20 11 10 13 21 25 29 42 52 71 89 100 89 70 54 59 78 99 96 68 60 59 63 64 71
78 69 79 98 100 100 99 99 94 16 15 18 20 46 51 41 10 8 12 20 23 24 15 12 12 15 26 26 32 53 74 75 92 100 97 84 63 54 85 97 89 68 65 60 57 53 73
71 63 67 80 100 100 100 95 97 24 15 14 20 45 30 35 15 8 12 20 23 20 20 14 12 18 27 27 38 72 88 90 91 98 84 89 91 86 96 94 85 66 53 62 60 57 57
77 77 59 68 98 100 100 99 79 27 15 15 16 16 13 25 17 8 11 20 22 20 20 11 14 21 30 32 42 76 84 82 88 95 94 95 97 99 99 97 68 67 73 64 56 72 76
58 53 51 90 99 98 99 98 82 23 19 19 14 14 15 13 8 8 12 24 22 26 23 16 17 26 35 36 38 45 49 64 78 95 92 96 96 97 95 94 92 81 79 73 79 81 78
91 98 42 83 99 99 99 99 57 22 25 23 36 15 20 17 9 9 18 23 25 27 22 13 16 27 39 42 43 46 49 50 55 75 98 96 92 96 98 96 95 96 94 95 91 87 78

GFSGBSN_700_rhum_096.txt.gz
RH
98 98 99 99 100 98 80 81 38 12 11 8 7 6 8 9 15 20 26 18 16 23 32 33 33 34 40 70 95 70 63 53 51 71 95 100 99 98 94 73 98 99 100 97 94 75 70
93 96 94 100 100 100 100 83 98 66 13 10 8 6 8 10 15 21 27 16 22 24 17 16 22 38 68 91 97 99 65 59 68 62 69 100 98 100 97 79 92 100 99 100 97 89 84
88 92 94 96 99 100 100 100 95 87 21 14 8 7 8 10 15 21 29 16 24 19 14 22 38 63 70 81 93 92 64 58 64 50 83 92 99 93 98 90 85 98 99 100 99 99 96
84 89 98 97 96 100 100 100 100 100 82 14 10 7 10 10 14 20 30 17 21 16 15 25 40 51 62 83 100 91 68 74 92 54 70 95 99 96 90 91 80 70 89 99 100 98 100
27 58 88 99 99 98 99 99 100 99 97 20 12 7 10 10 13 19 30 19 20 14 20 29 34 42 59 73 90 69 83 88 100 85 74 71 93 92 87 85 82 96 92 99 98 94 99
4 9 54 86 100 93 99 100 99 100 97 36 13 7 10 9 12 18 29 22 21 16 20 22 24 28 49 67 68 67 76 83 98 86 91 81 87 98 86 88 89 91 83 72 86 88 99
4 4 5 37 82 100 87 100 100 100 99 68 15 7 10 8 12 18 28 27 22 22 20 21 28 32 45 53 66 68 67 77 81 80 77 77 80 90 90 84 78 73 70 78 82 92 85
3 3 3 4 52 92 100 100 100 99 92 100 23 7 9 7 11 17 26 38 28 19 23 26 28 34 43 51 58 66 75 64 66 70 74 74 74 80 75 71 73 83 69 60 63 58 58
4 5 4 4 9 58 96 100 99 99 95 97 23 8 9 7 10 16 26 36 41 21 22 25 28 31 34 42 48 60 71 64 71 79 66 60 74 75 75 73 82 78 79 66 52 48 80
14 8 9 8 4 23 87 100 100 100 100 100 20 9 8 6 11 16 26 33 39 43 23 24 26 28 27 36 45 52 64 68 71 74 76 74 72 81 76 82 83 78 73 70 69 72 91
19 18 9 11 11 4 62 100 100 100 96 99 33 9 8 5 7 16 26 32 42 46 52 39 26 25 31 27 34 44 54 65 64 78 81 82 82 80 79 81 79 81 82 71 69 72 79
26 23 20 10 11 6 6 98 100 100 99 100 45 9 8 6 8 16 27 35 45 50 40 38 43 31 28 37 36 38 43 48 66 70 77 76 78 75 79 86 87 82 81 90 93 90 93
27 27 22 17 13 9 6 56 100 100 100 100 33 10 7 5 8 17 28 35 43 34 28 27 37 45 45 34 54 56 48 55 64 75 72 77 79 75 77 85 86 92 97 99 99 98 92
48 35 25 18 15 10 9 34 100 100 99 100 38 11 7 5 7 17 29 34 32 10 14 17 30 37 50 58 65 69 71 64 74 98 94 87 69 72 71 80 79 85 77 90 83 92 77
65 51 26 17 14 11 10 24 99 99 99 100 46 11 8 4 7 18 26 25 4 6 7 10 30 45 65 72 70 89 80 68 77 80 84 92 83 63 59 68 78 84 83 83 80 89 77
71 51 27 31 33 21 11 33 99 100 100 98 21 12 7 5 6 17 24 8 4 4 5 6 9 23 38 59 58 90 82 61 70 79 82 89 96 74 69 72 78 82 76 94 95 97 85
84 60 31 39 41 27 23 76 97 99 99 57 22 18 8 4 5 14 16 6 4 4 4 6 7 16 50 67 70 83 84 76 81 81 82 86 97 90 88 84 70 91 87 82 79 77 82
79 44 28 26 26 41 79 89 98 99 99 95 25 21 10 4 8 9 5 5 4 4 5 7 8 11 20 28 46 79 78 76 74 94 93 87 92 98 82 84 78 86 78 81 77 84 69
59 41 36 34 24 58 99 99 97 99 99 90 23 19 13 5 7 5 4 4 5 7 8 8 9 12 22 35 46 60 63 80 81 84 87 82 97 98 92 100 99 96 99 87 85 74 68
47 77 80 56 48 92 99 98 98 99 99 76 29 18 25 10 7 5 6 8 9 11 10 10 12 15 25 31 63 68 77 80 79 78 75 79 87 83 96 98 99 99 97 97 98 97 81
61 74 88 100 57 98 99 90 98 99 99 51 34 18 32 10 6 6 7 9 11 14 16 15 16 13 15 22 34 49 54 60 57 44 46 56 86 83 68 80 97 95 98 95 98 95 86
92 97 97 94 97 98 96 98 99 99 98 43 24 20 10 9 6 7 7 8 16 20 19 19 17 13 15 19 22 28 30 43 49 59 62 69 93 78 50 55 84 79 73 96 98 98 96
96 97 96 99 100 97 98 96 99 99 80 32 18 17 22 9 7 6 7 12 21 20 19 22 16 12 14 21 28 29 41 48 68 94 90 68 94 90 66 70 98 100 86 71 71 78 75
97 100 95 96 98 83 89 98 98 98 65 24 16 23 18 8 8 6 8 15 22 20 22 19 13 12 14 26 25 38 55 70 84 100 97 68 64 78 62 98 97 85 75 65 69 67 76
78 97 96 92 100 77 92 99 99 98 86 25 21 27 33 30 18 12 9 13 20 21 20 19 16 12 20 23 27 53 72 77 93 98 85 68 80 67 84 95 86 70 71 68 67 64 58
59 71 77 93 99 100 90 99 99 99 84 36 27 27 36 46 42 12 8 12 19 20 18 21 14 13 25 25 31 50 74 79 90 96 62 86 100 98 99 98 85 78 66 67 64 64 65
51 71 65 72 91 96 98 99 99 99 96 42 29 40 56 64 29 17 10 11 19 19 23 27 18 14 25 29 28 44 74 71 84 87 87 82 94 87 76 94 75 79 78 66 69 85 88
46 58 62 53 82 97 99 99 99 99 92 41 27 47 54 53 31 22 10 9 18 20 26 24 20 15 25 32 32 34 43 55 72 89 92 86 91 94 94 94 88 82 81 77 85 99 88
42 46 48 49 48 97 98 99 99 99 72 32 28 27 48 39 17 10 8 8 20 20 26 24 20 16 28 36 36 40 45 46 45 64 88 96 93 95 97 89 90 90 90 90 91 90 96

GFSGBSN_700_rhum_099.txt.gz
RH
43 71 81 82 90 87 92 100 93 100 99 98 37 10 7 7 12 16 25 15 16 15 20 30 37 42 51 59 80 60 56 58 65 65 98 99 98 94 90 75 98 99 100 100 76 62 57
8 22 46 74 83 88 86 87 100 99 100 100 80 14 9 7 12 18 26 16 14 15 23 29 34 41 53 55 78 61 52 53 49 65 96 85 87 86 77 84 96 99 100 100 98 72 64
5 5 14 41 78 87 96 75 100 99 98 100 94 16 12 8 12 19 27 17 13 16 23 28 32 38 50 45 79 77 61 50 69 86 97 92 94 90 86 80 85 95 99 100 95 81 75
5 5 4 8 38 80 90 94 74 97 100 96 100 29 14 7 12 19 28 18 13 17 22 28 33 36 41 42 55 76 69 60 51 84 82 88 98 87 84 92 92 76 98 99 100 95 82
3 4 4 4 6 34 74 95 77 95 98 100 99 61 13 8 12 19 29 20 14 22 22 23 26 30 36 38 55 76 78 70 45 52 85 98 99 85 79 98 95 99 95 91 96 100 100
2 2 2 3 4 6 49 81 94 93 100 100 100 90 22 8 11 18 30 22 18 18 17 17 23 26 36 41 43 59 75 80 77 66 84 100 100 98 86 83 68 77 82 98 88 99 99
3 3 3 4 4 4 9 44 89 93 100 95 100 100 42 8 10 16 28 28 23 24 22 17 25 28 35 48 48 57 64 72 67 80 80 84 97 97 94 84 73 82 62 75 82 71 86
4 5 8 8 8 8 6 24 64 100 100 98 100 100 43 9 11 14 25 35 26 22 26 25 23 26 33 46 51 52 63 68 68 66 80 79 86 96 94 82 79 82 77 75 82 74 90
7 7 8 9 13 10 9 5 48 99 100 100 100 100 49 10 11 12 24 36 39 25 26 25 24 24 31 37 46 57 60 60 61 57 59 71 73 85 88 86 76 83 79 71 67 69 83
12 13 11 10 10 15 13 10 5 48 100 99 98 100 37 10 14 15 23 36 43 47 29 23 24 24 24 27 38 52 63 62 66 68 62 58 54 69 77 81 83 82 82 77 67 75 96
11 13 14 13 10 10 18 14 10 6 59 99 99 99 69 9 15 14 23 35 47 57 61 29 24 24 26 26 29 32 48 60 62 72 72 74 70 57 68 78 84 80 81 76 73 84 84
20 20 15 20 25 18 18 19 17 10 12 99 99 99 72 14 14 11 28 39 50 60 43 31 37 31 27 31 33 31 40 51 68 70 84 78 82 78 82 74 83 86 83 81 79 88 96
36 38 42 38 36 32 26 23 21 12 8 87 99 99 47 15 14 14 32 41 52 74 20 29 32 32 42 28 43 47 48 52 59 71 72 70 72 74 72 79 84 88 86 96 98 98 91
94 86 81 68 49 45 34 27 20 15 16 46 99 99 39 18 12 20 36 45 65 12 16 12 22 24 37 44 50 52 48 55 65 83 82 75 61 67 72 71 82 87 81 83 89 95 94
88 88 86 79 49 45 38 30 16 33 82 72 99 99 45 18 14 28 40 49 14 9 10 9 21 30 40 55 60 76 70 61 66 76 79 91 78 72 72 75 91 95 92 86 98 92 79
86 89 86 89 58 47 40 32 20 60 100 82 98 99 46 21 20 35 43 28 9 7 8 10 11 19 32 52 48 72 72 58 66 76 82 85 90 71 72 80 88 96 86 97 99 96 92
88 91 90 96 82 56 26 29 25 72 100 97 98 99 54 26 26 43 34 23 8 7 8 10 9 11 23 40 54 68 76 74 83 82 89 96 96 82 80 82 73 93 95 91 93 86 91
91 90 97 95 79 46 28 34 26 97 100 98 98 90 37 37 30 31 17 16 7 6 6 7 8 10 14 25 34 71 90 87 83 83 81 86 93 99 78 75 79 90 90 89 83 93 82
96 96 88 89 56 40 25 28 46 100 99 98 98 69 52 41 21 14 13 8 7 6 7 10 8 11 16 27 32 54 74 71 75 78 85 88 97 96 89 94 96 98 94 95 98 84 78
79 86 65 50 80 66 24 26 94 98 99 95 98 91 73 39 16 13 10 5 7 10 11 12 12 15 16 19 24 38 67 76 83 82 85 83 76 84 91 87 93 96 97 91 98 98 83
31 42 52 62 94 72 33 40 98 98 99 98 97 68 23 22 13 26 9 8 10 14 17 17 20 17 14 20 21 35 55 74 62 44 40 44 86 88 73 72 74 68 88 98 98 97 90
33 72 92 95 97 90 84 97 98 100 99 98 96 50 26 22 20 16 8 9 12 18 18 20 22 16 13 16 20 27 31 34 40 57 79 80 74 99 63 52 51 62 75 80 96 98 98
58 78 97 96 97 95 97 98 92 93 97 98 97 44 20 29 18 12 6 9 18 20 18 21 18 13 11 14 23 25 32 44 57 85 93 85 78 96 86 93 78 84 70 73 71 84 88
50 74 79 99 96 98 98 98 95 84 96 98 80 33 27 16 14 8 7 11 21 19 18 19 19 16 12 21 25 32 47 61 79 94 67 72 70 83 70 93 88 87 93 82 78 79 79
44 67 68 75 94 96 99 100 87 96 98 98 52 34 23 37 11 8 8 13 21 19 18 18 20 15 13 25 29 54 70 71 78 89 61 56 68 79 94 100 78 77 74 78 86 94 88
42 58 70 74 94 99 98 84 95 98 98 99 37 37 22 13 10 16 8 12 17 18 15 23 26 15 13 24 32 50 55 69 90 97 60 53 72 96 97 100 95 83 82 74 74 94 92
37 52 64 65 69 89 100 97 96 98 98 93 38 34 32 32 50 42 9 10 14 18 15 24 24 22 15 24 30 40 49 60 80 90 82 58 61 74 87 95 58 73 78 78 78 78 94
31 48 52 72 76 96 98 97 97 98 97 91 41 32 42 48 49 32 11 11 13 17 17 20 23 19 13 26 32 32 39 43 55 71 77 80 95 98 95 98 81 72 77 86 79 97 98
27 43 44 64 61 84 97 96 98 99 99 69 40 31 49 72 65 52 15 10 11 14 16 21 23 24 13 25 33 36 38 40 44 51 72 85 78 87 92 82 82 78 83 84 88 91 91

GFSGBSN_700_rhum_102.txt.gz
RH
7 6 6 6 12 44 75 85 90 80 82 98 100 100 97 14 6 9 17 23 15 19 19 26 28 36 44 48 43 49 50 58 55 76 76 85 94 84 99 66 58 81 98 100 100 96 62
7 6 6 6 5 7 21 68 89 99 86 99 99 100 99 48 8 9 16 23 16 20 18 23 26 31 35 54 50 57 63 66 69 94 88 95 97 96 77 67 57 94 96 100 100 100 64
5 4 4 4 4 4 6 30 88 87 99 98 97 100 100 72 11 9 15 23 18 18 18 22 26 26 32 39 44 89 99 87 62 66 72 91 86 90 81 67 46 96 99 98 100 96 78
3 2 2 2 2 3 4 8 50 89 94 95 100 99 100 90 16 10 15 24 19 19 21 20 22 26 33 35 55 92 90 97 83 70 86 94 91 90 82 76 85 89 94 93 100 100 95
3 2 2 2 3 3 3 4 14 58 96 99 96 98 88 100 32 12 12 26 21 21 20 17 19 22 31 34 45 70 94 100 94 100 99 99 95 80 75 68 53 87 88 89 96 99 92
4 3 3 4 5 6 6 5 6 21 70 96 91 100 97 100 41 14 12 24 25 21 18 17 18 20 26 34 34 55 76 92 97 97 99 99 98 91 90 47 88 91 75 79 69 96 96
3 3 3 4 5 10 9 9 10 8 14 93 100 67 100 100 57 16 14 24 30 26 20 23 18 22 30 38 34 42 56 70 77 94 96 91 87 98 100 94 82 86 85 85 58 73 86
3 3 3 3 3 4 10 11 10 12 7 12 97 100 99 100 96 17 12 21 35 30 26 26 23 22 28 38 36 47 39 53 61 64 90 93 89 86 96 88 94 96 93 98 99 96 85
3 4 5 5 6 6 9 10 10 18 10 10 20 100 100 99 91 19 15 22 36 41 28 26 25 23 26 33 36 43 48 47 50 58 61 79 82 92 92 95 88 87 92 89 77 98 94
5 6 7 7 8 10 12 10 12 15 20 15 10 64 99 98 66 22 23 28 42 45 43 25 24 25 25 25 34 39 53 55 55 59 59 55 58 69 78 82 80 85 80 80 78 76 84
8 10 10 14 16 14 20 16 18 22 25 22 12 48 99 98 70 22 27 38 48 52 80 26 24 24 24 24 29 33 40 50 50 54 58 66 68 59 62 67 80 82 80 77 77 86 88
12 28 20 31 52 42 47 36 40 36 31 24 22 32 74 99 90 24 26 46 54 59 75 32 29 28 25 24 26 30 31 38 45 48 52 55 74 77 73 71 76 85 80 80 79 95 95
15 22 32 66 96 89 91 78 56 42 33 23 21 98 89 98 57 24 31 58 63 73 24 33 30 32 36 28 29 41 33 40 49 53 51 48 58 75 81 89 84 88 84 96 97 99 92
22 26 34 48 92 89 87 95 60 44 27 20 19 82 78 98 54 29 38 73 78 28 23 23 23 28 35 36 41 46 44 50 56 67 77 72 58 60 75 80 91 91 80 76 88 97 94
35 43 72 76 93 91 91 95 75 47 28 98 89 100 84 98 48 39 58 86 34 17 19 15 25 29 34 39 41 60 53 56 62 70 75 83 79 72 69 79 91 98 95 80 80 87 84
44 78 91 86 90 97 94 95 69 51 28 96 99 98 100 96 55 66 76 60 41 15 14 14 15 26 28 34 38 43 51 61 72 79 85 89 91 64 71 80 88 100 93 97 96 97 95
90 92 93 93 90 94 95 93 68 43 24 84 99 99 97 96 77 81 77 45 39 21 13 14 14 16 29 27 41 54 59 67 83 84 92 96 90 76 84 87 79 96 99 98 92 86 92
95 95 79 83 95 95 92 88 60 23 18 91 100 98 100 92 90 91 41 39 31 15 11 12 9 11 21 22 33 50 63 74 82 77 77 80 92 98 69 58 85 96 98 99 90 97 88
92 47 41 74 85 80 91 61 30 24 45 97 100 98 100 96 85 42 29 33 25 13 11 11 10 11 15 20 27 38 59 68 89 81 83 89 96 92 74 82 97 97 99 94 98 84 80
77 22 37 46 61 78 76 62 24 26 43 98 98 98 98 97 56 37 26 29 24 9 10 10 13 14 18 20 22 29 50 66 71 74 77 86 85 84 86 70 82 74 78 90 98 98 90
63 24 63 72 91 79 86 64 24 28 87 98 98 99 86 57 47 32 24 22 11 12 13 15 19 21 20 16 18 26 38 60 60 52 43 46 49 65 57 57 75 73 62 56 85 100 96
57 34 58 76 96 97 81 62 25 41 97 98 98 99 93 43 37 26 50 18 12 14 18 19 23 20 16 14 18 22 27 32 37 47 63 87 88 89 64 66 69 68 51 46 65 91 87
53 36 59 80 86 97 94 84 84 96 98 98 99 94 82 47 49 44 53 15 13 18 18 21 20 18 14 13 17 25 27 37 48 72 80 67 72 86 88 98 96 86 88 83 73 77 98
73 31 55 69 77 86 95 96 97 97 98 99 95 90 69 36 47 40 27 17 15 20 19 19 19 20 18 13 24 25 36 51 65 78 45 56 60 76 86 86 88 95 88 92 93 96 100
71 26 48 59 71 76 94 100 82 81 89 93 85 94 66 40 46 26 21 12 20 20 20 18 23 20 13 18 25 32 56 59 63 74 43 46 58 77 100 100 78 84 86 78 96 100 99
69 24 43 52 64 79 96 97 73 88 88 94 97 91 49 54 55 25 24 14 20 20 18 21 24 24 18 20 25 30 42 59 77 76 46 49 57 78 90 100 95 91 96 83 87 100 98
69 28 40 52 59 82 96 99 100 100 100 95 98 59 43 39 42 16 14 15 18 20 17 19 22 25 20 20 26 30 38 52 60 69 62 47 59 68 75 83 46 68 83 87 94 83 98
66 33 34 48 64 57 97 98 99 98 96 97 79 53 43 37 19 14 18 12 14 19 17 17 20 24 21 17 27 28 32 45 51 57 59 63 77 98 100 97 76 63 76 87 93 91 91
64 33 28 45 62 59 96 99 99 95 94 98 62 40 35 48 34 46 52 12 16 20 16 18 18 26 20 12 23 29 31 36 40 44 55 69 57 73 72 70 64 52 54 56 58 74 91

GFSGBSN_700_rhum_105.txt.gz
RH
9 6 5 4 4 4 4 4 5 22 45 58 69 98 85 94 94 82 11 15 20 13 19 25 26 30 38 41 31 38 43 78 99 98 99 96 83 90 83 58 59 68 74 97 89 99 98
7 5 4 4 3 3 2 3 3 5 20 45 82 98 100 100 98 94 15 14 25 12 19 23 27 26 36 45 36 36 62 100 100 100 95 97 87 81 74 74 63 66 77 95 74 99 98
9 7 6 4 3 3 2 4 4 4 5 16 43 85 60 99 100 99 50 14 24 14 17 22 25 27 33 40 44 39 81 91 83 98 96 94 98 92 77 67 60 48 66 82 97 98 100
12 10 9 6 5 4 3 4 5 7 6 5 14 78 68 100 98 100 86 14 24 18 20 23 23 28 31 44 46 45 76 88 88 98 91 99 95 94 98 76 70 49 79 98 94 97 100
19 14 10 7 5 4 4 3 4 5 7 8 7 13 91 95 98 100 83 18 22 23 18 20 20 26 38 44 49 59 57 82 77 82 99 100 99 93 99 90 84 70 64 84 79 88 99
21 15 11 8 6 4 3 4 5 7 9 9 8 8 33 83 98 99 89 17 18 26 23 20 20 26 31 48 50 62 85 86 97 96 96 92 95 99 100 99 77 53 53 59 51 81 99
22 16 11 7 4 3 3 3 5 6 9 10 13 9 12 31 95 99 98 28 39 28 29 24 23 25 30 48 50 62 69 88 98 90 84 93 85 95 95 86 63 43 33 81 83 66 98
20 13 7 5 4 4 4 6 7 8 8 12 16 13 8 23 92 97 83 42 26 33 33 24 23 25 28 37 46 58 68 72 75 95 94 90 91 94 100 90 88 86 77 92 88 94 93
15 6 4 4 5 7 8 10 16 14 13 13 14 19 13 20 76 99 94 53 29 37 45 36 24 25 28 28 34 50 61 67 65 60 80 82 84 88 91 92 89 91 84 93 93 97 95
12 5 4 5 7 31 44 61 75 38 27 17 15 22 16 20 98 96 88 36 32 39 52 40 24 25 25 25 29 32 50 64 64 70 61 59 67 80 81 90 87 82 84 86 85 95 97
8 4 6 10 15 26 75 100 99 81 61 41 24 22 18 29 99 98 45 36 35 52 78 34 30 26 27 26 24 27 30 37 52 58 70 65 60 56 63 71 73 70 79 77 84 85 81
5 6 11 20 28 36 96 98 98 93 79 43 30 22 30 69 99 95 40 36 48 70 73 35 30 25 26 25 26 28 28 31 38 41 47 62 72 66 64 67 78 82 81 84 87 97 96
6 10 17 26 36 54 86 80 92 93 87 38 27 24 23 93 100 95 43 56 76 93 35 37 33 31 30 27 24 31 24 31 35 36 38 42 55 73 80 74 91 93 87 96 97 96 90
9 20 31 39 78 95 92 93 96 96 77 37 28 21 48 96 100 88 42 80 81 40 36 28 30 34 37 29 31 30 28 31 42 55 66 68 54 74 87 94 94 96 82 73 91 94 88
17 32 49 82 92 92 94 94 95 95 65 31 98 64 35 97 84 93 47 75 53 30 32 25 26 33 32 34 28 34 34 42 55 64 68 71 73 62 78 86 92 97 94 81 80 83 82
26 45 86 95 78 61 90 94 95 95 58 30 98 98 100 98 93 84 52 66 50 38 32 26 28 28 28 30 30 27 38 54 63 73 84 87 86 72 70 82 86 94 93 99 97 96 94
38 60 94 38 32 46 77 96 95 92 52 25 94 100 98 99 98 73 63 50 39 51 36 32 32 22 27 29 31 36 43 58 78 81 91 94 92 74 63 84 91 97 96 91 93 92 83
41 75 90 38 53 43 89 92 97 92 53 22 38 100 94 100 98 82 32 52 50 41 33 33 24 21 23 26 26 37 40 54 69 75 80 82 87 89 66 79 78 78 97 98 96 98 78
44 78 94 46 72 60 63 98 94 58 28 40 100 98 93 98 99 74 29 72 51 37 33 33 18 16 19 24 26 32 42 54 74 80 77 75 91 88 59 82 97 95 78 93 97 97 87
44 78 94 48 100 91 89 59 64 45 26 44 97 98 100 98 97 86 48 72 54 34 24 26 17 15 18 22 22 24 37 48 53 60 69 82 84 84 80 67 79 78 61 68 75 96 96
44 75 90 57 69 84 96 89 64 48 29 76 98 98 85 91 99 95 59 57 45 41 20 19 21 19 25 19 17 20 28 41 50 54 53 49 52 69 72 70 61 57 47 57 62 59 97
43 75 99 74 69 79 96 56 50 50 27 72 97 99 83 77 99 80 46 61 37 25 23 19 23 25 20 16 15 18 24 29 32 40 56 69 64 69 97 99 52 45 40 52 50 56 68
38 71 82 50 56 79 94 73 89 61 39 83 98 98 95 96 59 51 40 52 35 22 24 24 23 21 18 16 14 22 26 30 39 62 58 35 52 77 80 99 83 63 98 94 88 91 100
35 69 66 27 49 76 97 96 96 83 72 84 97 99 97 87 58 41 65 56 28 24 25 24 21 21 20 14 21 25 31 42 54 67 35 36 53 68 76 82 84 97 92 97 98 97 97
32 65 63 27 43 52 72 94 96 97 84 89 100 97 97 84 58 47 49 50 24 24 24 21 22 24 16 15 25 34 48 52 48 62 40 35 48 57 78 100 76 84 90 81 95 98 100
28 61 54 26 36 50 57 94 99 63 68 62 66 98 96 47 68 46 42 25 22 21 23 20 24 23 23 16 23 28 35 45 53 44 47 43 46 56 76 93 87 91 94 83 89 92 97
24 59 48 26 36 40 63 99 96 89 66 64 70 90 75 51 64 60 34 33 27 22 23 19 22 24 23 18 23 28 32 39 43 39 40 43 37 50 61 63 41 64 80 89 96 84 90
22 56 43 24 36 34 79 99 100 83 79 78 84 96 65 47 53 58 29 29 20 22 22 19 21 22 26 17 22 24 28 36 38 38 41 45 49 50 74 84 66 60 76 83 87 88 91
19 54 45 22 33 36 67 98 100 100 100 98 95 74 50 50 46 41 20 17 20 18 22 20 19 24 25 18 16 23 27 32 34 33 39 50 46 46 49 47 50 51 51 50 57 60 64

GFSGBSN_700_rhum_108.txt.gz
RH
20 18 16 12 8 7 6 5 4 4 3 3 4 7 28 76 99 99 97 93 85 17 25 17 19 23 26 37 38 34 56 57 70 87 91 86 95 96 84 73 66 67 68 78 92 83 99
27 25 22 19 16 13 11 8 5 4 4 5 5 4 9 52 77 61 90 73 90 54 21 16 18 22 25 38 42 38 63 72 88 90 88 90 83 85 86 64 67 55 68 87 75 84 95
32 30 28 25 22 18 13 8 5 4 3 3 4 5 6 8 51 84 93 99 98 50 28 19 20 21 24 35 40 46 76 84 96 100 99 98 97 100 88 84 48 53 58 81 70 91 97
38 36 33 30 27 24 18 9 5 4 4 4 3 4 7 8 40 79 80 91 95 34 28 33 20 19 21 28 38 47 74 77 100 100 100 98 93 95 94 91 66 59 52 80 81 85 95
39 37 34 30 25 18 12 9 5 4 5 5 5 5 7 9 8 44 90 81 100 28 26 29 22 20 23 27 40 57 65 78 98 91 95 99 99 96 94 99 96 61 77 40 66 73 86
42 39 34 27 22 16 9 4 4 4 5 4 5 5 8 10 9 10 83 85 99 38 35 40 25 22 27 32 37 59 68 97 96 94 96 86 95 94 98 98 72 80 50 30 48 56 58
44 40 32 20 10 5 5 6 4 6 8 6 6 6 10 14 13 8 60 97 99 49 50 33 24 24 30 36 44 55 73 79 94 93 90 89 97 94 86 94 83 96 81 49 79 58 49
47 42 30 16 6 6 6 12 13 21 23 12 11 10 11 12 16 9 85 100 96 77 37 34 28 25 29 34 42 55 65 72 86 91 89 88 94 90 92 92 94 98 86 90 57 43 67
50 41 26 11 6 7 11 16 24 56 60 32 20 16 10 11 16 11 98 99 99 75 55 57 34 30 30 32 39 52 57 60 62 69 91 94 87 85 93 90 93 91 86 88 91 76 90
53 45 24 9 7 9 14 23 53 94 83 81 44 32 13 14 21 77 86 96 96 44 65 48 35 35 28 30 34 47 64 64 64 69 62 68 75 80 85 91 82 77 80 82 78 95 95
55 47 16 7 10 16 25 40 63 95 85 92 67 38 21 19 28 100 97 77 55 52 60 40 45 36 30 31 36 36 40 42 45 55 65 62 61 63 72 83 81 81 78 78 85 95 87
61 41 11 10 20 39 67 99 100 98 85 83 63 36 26 24 64 100 92 48 58 52 77 42 39 31 30 28 33 33 34 37 35 40 48 50 62 71 73 68 81 80 81 81 93 98 75
65 31 12 23 48 92 93 96 96 91 96 87 61 35 29 26 88 79 96 49 64 69 45 41 44 35 30 29 31 34 35 37 36 51 48 57 56 60 80 80 73 86 86 79 80 89 61
65 17 21 44 96 62 44 42 74 94 96 87 46 46 26 40 100 98 86 70 72 67 50 38 45 41 38 34 34 43 43 38 37 46 58 77 69 71 80 87 89 90 94 64 61 59 55
58 16 34 81 63 39 40 52 78 98 96 72 44 97 41 100 100 98 84 84 65 51 39 41 45 51 38 38 37 43 38 45 51 57 73 79 77 63 68 72 84 94 93 85 81 74 68
47 20 45 98 46 49 48 69 86 95 93 61 50 98 64 86 91 100 76 77 63 49 36 40 51 37 34 35 38 33 39 50 60 63 80 75 89 74 69 62 80 90 95 98 92 88 62
42 23 51 96 64 55 53 79 88 83 82 53 48 99 97 97 99 97 94 76 58 59 46 35 45 33 30 32 37 43 44 57 75 78 80 85 84 86 72 77 87 92 98 98 97 94 58
35 28 56 90 79 75 78 65 85 79 72 37 31 94 96 99 99 97 84 68 61 62 45 36 33 29 28 32 36 43 40 44 63 74 88 78 80 93 79 77 82 80 92 94 98 90 92
30 29 61 91 88 67 89 90 71 73 73 34 78 96 94 96 98 91 73 58 53 62 33 38 34 22 28 29 38 32 34 43 54 77 77 63 84 74 59 85 91 99 85 74 91 97 96
34 26 57 90 85 70 89 89 71 62 41 25 89 98 94 98 98 97 76 66 72 60 35 29 32 24 23 25 26 25 27 35 42 50 56 66 76 80 64 79 81 85 89 90 74 94 99
36 25 52 95 83 80 87 92 68 54 43 25 88 97 93 92 94 96 80 68 57 56 39 25 27 28 28 28 19 20 20 28 38 34 40 49 54 63 71 77 72 66 52 48 58 70 80
43 23 46 92 71 83 82 97 57 51 44 34 94 100 99 98 94 97 88 59 67 54 28 25 26 30 30 26 19 18 20 24 26 36 50 42 41 66 81 94 69 46 42 46 63 67 72
50 22 44 81 36 70 93 99 86 56 42 33 95 100 97 96 91 95 52 60 60 43 19 27 27 30 24 21 17 17 22 24 33 48 32 38 52 63 82 75 76 85 88 99 100 100 98
56 19 41 69 29 53 85 90 92 93 35 46 91 99 99 93 89 71 63 62 60 32 23 27 27 24 23 19 15 22 24 31 38 50 29 42 49 50 69 71 74 88 89 96 98 100 99
59 18 31 63 26 38 56 71 74 65 57 72 86 97 97 89 78 50 57 59 60 39 24 27 24 25 21 18 23 28 37 42 37 48 32 34 43 47 83 71 68 78 88 83 83 94 99
59 16 28 58 28 30 42 54 66 59 58 65 69 71 88 77 61 57 64 62 57 29 26 25 22 24 24 21 22 30 51 34 39 38 41 37 38 47 55 71 51 85 81 80 81 96 89
55 17 24 53 22 29 53 74 71 45 42 49 53 63 83 64 67 60 54 45 37 28 25 24 22 23 25 22 22 28 32 32 45 36 33 36 35 48 62 66 41 52 56 79 96 85 82
50 18 22 49 24 26 64 57 53 57 55 54 53 65 79 63 62 61 55 36 36 38 25 23 21 20 26 21 18 22 27 27 32 30 31 33 38 40 48 70 54 45 57 68 63 55 62
43 18 25 48 30 26 44 58 58 73 54 54 64 74 75 54 55 55 59 43 36 33 24 23 20 20 27 26 20 18 20 25 28 37 30 36 33 34 36 36 40 41 46 47 50 53 55

GFSGBSN_700_rhum_111.txt.gz
RH
37 36 35 34 34 32 28 24 18 14 9 6 4 4 4 4 5 31 79 69 70 67 87 56 24 16 22 16 21 31 33 47 55 70 75 85 92 99 97 94 88 82 92 73 81 80 79
39 38 37 36 34 31 29 25 19 12 8 5 4 3 3 4 6 10 32 56 83 87 92 30 28 24 21 17 22 34 40 55 61 84 84 69 87 99 98 98 96 98 89 63 62 62 88
42 41 39 36 33 30 29 24 17 10 5 4 4 4 3 4 5 9 16 72 92 83 92 36 30 23 23 18 22 34 49 64 79 97 98 92 91 92 98 98 98 99 86 64 68 68 62
46 46 42 38 34 31 28 23 18 11 7 4 4 4 4 4 6 7 9 64 94 89 91 37 31 25 21 18 24 36 55 70 76 92 97 94 96 97 94 98 97 100 96 99 85 65 39
51 51 45 40 37 32 22 15 13 13 13 13 7 5 4 5 7 8 9 21 87 99 90 32 38 35 24 20 27 41 55 57 96 93 97 97 98 95 86 95 98 89 71 74 78 61 72
58 54 47 43 40 25 15 10 15 42 52 38 19 10 7 8 8 12 11 36 41 92 83 42 50 34 25 24 30 43 56 62 84 96 99 94 98 96 84 96 98 78 72 66 67 55 61
61 58 52 47 42 33 17 8 13 53 95 94 58 21 14 10 11 15 13 54 81 98 86 43 42 32 23 26 28 42 51 69 79 90 96 86 98 98 91 94 96 87 69 57 52 68 70
66 63 56 51 45 29 13 9 16 35 58 85 92 61 23 15 13 16 14 88 99 97 89 72 41 37 28 24 30 35 51 65 84 96 96 84 86 98 82 97 98 84 65 59 77 61 51
69 65 60 54 43 16 9 15 28 62 100 87 90 96 42 22 22 46 26 96 100 100 95 69 51 54 34 25 33 33 50 53 66 90 87 90 95 77 86 91 82 75 71 67 73 92 76
70 69 65 57 25 13 20 41 88 98 98 96 90 90 65 31 31 72 99 70 94 97 60 64 57 43 40 28 32 34 52 58 64 77 90 83 84 78 93 85 79 71 80 83 82 81 59
74 73 70 43 15 23 62 92 77 73 87 94 88 95 79 40 39 99 100 100 92 70 88 56 50 43 36 32 37 34 44 48 68 87 78 87 76 93 85 77 87 83 74 82 76 72 66
78 78 72 26 18 57 92 42 43 44 63 99 94 97 86 50 49 90 79 66 75 80 83 50 47 38 35 31 32 31 31 32 36 38 62 57 49 64 88 73 67 78 81 78 76 79 68
82 83 64 20 30 96 45 50 53 55 73 96 96 97 79 38 67 100 89 66 86 97 53 58 60 37 42 46 33 34 38 66 78 70 78 70 71 52 57 91 85 80 85 77 76 80 56
88 87 55 21 54 96 48 52 83 74 88 96 97 73 45 28 96 100 100 72 100 77 53 46 53 39 76 50 47 46 78 68 63 75 78 69 67 70 71 96 97 95 86 77 81 60 41
96 93 42 28 68 93 53 63 71 80 92 100 84 90 62 33 98 98 90 97 97 80 46 48 46 71 82 46 58 62 70 67 68 76 70 64 59 66 61 57 90 92 96 87 84 58 48
99 95 37 32 79 89 63 54 65 82 95 86 72 98 70 98 98 96 97 100 78 44 42 45 61 60 52 75 57 57 62 40 79 51 54 80 75 71 77 52 80 82 82 89 79 78 54
100 97 42 36 84 90 61 74 56 76 89 52 72 97 88 98 99 97 92 100 82 58 44 52 39 57 59 67 67 62 67 46 50 68 60 86 84 78 72 86 82 84 96 92 92 95 90
98 98 39 40 86 91 50 63 76 59 78 36 72 97 96 96 98 96 95 81 74 61 50 34 24 25 64 54 71 69 72 39 47 62 87 82 84 81 60 66 92 98 94 77 87 97 87
98 98 33 42 90 87 65 59 70 53 66 49 69 98 98 95 98 96 68 72 72 55 43 31 24 20 25 53 65 62 30 33 41 57 76 66 89 74 62 87 84 93 93 90 92 99 93
99 93 31 45 92 88 70 68 48 50 48 36 85 100 98 98 96 99 88 62 78 67 48 24 23 21 23 39 30 42 41 31 37 45 50 59 66 72 63 76 91 85 84 76 95 98 85
98 87 26 51 60 80 84 91 52 45 35 26 89 99 96 90 95 99 82 77 73 52 36 26 26 30 36 64 47 47 21 29 34 32 41 46 50 66 83 87 89 82 59 59 60 79 88
99 80 25 55 34 58 85 94 61 39 38 44 91 99 93 100 89 96 83 78 72 48 33 30 29 30 32 50 25 33 21 29 30 34 41 35 45 62 75 88 86 62 58 44 51 87 89
99 74 23 48 37 63 80 88 51 32 36 58 94 94 86 91 81 90 88 76 64 49 24 28 27 29 28 27 23 16 22 23 28 38 30 41 48 66 75 63 81 85 90 91 100 100 99
98 77 19 36 37 51 66 73 41 27 55 71 86 91 92 95 90 89 75 68 61 38 26 26 24 25 25 20 17 20 24 26 30 37 28 39 41 45 77 72 73 96 77 90 97 94 97
93 78 21 25 46 39 42 46 26 38 54 61 68 70 79 79 78 67 64 64 62 60 29 23 21 24 24 23 23 35 60 36 31 31 27 29 36 68 79 50 58 74 72 86 95 90 94
85 78 32 18 48 31 42 51 44 38 49 51 55 59 70 68 55 56 58 60 62 47 23 22 20 22 24 24 22 45 44 36 55 28 30 27 31 40 72 64 42 74 54 67 72 90 82
80 75 44 13 44 30 46 55 52 37 30 37 46 50 60 62 54 58 59 58 50 38 24 23 20 20 23 26 37 60 48 28 58 46 28 27 29 62 65 64 45 26 35 45 89 86 71
71 75 52 12 44 25 46 47 56 51 39 31 39 49 60 60 57 59 57 48 34 34 34 25 20 19 25 26 19 31 42 47 28 32 26 36 46 52 63 71 54 26 33 58 54 42 48
66 70 55 17 32 39 32 49 55 51 51 44 36 42 61 68 57 55 52 48 35 41 42 26 22 22 21 26 26 22 19 18 23 42 26 33 35 61 32 51 31 28 35 35 40 44 46

GFSGBSN_700_rhum_114.txt.gz
RH
47 46 46 45 42 36 33 32 30 25 19 14 9 6 5 4 4 12 34 69 96 88 88 81 67 28 23 20 18 16 23 31 48 51 58 91 96 92 91 94 97 98 72 89 85 82 88
50 50 48 48 44 39 35 32 30 26 19 12 9 5 4 4 4 6 23 99 20 64 96 83 78 29 30 23 26 20 26 36 58 58 68 80 100 93 86 94 92 94 92 92 88 71 62
55 53 53 52 48 44 41 37 33 26 23 17 10 8 5 4 4 4 12 13 68 94 100 80 88 31 33 26 20 23 27 47 65 67 91 91 96 90 84 92 83 92 95 83 73 51 45
60 58 58 56 52 49 46 40 31 22 32 35 29 22 8 6 5 5 7 37 70 47 100 83 88 29 39 30 21 24 33 58 60 69 80 93 99 77 91 95 95 87 92 98 98 81 84
65 65 62 59 58 54 50 42 29 17 13 85 94 91 29 11 8 8 7 12 44 52 100 86 90 41 43 23 20 27 40 58 63 75 90 92 83 91 95 97 94 89 86 93 77 85 83
71 68 65 64 61 58 52 37 18 12 16 44 78 82 88 31 15 12 10 10 17 84 81 66 91 47 36 24 24 34 46 56 73 84 86 91 89 92 98 84 98 99 99 92 76 78 74
72 70 67 68 68 62 46 23 15 24 45 70 88 75 91 79 28 20 14 17 48 70 46 93 70 40 36 26 28 32 44 52 76 83 85 92 86 95 99 98 88 94 84 75 60 62 66
73 74 72 72 74 62 31 21 45 99 97 94 93 86 89 91 46 51 43 22 71 90 87 100 88 48 39 28 27 30 38 49 96 91 92 96 86 95 90 74 91 97 94 82 70 72 73
78 78 76 76 77 47 24 74 100 87 60 70 80 94 87 94 66 41 100 86 86 99 83 93 88 66 46 38 33 26 35 45 57 68 87 80 76 89 91 84 89 87 96 83 85 81 76
84 84 82 83 70 28 42 77 60 46 52 47 63 95 94 98 70 52 100 87 100 94 98 96 70 61 58 36 32 27 29 37 53 65 71 76 81 87 82 83 81 83 87 86 71 78 90
92 92 92 88 55 23 46 77 50 84 84 57 68 94 96 97 60 98 98 98 92 94 98 99 63 59 47 38 40 32 30 34 39 53 75 57 88 81 69 88 88 83 85 72 78 69 78
96 94 94 91 43 29 92 62 87 86 88 94 95 95 96 94 39 96 98 98 96 96 97 74 64 44 38 37 32 30 26 28 30 40 56 61 61 60 63 52 61 66 54 75 75 75 76
99 92 92 96 30 52 93 66 96 98 94 95 95 96 96 59 43 91 95 91 97 98 56 79 62 42 84 39 31 30 32 72 55 70 75 71 70 72 73 76 75 93 87 85 88 89 85
100 98 96 96 29 69 76 72 85 98 96 99 93 73 48 35 52 98 94 96 98 85 62 81 68 60 77 61 50 37 65 64 76 74 73 64 65 72 55 89 91 84 88 96 95 94 90
100 99 96 92 31 84 67 65 82 89 83 95 90 97 91 69 74 95 86 98 98 79 85 79 86 75 70 47 63 77 64 70 60 59 72 79 60 70 77 53 66 71 86 87 94 63 62
99 96 98 80 39 97 69 50 63 74 73 60 98 84 95 75 97 96 93 96 79 63 80 87 62 59 64 66 68 59 56 63 67 58 52 82 79 80 70 85 87 89 80 86 82 94 69
98 95 100 57 56 81 59 57 66 56 49 61 97 80 97 97 98 94 98 94 79 56 47 71 67 55 62 63 58 57 64 66 38 41 89 87 83 70 66 85 85 78 80 94 87 92 97
98 95 100 37 53 66 53 58 49 49 36 84 88 99 96 98 86 86 94 83 64 48 38 38 38 42 59 66 68 67 74 25 30 38 87 82 72 67 78 79 96 78 91 86 93 88 93
97 96 99 31 41 54 52 54 41 44 39 73 80 96 98 97 95 91 82 78 62 50 31 32 26 22 26 34 64 53 24 20 26 29 40 40 62 82 86 95 82 85 84 81 89 98 81
94 89 80 34 42 59 52 45 35 36 36 65 66 93 88 89 94 98 96 85 71 55 41 27 32 38 61 41 24 34 47 21 26 30 39 42 51 67 87 77 75 78 56 63 71 88 85
92 75 52 37 56 65 70 56 38 26 33 53 57 76 73 82 97 96 75 73 77 52 28 30 57 32 35 57 55 44 19 20 24 31 34 40 45 51 62 82 84 78 47 49 51 65 88
83 69 43 32 50 35 23 22 28 25 41 47 42 63 65 75 83 95 78 77 57 31 29 33 35 31 25 24 24 21 18 23 24 30 31 38 46 69 49 37 34 40 49 44 56 82 86
79 65 43 20 37 39 17 17 19 29 54 62 55 54 59 57 62 69 70 66 55 28 28 29 25 31 25 22 17 14 18 20 24 30 27 38 41 71 77 55 75 82 78 75 88 99 92
84 67 49 11 32 34 32 14 19 42 65 52 61 62 59 55 55 56 66 61 51 29 25 25 23 23 24 23 17 18 21 23 23 28 25 33 34 41 52 74 87 51 54 67 65 63 73
86 73 55 13 28 30 36 22 26 38 43 53 54 60 66 66 64 62 56 61 53 50 25 22 20 21 24 22 22 39 51 45 24 23 25 25 30 44 63 66 48 63 45 61 47 46 61
82 75 65 27 16 26 38 32 34 33 40 47 57 59 63 59 60 58 57 54 54 30 21 22 19 19 22 25 20 39 51 28 58 23 24 25 26 32 52 71 56 67 30 36 38 66 66
83 78 71 52 10 28 27 38 33 37 40 45 49 53 57 54 46 55 55 50 49 32 22 21 19 18 23 27 28 55 51 36 49 41 32 23 25 31 70 66 45 32 22 27 58 48 40
82 79 73 66 27 15 28 31 44 42 34 34 38 47 54 55 53 57 54 48 45 35 29 28 20 16 21 25 23 26 21 34 21 28 31 25 34 37 54 66 59 22 23 31 29 33 31
76 76 77 70 52 13 23 29 42 53 45 28 31 46 54 63 53 54 54 50 40 32 34 34 27 20 19 19 23 26 25 27 22 30 33 29 25 53 35 39 25 22 22 25 28 32 27

GFSGBSN_700_rhum_117.txt.gz
RH
58 56 57 56 58 57 54 50 46 42 38 33 24 17 10 6 5 5 6 100 98 93 95 72 73 77 62 34 24 28 19 26 45 56 54 71 90 93 96 84 91 92 85 84 70 86 80
64 63 66 65 65 64 62 59 53 47 39 32 33 24 15 9 5 5 6 8 71 100 61 99 57 80 79 32 36 29 20 31 54 68 67 90 89 98 100 84 90 84 81 81 84 70 94
67 70 69 70 69 68 65 63 57 50 41 27 20 49 49 17 7 6 6 8 36 87 86 95 84 83 67 33 30 26 26 38 61 76 82 99 96 97 98 87 85 79 76 78 84 86 91
72 73 73 73 73 72 70 65 59 48 31 20 18 37 83 52 16 8 7 7 8 72 100 72 85 99 43 39 35 26 34 43 59 74 93 83 88 96 95 94 89 84 80 57 56 77 93
78 75 77 77 78 78 76 76 54 32 26 43 65 82 72 82 49 14 11 7 9 26 100 56 75 93 50 41 24 30 37 55 59 88 86 80 83 89 96 96 91 92 91 86 86 74 84
85 82 84 86 84 80 88 66 46 78 93 94 94 90 85 90 85 67 41 16 9 17 85 88 69 84 51 26 27 34 43 63 75 87 80 88 91 83 89 98 96 97 100 100 100 91 87
93 92 94 93 86 89 87 79 95 100 86 83 82 80 89 91 96 89 75 21 18 34 72 81 81 66 40 33 32 40 47 65 82 82 82 88 91 78 92 91 88 91 90 93 85 85 82
99 97 96 94 92 93 80 93 99 71 62 80 67 57 88 95 96 90 89 42 36 45 78 97 89 70 42 36 35 36 41 60 77 67 91 100 77 85 93 91 85 86 97 92 99 97 94
100 96 96 94 94 92 91 94 75 85 88 87 96 81 74 91 96 88 88 60 76 59 81 85 97 92 69 46 39 26 41 54 66 65 82 85 79 83 89 88 73 82 88 97 91 79 76
100 98 96 96 93 76 87 92 78 86 90 97 94 84 81 96 96 53 98 93 95 80 93 96 84 72 58 50 40 36 38 56 71 80 78 62 92 85 86 83 90 80 87 86 72 76 76
99 98 97 97 80 90 86 74 81 85 95 92 98 98 96 96 64 99 95 91 94 89 93 100 75 66 61 43 44 34 36 36 33 30 33 34 52 54 45 55 92 88 68 62 63 79 77
99 98 97 97 55 68 93 64 75 94 90 94 97 96 97 76 45 96 81 86 82 94 96 96 62 52 48 46 34 27 30 40 35 44 72 72 76 71 78 46 83 76 79 55 51 75 80
99 98 98 97 48 63 84 49 63 85 92 92 85 79 71 40 38 94 99 95 94 87 86 94 58 71 69 38 31 34 64 78 68 52 58 63 80 74 72 42 77 79 78 87 87 90 89
99 100 98 98 46 61 48 43 55 68 68 95 93 68 54 31 87 94 95 95 89 93 100 76 68 81 67 65 44 71 73 78 61 49 62 80 68 74 80 84 88 74 92 97 96 91 93
98 100 96 100 41 43 40 47 46 50 91 70 76 54 44 60 90 95 96 91 100 94 99 80 85 76 50 62 62 68 67 61 67 51 58 86 63 79 78 86 73 79 77 84 96 94 91
95 100 97 86 41 43 44 36 44 52 73 67 64 51 67 71 90 96 92 100 100 97 89 78 65 64 59 70 57 59 63 64 42 47 77 86 85 75 74 54 69 78 78 77 82 94 95
86 95 74 44 41 33 37 36 37 67 52 59 63 47 72 81 90 73 94 93 72 61 61 64 56 61 63 55 58 57 53 59 28 42 83 67 76 66 63 95 81 73 80 87 92 93 97
75 79 36 44 49 31 28 32 35 59 55 58 47 55 73 75 70 73 68 71 49 37 25 32 39 49 63 63 59 38 32 21 24 28 39 59 60 84 98 92 80 77 76 83 89 82 96
68 67 21 45 22 26 24 28 33 60 60 55 42 53 59 56 60 68 70 66 48 26 20 20 24 33 32 37 42 22 23 21 23 25 28 36 36 76 88 69 39 62 67 68 93 94 100
65 58 19 21 13 14 18 28 31 47 58 53 49 59 59 51 57 64 60 58 39 24 30 29 39 41 46 30 17 19 19 20 22 26 30 40 48 47 74 75 67 43 52 57 59 70 90
66 58 18 19 14 13 17 24 28 36 51 55 64 60 47 49 58 52 54 55 27 25 25 33 26 25 30 34 29 17 16 20 22 26 28 37 44 43 49 51 44 43 46 49 51 58 80
69 58 25 24 14 17 19 20 22 25 40 42 59 75 58 46 51 54 56 43 17 22 23 24 24 24 23 21 16 14 16 18 19 23 27 31 42 42 54 61 39 40 44 42 66 77 70
74 60 43 18 22 15 17 17 19 22 26 35 49 68 76 50 54 57 49 26 20 21 20 21 22 23 24 21 14 14 17 17 19 21 23 29 31 43 41 58 75 65 46 47 49 56 62
77 63 50 14 22 21 16 15 20 26 36 41 40 51 67 64 58 53 47 34 18 18 18 18 19 22 23 19 16 21 20 19 20 20 20 26 26 29 43 68 63 37 52 56 54 55 57
75 72 56 34 17 23 22 17 24 31 34 46 50 48 49 53 64 59 53 48 26 18 17 15 17 20 24 20 13 26 38 27 21 18 21 20 24 30 35 63 51 42 30 30 36 40 48
72 79 63 47 13 21 25 23 19 25 27 36 42 46 50 50 63 63 59 46 36 19 19 16 16 20 24 25 15 25 34 24 25 23 22 23 21 23 33 58 64 33 28 22 25 60 38
72 78 76 55 41 13 20 29 20 22 24 30 37 50 50 45 55 59 60 53 47 29 20 18 17 17 21 25 19 21 31 32 24 17 21 23 22 23 38 50 26 25 27 22 31 26 26
73 78 78 70 51 34 14 21 28 26 24 22 30 35 42 47 46 48 56 55 52 40 29 25 21 17 17 20 25 26 18 28 24 22 24 28 25 24 34 58 34 18 18 22 17 21 21
78 78 82 82 69 48 30 14 22 22 22 34 28 24 27 39 48 50 57 54 53 47 35 33 31 24 18 17 18 20 20 23 24 26 24 29 19 22 27 13 14 15 14 16 18 18 18

GFSGBSN_700_rhum_120.txt.gz
RH
59 76 79 77 77 78 75 73 71 68 68 57 42 44 96 51 24 11 7 10 98 100 91 98 92 78 84 75 33 29 32 26 32 57 60 66 74 93 89 98 100 99 80 85 72 72 65
70 81 86 86 86 82 86 87 92 96 94 59 75 60 87 93 78 25 10 11 88 100 100 93 90 52 70 78 46 38 33 30 48 68 71 82 90 94 90 98 99 93 94 80 67 59 71
67 80 92 94 90 86 90 95 94 100 98 96 95 95 74 81 96 43 15 9 14 37 88 77 79 93 82 59 41 35 26 33 68 79 83 100 100 100 97 88 98 93 94 82 61 56 63
77 98 98 96 89 91 94 93 100 97 96 95 96 96 94 81 86 60 28 12 10 25 58 100 94 84 94 45 39 36 26 43 68 67 91 95 100 99 98 99 93 93 96 80 73 85 85
92 100 95 88 83 86 91 99 99 94 84 79 68 79 97 95 96 93 69 28 12 36 56 100 70 79 95 49 46 30 40 59 72 88 100 100 100 97 92 91 93 92 98 96 88 84 99
98 99 89 82 85 85 87 100 86 84 90 94 89 61 84 98 97 98 92 85 64 74 55 99 36 65 82 47 36 43 55 67 71 90 93 94 99 97 95 99 98 98 100 95 92 88 100
100 98 98 97 94 95 85 75 84 80 84 86 95 94 68 94 96 97 91 81 82 54 28 48 74 76 70 41 33 42 60 76 80 81 87 97 98 78 89 98 99 91 99 100 78 92 94
99 98 98 96 98 64 68 77 69 87 92 92 96 94 94 72 96 96 85 79 49 33 33 58 82 74 49 44 37 49 58 69 77 82 99 99 81 87 90 98 99 94 98 88 82 81 85
98 98 97 97 99 54 80 56 68 94 97 97 94 80 71 83 96 94 68 78 50 71 91 84 90 92 66 50 41 59 51 61 69 65 76 95 78 89 88 85 81 79 79 95 91 68 59
98 97 96 98 91 52 54 38 59 87 94 96 95 91 84 88 90 55 75 50 54 83 73 92 92 92 84 52 45 41 45 55 68 73 73 69 90 83 70 55 72 87 82 90 62 61 88
98 97 97 79 47 34 32 41 61 77 94 93 98 90 82 77 49 97 66 95 68 94 92 99 78 76 62 48 44 39 45 40 39 51 54 67 72 64 70 60 81 86 57 58 53 55 81
99 99 97 46 40 28 35 43 65 88 86 81 75 57 44 78 94 58 62 91 96 90 98 82 62 60 48 45 33 37 66 60 47 41 64 73 80 75 82 63 94 84 84 72 56 66 93
100 98 81 41 34 27 32 53 71 54 67 48 38 39 38 66 76 66 64 80 72 90 94 72 62 56 41 38 57 68 77 58 46 37 55 75 78 77 84 63 67 76 69 85 86 91 97
94 80 40 36 24 26 38 57 39 34 20 17 35 66 64 75 90 95 88 76 88 94 94 78 76 55 56 57 63 69 80 64 47 42 75 84 70 90 81 86 83 85 86 95 97 97 96
74 55 30 24 18 23 43 49 51 57 38 14 26 51 78 72 65 64 59 76 91 91 83 85 74 52 59 70 68 67 76 72 54 62 69 83 68 76 74 68 68 72 93 97 98 95 83
66 24 17 16 16 23 40 40 47 51 40 47 36 50 48 42 51 50 53 88 98 89 72 66 68 61 70 65 60 65 49 47 35 62 85 68 81 70 59 66 71 71 79 83 83 92 96
62 14 11 11 18 25 36 32 36 38 61 47 45 48 47 32 28 26 31 56 58 60 56 58 57 56 56 60 52 51 24 42 26 36 61 43 62 69 70 87 74 58 74 80 91 99 96
59 11 10 12 18 23 29 31 30 42 47 61 47 56 53 36 19 17 19 19 25 30 30 31 32 42 48 44 24 23 21 21 24 30 39 48 62 76 94 76 74 61 79 78 70 86 100
59 19 10 11 17 22 24 29 33 33 38 52 38 50 48 39 26 21 18 16 19 16 15 18 25 24 20 25 28 17 17 19 23 26 25 28 31 84 62 47 47 50 58 77 82 87 99
58 39 11 11 14 20 19 21 26 28 35 39 47 52 54 53 48 28 14 13 20 25 24 24 31 26 19 19 13 15 19 20 21 22 27 26 31 40 49 49 48 48 48 48 58 70 76
62 48 12 11 13 16 18 19 22 36 30 26 35 40 46 63 57 42 20 16 19 23 25 23 22 19 20 18 16 12 15 18 19 21 23 28 30 36 41 46 46 45 44 43 45 56 72
67 52 31 11 11 14 17 20 20 24 31 35 36 35 46 57 59 55 24 19 19 19 23 25 24 22 17 15 10 12 13 13 16 18 19 24 36 44 54 45 42 43 41 43 52 54 55
73 57 46 15 12 11 13 17 18 19 25 29 38 38 32 39 59 61 38 24 22 18 17 18 21 23 21 15 10 12 13 13 15 16 17 19 22 39 42 56 48 34 37 40 46 51 55
78 66 51 39 12 12 10 13 16 18 23 30 35 44 38 42 46 50 36 26 24 21 17 18 20 22 22 16 14 21 14 14 13 14 14 17 18 23 41 52 34 18 30 33 34 36 39
85 76 61 48 36 13 16 12 13 16 20 31 37 43 45 43 50 49 35 29 32 25 21 18 18 22 24 20 14 21 23 20 17 14 14 15 16 20 26 32 36 21 16 20 22 21 36
95 82 73 57 46 29 14 18 13 15 17 27 38 42 47 49 46 47 45 26 29 22 21 19 18 21 23 22 16 18 18 20 18 14 17 16 18 19 22 34 47 17 17 19 20 30 18
100 86 84 69 54 46 21 16 23 14 16 20 27 31 34 43 46 50 48 43 33 31 23 21 19 18 20 25 25 23 16 29 24 13 17 17 19 20 21 25 11 14 14 16 25 14 16
98 94 84 79 66 52 47 20 18 24 15 17 20 21 28 38 41 42 52 50 43 40 30 25 24 21 18 19 22 23 24 25 26 23 21 20 21 19 25 33 23 10 11 15 12 12 14
98 98 87 80 78 66 54 47 21 17 24 24 24 23 21 21 33 38 43 47 48 44 40 35 29 26 21 18 19 18 17 18 21 22 24 25 20 22 17 11 10 11 11 12 12 13 14

GFSGBSN_700_rhum_123.txt.gz
RH
75 94 88 86 87 85 80 81 98 100 98 98 98 98 98 98 98 97 39 13 23 62 78 96 100 90 74 92 74 34 31 32 26 31 55 66 76 86 86 75 90 84 70 82 74 68 58
91 92 78 87 82 80 79 87 98 97 96 97 98 97 98 98 97 98 78 15 77 100 99 99 98 90 67 79 64 54 39 37 28 51 72 90 92 100 94 87 91 89 92 87 75 66 71
99 95 98 97 95 91 86 90 87 100 86 86 86 87 90 93 96 97 92 17 32 99 99 100 93 87 71 72 54 47 39 28 40 74 99 100 100 93 94 83 94 92 97 90 72 78 75
98 97 98 98 98 80 72 81 78 75 81 83 88 94 64 91 95 95 94 35 17 95 100 75 58 76 98 71 54 38 35 36 56 88 96 100 96 98 94 95 91 93 98 99 76 78 84
98 98 98 98 87 83 64 64 62 70 82 78 87 92 96 76 97 96 93 61 18 81 54 59 58 91 97 67 46 43 33 45 70 84 100 97 96 97 96 95 99 98 93 98 81 78 99
97 99 98 95 98 39 70 50 52 87 93 90 85 91 99 82 96 97 94 85 73 72 73 94 68 86 91 59 41 39 44 62 79 92 99 92 98 98 96 99 98 95 95 96 96 75 94
95 98 96 94 43 29 37 44 46 91 93 91 84 92 95 80 94 96 92 93 77 64 59 59 56 74 86 48 38 43 47 58 70 85 94 94 96 97 98 99 97 94 99 99 73 75 86
99 99 94 52 29 28 40 55 65 88 91 99 87 83 80 94 94 88 82 66 74 45 36 84 84 65 55 39 36 41 47 55 72 86 100 98 93 96 97 96 97 94 93 77 78 74 72
99 90 64 27 23 30 41 64 78 82 91 93 85 65 70 83 82 65 37 40 33 37 75 88 88 75 58 48 42 45 45 60 82 82 87 97 73 89 96 91 77 78 76 77 94 70 57
94 43 29 18 23 37 54 60 71 74 86 76 69 68 69 68 54 33 39 37 70 61 81 93 92 83 87 53 48 41 46 62 79 79 81 65 84 80 73 72 64 72 53 95 82 62 71
80 26 16 18 28 30 32 34 36 43 32 40 55 40 52 81 34 29 44 58 60 59 88 79 81 78 57 51 41 43 52 60 60 57 82 77 80 75 74 78 90 61 88 65 57 67 91
56 12 14 21 23 19 28 19 23 49 58 50 59 63 46 33 60 17 41 70 69 48 96 71 62 60 45 36 34 65 72 55 56 54 70 83 82 75 84 73 60 90 82 82 69 76 90
30 10 14 18 20 23 30 27 18 61 61 57 51 40 28 36 68 69 68 51 50 90 76 61 55 44 39 51 64 74 66 48 39 43 52 74 80 70 84 59 78 87 79 88 89 97 95
17 9 14 13 23 34 27 28 16 41 54 61 55 57 54 52 55 48 48 39 76 91 78 61 49 45 50 57 55 60 62 43 63 80 77 80 69 71 67 70 84 93 97 98 94 96 96
16 9 12 12 14 30 23 30 38 43 66 64 52 42 39 39 40 42 32 48 82 74 62 59 44 44 56 64 68 66 48 41 54 64 77 78 69 62 70 76 70 83 93 93 98 97 83
44 9 12 12 14 19 23 24 34 40 38 47 48 34 32 32 32 30 27 47 75 60 54 51 56 53 56 56 55 64 34 26 34 50 65 51 74 60 58 62 66 76 80 86 85 90 99
58 13 10 12 15 20 27 22 31 37 40 32 36 33 38 30 23 18 19 46 55 53 52 47 47 51 47 54 45 29 18 28 27 31 38 45 57 50 56 64 65 61 70 79 94 99 94
68 38 8 11 13 19 23 24 26 29 38 36 28 27 20 19 18 18 21 30 33 37 30 33 35 38 39 34 16 17 17 22 25 26 32 31 45 52 52 51 57 70 77 85 78 93 99
91 51 10 10 11 14 19 22 24 29 33 34 30 23 21 14 14 14 17 16 15 16 17 23 24 14 12 19 22 15 15 19 23 24 24 28 27 45 40 42 46 51 57 72 78 80 90
97 57 35 8 10 12 16 19 23 26 33 40 36 31 25 18 14 12 17 24 25 28 30 31 27 19 16 13 11 14 16 16 19 22 23 25 34 40 44 45 48 44 46 49 62 66 77
98 64 49 15 8 10 12 18 21 27 29 35 37 33 28 20 27 19 21 24 29 30 31 27 25 23 16 12 11 12 12 13 15 17 22 25 33 38 41 43 43 42 42 40 42 49 58
89 78 57 44 9 8 10 12 16 20 24 30 31 33 37 34 29 14 18 21 22 25 27 28 27 23 20 14 10 12 12 12 13 13 15 16 21 30 38 43 43 38 39 45 48 48 52
85 97 66 55 39 9 7 10 11 13 16 22 34 37 36 37 32 37 14 18 19 20 21 22 24 24 21 17 13 14 14 13 14 14 14 13 15 16 21 32 27 23 29 35 36 43 48
87 96 89 63 54 38 10 8 10 11 12 15 23 36 42 38 42 42 29 16 16 16 17 18 20 22 24 18 12 22 16 15 14 14 14 14 15 17 17 16 22 8 15 20 19 19 25
97 90 100 81 62 55 37 10 10 10 14 13 16 28 40 40 41 47 45 22 19 16 14 16 18 21 24 25 15 16 21 18 14 15 14 14 15 16 18 17 10 8 9 14 15 13 15
99 95 92 99 76 63 54 36 11 12 11 16 17 24 31 36 40 43 46 36 19 20 17 16 17 18 20 22 24 19 14 20 15 12 11 14 13 18 16 20 25 9 8 10 12 12 10
100 99 96 94 94 75 61 52 34 11 15 12 17 26 31 33 33 38 41 44 44 24 18 16 16 18 19 19 23 26 18 20 25 17 18 18 15 16 18 17 7 7 8 10 13 7 8
98 100 100 90 99 91 75 63 51 33 13 16 13 15 23 25 27 27 34 39 47 44 30 24 21 20 19 18 19 19 23 21 24 22 22 16 16 16 17 19 13 7 9 11 9 9 10
98 100 98 100 100 98 88 77 64 51 36 13 16 15 15 16 18 20 29 36 39 46 48 39 33 25 23 20 19 18 18 17 18 20 22 22 18 22 21 14 16 17 13 11 9 8 8

GFSGBSN_700_rhum_126.txt.gz
RH
99 98 99 98 98 91 63 65 63 66 72 74 80 87 95 97 96 97 98 53 32 35 84 100 96 68 75 94 73 41 40 46 33 27 30 37 47 60 64 76 92 89 78 69 58 58 55
100 98 98 98 96 84 45 62 50 66 67 75 74 82 84 88 97 96 97 70 76 80 78 87 99 96 80 83 73 66 47 38 32 29 46 60 74 91 82 92 97 93 85 64 50 56 51
97 91 99 84 73 31 31 67 40 69 86 83 76 78 87 89 75 95 90 49 91 97 98 100 98 91 68 53 59 52 44 34 31 40 74 99 98 86 96 90 88 93 85 73 68 78 73
90 86 75 73 32 25 63 68 60 82 92 88 83 76 81 76 97 94 80 53 98 99 97 94 94 58 85 80 73 46 40 34 42 65 85 99 85 92 96 86 89 88 94 98 77 81 87
95 74 40 41 25 33 86 88 77 91 94 89 74 84 92 73 85 96 78 41 88 99 97 91 42 86 77 67 44 45 41 48 62 76 88 84 98 98 89 92 92 90 92 80 84 76 90
93 23 17 24 35 48 65 87 78 85 90 78 80 84 81 84 83 94 66 34 48 66 77 34 70 70 74 55 45 38 44 52 60 75 90 82 92 98 94 98 98 99 98 94 94 73 85
30 13 21 23 17 26 40 64 76 87 84 66 73 86 83 85 86 90 76 46 54 52 58 42 68 79 64 48 41 44 46 58 61 73 87 95 97 76 82 96 100 98 99 99 79 66 95
8 15 18 12 12 16 30 28 62 84 80 63 74 82 72 64 68 76 76 61 47 50 66 70 70 80 46 38 39 43 43 52 62 74 85 78 81 78 96 100 99 95 91 75 70 72 78
8 15 11 10 13 13 45 30 43 52 67 59 61 63 52 51 55 59 62 55 32 33 96 85 68 60 49 46 40 41 43 51 61 56 81 92 67 88 94 85 75 64 56 54 62 70 63
9 14 12 18 19 12 45 55 54 70 47 56 50 40 39 38 35 37 36 18 26 61 70 82 80 70 71 51 47 42 46 50 57 60 68 66 75 89 89 88 86 81 54 84 99 91 67
9 12 15 23 18 16 34 54 56 53 71 44 33 17 13 15 11 18 20 38 43 36 73 63 72 65 53 41 39 50 56 58 59 70 76 67 83 68 76 81 94 79 94 95 71 58 87
12 11 9 16 18 21 21 42 57 29 21 26 26 12 10 9 11 21 39 44 36 34 81 60 61 50 32 30 36 54 63 62 40 49 65 77 84 69 78 68 91 97 98 96 76 80 91
49 11 9 13 19 18 30 43 50 55 40 30 38 27 24 29 37 43 34 28 35 63 59 52 45 30 31 50 60 68 55 38 36 54 53 68 86 67 66 64 75 98 90 94 95 94 92
67 10 11 11 17 16 24 35 37 43 51 55 48 50 50 60 44 29 28 28 36 60 63 44 35 35 42 50 57 56 47 33 56 75 76 74 59 60 72 77 87 100 98 87 95 96 94
81 41 10 10 15 18 20 28 30 27 30 32 41 44 38 37 36 37 37 31 53 65 46 38 36 38 49 56 56 60 57 36 39 59 74 72 55 57 67 70 77 86 96 100 99 80 80
85 58 10 11 13 17 21 25 26 20 25 28 26 31 30 28 29 30 29 54 78 76 56 52 44 44 44 38 44 44 34 38 36 37 58 49 55 44 60 61 65 80 83 85 84 88 100
85 75 34 9 12 14 18 23 26 24 20 22 22 18 22 27 29 24 17 46 57 56 54 52 56 50 37 28 20 18 20 29 31 32 38 48 53 40 49 56 67 71 79 85 98 94 92
90 84 52 9 10 11 13 18 23 27 31 21 18 13 14 20 21 20 34 36 35 38 35 36 36 39 39 33 18 17 17 23 28 30 31 28 37 36 45 51 54 61 70 91 90 97 98
90 84 65 38 8 9 11 13 20 26 27 30 22 15 10 9 9 10 12 15 19 19 20 26 23 15 14 12 25 15 17 20 24 27 26 31 27 26 26 36 46 49 51 64 75 80 93
92 87 83 55 25 8 9 10 17 25 29 29 30 25 16 8 7 11 13 16 21 25 27 30 26 23 21 19 13 12 15 18 20 23 27 28 32 32 35 39 42 42 44 48 65 65 72
90 90 87 74 53 16 8 8 11 18 21 22 25 28 27 27 13 9 14 18 21 23 24 24 23 21 17 14 9 11 11 13 15 17 20 28 35 33 32 31 31 32 33 37 46 50 51
89 91 84 90 71 53 15 8 8 10 14 17 21 28 31 34 30 17 14 15 18 20 22 23 24 24 21 14 11 11 14 12 10 14 15 15 22 20 25 25 25 23 32 35 37 43 45
87 92 91 84 88 68 52 19 8 9 10 12 15 24 29 28 28 27 21 14 17 18 18 19 21 22 22 21 14 12 13 14 16 15 12 13 14 16 15 16 22 17 12 19 22 28 29
94 97 98 98 94 84 67 52 23 10 10 10 10 16 28 30 31 33 34 33 14 16 16 17 19 21 24 23 22 11 10 13 14 15 16 14 13 15 13 11 14 7 7 9 11 12 14
93 94 97 98 99 95 79 65 52 25 11 11 13 15 22 28 31 32 36 40 23 15 15 14 14 18 20 22 21 16 11 11 10 14 13 17 16 13 19 14 8 8 7 8 9 9 8
95 88 96 98 100 99 96 79 66 54 28 12 12 16 24 26 27 31 34 38 39 36 20 17 16 16 17 19 21 23 16 12 18 12 9 16 19 19 14 17 16 10 8 8 10 7 6
100 97 92 93 99 100 98 96 80 69 57 28 14 14 17 25 30 32 30 32 37 40 43 36 20 18 17 18 18 23 24 20 24 21 16 20 13 16 17 13 7 7 7 10 11 6 8
93 100 100 96 98 100 99 99 98 84 73 59 32 17 17 14 16 27 31 29 32 34 41 46 39 26 21 21 19 19 19 21 23 20 21 22 17 13 16 16 9 16 18 17 13 11 11
91 100 100 100 97 100 100 98 98 99 88 75 64 35 19 18 14 15 18 22 22 30 39 42 45 37 28 23 21 23 20 22 21 18 19 22 19 19 21 16 22 23 25 19 12 9 10